[[{"header":{"parameterUnit":"m.s-1","parameterCategory":1,"la1":31.0,"la2":29.5877,"lo1":-88.7671,"lo2":-86.6584,"dy":0.0162,"dx":0.0185,"nx":115,"ny":88,"refTime":"2023-03-05T06:00:00:Z","depth":0,"parameterNumber":2,"parameterNumberName":"U-component_of_WINDS"},"data":[0.0,0.0,0.0,0.0,0.0,0.0,0.0,0.0,0.0,0.0,0.0,0.0,0.0,0.0,0.0,0.0,0.0,0.0,0.0,0.0,0.0,0.0,0.0,0.0,0.0,0.0,0.0,0.0,0.0,0.0,0.0,0.0,0.0,0.0,0.0,0.0,0.0,0.0,0.0,0.0,0.0,0.0,0.0,0.0,0.0,0.0,0.0,0.0,0.0,0.0,0.0,0.0,0.0,0.0,0.0,0.0,0.0,0.0,0.0,0.0,0.0,0.0,0.0,0.0,0.0,0.0,0.0,0.0,0.0,0.0,0.0,0.0,0.0,0.0,0.0,0.0,0.0,0.0,0.0,0.0,0.0,0.0,0.0,0.0,0.0,0.0,0.0,0.0,0.0,0.0,0.0,0.0,0.0,0.0,0.0,0.0,0.0,0.0,0.0,0.0,0.0,0.0,0.0,0.0,0.0,0.0,0.0,0.0,0.0,0.0,0.0,0.0,0.0,0.0,0.0,0.0,0.0,0.0,0.0,0.0,0.0,0.0,0.0,0.0,0.0,0.0,0.0,0.0,0.0,0.0,0.0,0.0,0.0,0.0,0.0,0.0,0.0,0.0,0.0,0.0,0.0,0.0,0.0,0.0,0.0,0.0,0.0,0.0,0.0,0.0,0.0,0.0,0.0,0.0,0.0,0.0,0.0,0.0,0.0,0.0,0.0,0.0,0.0,0.0,0.0,0.0,0.0,0.0,0.0,0.0,0.0,0.0,0.0,0.0,0.0,0.0,0.0,0.0,0.0,0.0,0.0,0.0,0.0,0.0,0.0,0.0,0.0,0.0,0.0,0.0,0.0,0.0,0.0,0.0,0.0,0.0,0.0,0.0,0.0,0.0,0.0,0.0,0.0,0.0,0.0,0.0,0.0,0.0,0.0,0.0,0.0,0.0,0.0,0.0,0.0,0.0,0.0,0.0,0.0,0.0,0.0,0.0,0.0,0.0,0.0,0.0,0.0,0.0,0.0,0.0,0.0,0.0,0.0,0.0,0.0,0.0,0.0,0.0,0.0,0.0,0.0,0.0,0.0,0.0,0.0,0.0,0.0,0.0,0.0,0.0,0.0,0.0,0.0,0.0,0.0,0.0,0.0,0.0,0.0,0.0,0.0,0.0,0.0,0.0,0.0,0.0,0.0,0.0,0.0,0.0,0.0,0.0,0.0,0.0,0.0,0.0,0.0,0.0,0.0,0.0,0.0,0.0,0.0,0.0,0.0,0.0,0.0,0.0,0.0,0.0,0.0,0.0,0.0,0.0,0.0,0.0,0.0,0.0,0.0,0.0,0.0,0.0,0.0,0.0,0.0,0.0,0.0,0.0,0.0,0.0,0.0,0.0,0.0,0.0,0.0,0.0,0.0,0.0,0.0,0.0,0.0,0.0,0.0,0.0,0.0,0.0,0.0,0.0,0.0,0.0,0.0,0.0,0.0,0.0,0.0,0.0,0.0,0.0,0.0,0.0,0.0,0.0,0.0,0.0,0.0,0.0,0.0,0.0,0.0,0.0,0.0,0.0,0.0,0.0,0.0,0.0,0.0,0.0,0.0,0.0,0.0,0.0,0.0,0.0,0.0,0.0,0.0,0.0,0.0,0.0,0.0,0.0,0.0,0.0,0.0,0.0,0.0,0.0,0.0,0.0,0.0,0.0,0.0,0.0,0.0,0.0,0.0,0.0,0.0,0.0,0.0,0.0,0.0,0.0,0.0,0.0,0.0,0.0,0.0,0.0,0.0,0.0,0.0,0.0,0.0,0.0,0.0,0.0,0.0,0.0,0.0,0.0,0.0,0.0,0.0,0.0,0.0,0.0,0.0,0.0,0.0,0.0,0.0,0.0,0.0,0.0,0.0,0.0,0.0,0.0,0.0,0.0,0.0,0.0,0.0,0.0,0.0,0.0,0.0,0.0,0.0,0.0,0.0,0.0,0.0,0.0,0.0,0.0,0.0,0.0,0.0,0.0,0.0,0.0,0.0,0.0,0.0,0.0,0.0,0.0,0.0,0.0,0.0,0.0,0.0,0.0,0.0,0.0,0.0,0.0,0.0,0.0,0.0,0.0,0.0,0.0,0.0,0.0,0.0,0.0,0.0,0.0,0.0,0.0,0.0,0.0,0.0,0.0,0.0,0.0,0.0,0.0,0.0,0.0,0.0,0.0,0.0,0.0,0.0,0.0,0.0,0.0,0.0,0.0,0.0,0.0,0.0,0.0,0.0,0.0,0.0,0.0,0.0,0.0,0.0,0.0,0.0,0.0,0.0,0.0,0.0,0.0,0.0,0.0,0.0,0.0,0.0,0.0,0.0,0.0,0.0,0.0,0.0,0.0,0.0,0.0,0.0,0.0,0.0,0.0,0.0,0.0,0.0,0.0,0.0,0.0,0.0,0.0,0.0,0.0,0.0,0.0,0.0,0.0,0.0,0.0,0.0,0.0,0.0,0.0,0.0,0.0,0.0,0.0,0.0,0.0,0.0,0.0,0.0,0.0,0.0,0.0,0.0,0.0,0.0,0.0,0.0,0.0,0.0,0.0,0.0,0.0,0.0,0.0,0.0,0.0,0.0,0.0,0.0,0.0,0.0,0.0,0.0,0.0,0.0,0.0,0.0,0.0,0.0,0.0,0.0,0.0,0.0,0.0,0.0,0.0,0.0,0.0,0.0,0.0,0.0,0.0,0.0,0.0,0.0,0.0,0.0,0.0,0.0,0.0,0.0,0.0,0.0,0.0,0.0,0.0,0.0,0.0,0.0,0.0,0.0,0.0,0.0,0.0,0.0,0.0,0.0,0.0,0.0,0.0,0.0,0.0,0.0,0.0,0.0,0.0,0.0,0.0,0.0,0.0,0.0,0.0,0.0,0.0,0.0,0.0,0.0,0.0,0.0,0.0,0.0,0.0,0.0,0.0,0.0,0.0,0.0,0.0,0.0,0.0,0.0,0.0,0.0,0.0,0.0,0.0,0.0,0.0,0.0,0.0,0.0,0.0,0.0,0.0,0.0,0.0,0.0,0.0,0.0,0.0,0.0,0.0,0.0,0.0,0.0,0.0,0.0,0.0,0.0,0.0,0.0,0.0,0.0,0.0,0.0,0.0,0.0,0.0,0.0,0.0,0.0,0.0,0.0,0.0,0.0,0.0,0.0,0.0,0.0,0.0,0.0,0.0,0.0,0.0,0.0,0.0,0.0,0.0,0.0,0.0,0.0,0.0,0.0,0.0,0.0,0.0,0.0,0.0,0.0,0.0,0.0,0.0,0.0,0.0,0.0,0.0,0.0,0.0,0.0,0.0,0.0,0.0,0.0,0.0,0.0,0.0,0.0,0.0,0.0,0.0,0.0,0.0,0.0,0.0,0.0,0.0,0.0,0.0,0.0,0.0,0.0,0.0,0.0,0.0,0.0,0.0,0.0,0.0,0.0,0.0,0.0,0.0,0.0,0.0,0.0,0.0,0.0,0.0,0.0,0.0,0.0,0.0,0.0,0.0,0.0,0.0,0.0,0.0,0.0,0.0,0.0,0.0,0.0,0.0,0.0,0.0,0.0,0.0,0.0,0.0,0.0,0.0,0.0,0.0,0.0,0.0,0.0,0.0,0.0,0.0,0.0,0.0,0.0,0.0,0.0,0.0,0.0,0.0,0.0,0.0,0.0,0.0,0.0,0.0,0.0,0.0,0.0,0.0,0.0,0.0,0.0,0.0,0.0,0.0,0.0,0.0,0.0,0.0,0.0,0.0,0.0,0.0,0.0,0.0,0.0,0.0,0.0,0.0,0.0,0.0,0.0,0.0,0.0,0.0,0.0,0.0,0.0,0.0,0.0,0.0,0.0,0.0,0.0,0.0,0.0,0.0,0.0,0.0,0.0,0.0,0.0,0.0,0.0,0.0,0.0,0.0,0.0,0.0,0.0,0.0,0.0,0.0,0.0,0.0,0.0,0.0,0.0,0.0,0.0,0.0,0.0,0.0,0.0,0.0,0.0,0.0,0.0,0.0,0.0,0.0,0.0,0.0,0.0,0.0,0.0,0.0,0.0,0.0,0.0,0.0,0.0,0.0,0.0,0.0,0.0,0.0,0.0,0.0,0.0,0.0,0.0,0.0,0.0,0.0,0.0,0.0,0.0,0.0,0.0,0.0,0.0,0.0,0.0,0.0,0.0,0.0,0.0,0.0,0.0,0.0,0.0,0.0,0.0,0.0,0.0,0.0,0.0,0.0,0.0,0.0,0.0,0.0,0.0,0.0,0.0,0.0,-5.0019,0.0,0.0,0.0,0.0,0.0,0.0,0.0,0.0,0.0,0.0,0.0,0.0,0.0,0.0,0.0,0.0,0.0,0.0,0.0,0.0,0.0,0.0,0.0,0.0,0.0,0.0,0.0,0.0,0.0,0.0,0.0,0.0,0.0,0.0,0.0,0.0,0.0,0.0,0.0,0.0,0.0,0.0,0.0,0.0,0.0,0.0,0.0,0.0,0.0,0.0,0.0,0.0,0.0,0.0,0.0,0.0,0.0,0.0,0.0,0.0,0.0,0.0,0.0,0.0,0.0,0.0,0.0,0.0,0.0,0.0,0.0,0.0,0.0,0.0,0.0,0.0,0.0,0.0,0.0,0.0,0.0,0.0,0.0,0.0,0.0,0.0,0.0,0.0,0.0,0.0,0.0,0.0,0.0,0.0,0.0,0.0,0.0,0.0,0.0,0.0,0.0,0.0,0.0,0.0,0.0,0.0,0.0,0.0,0.0,0.0,-5.1387,-5.1387,-5.1035,-5.084,-5.0859,0.0,0.0,0.0,0.0,0.0,0.0,0.0,0.0,0.0,0.0,0.0,0.0,0.0,0.0,0.0,0.0,0.0,0.0,0.0,0.0,0.0,0.0,0.0,0.0,0.0,0.0,0.0,0.0,0.0,0.0,0.0,0.0,0.0,0.0,0.0,0.0,0.0,0.0,0.0,0.0,0.0,0.0,0.0,0.0,0.0,0.0,0.0,0.0,0.0,0.0,0.0,0.0,0.0,0.0,0.0,0.0,0.0,0.0,0.0,0.0,0.0,0.0,0.0,0.0,0.0,0.0,0.0,0.0,0.0,0.0,0.0,0.0,0.0,0.0,0.0,0.0,0.0,0.0,0.0,0.0,0.0,0.0,0.0,0.0,0.0,0.0,0.0,0.0,0.0,0.0,0.0,0.0,0.0,0.0,0.0,0.0,0.0,0.0,0.0,0.0,0.0,0.0,0.0,0.0,0.0,0.0,0.0,0.0,0.0,0.0,0.0,0.0,-5.1387,-5.1387,-5.1387,0.0,0.0,0.0,0.0,0.0,0.0,0.0,0.0,0.0,0.0,0.0,0.0,0.0,0.0,0.0,0.0,0.0,0.0,0.0,0.0,0.0,0.0,0.0,0.0,0.0,0.0,0.0,0.0,0.0,0.0,0.0,0.0,0.0,0.0,0.0,0.0,0.0,0.0,0.0,0.0,0.0,0.0,0.0,0.0,0.0,0.0,0.0,0.0,0.0,0.0,0.0,0.0,0.0,0.0,0.0,0.0,0.0,0.0,0.0,0.0,0.0,0.0,0.0,0.0,0.0,0.0,0.0,0.0,0.0,0.0,0.0,0.0,0.0,0.0,0.0,0.0,0.0,0.0,0.0,0.0,0.0,0.0,0.0,0.0,0.0,0.0,0.0,0.0,0.0,0.0,0.0,0.0,0.0,0.0,0.0,0.0,0.0,0.0,0.0,0.0,0.0,0.0,0.0,0.0,0.0,0.0,0.0,0.0,0.0,0.0,-5.1387,-5.1387,-5.1387,0.0,-5.1387,0.0,0.0,0.0,0.0,0.0,0.0,0.0,0.0,0.0,0.0,0.0,0.0,0.0,0.0,0.0,0.0,0.0,0.0,0.0,0.0,0.0,0.0,0.0,0.0,0.0,0.0,0.0,0.0,0.0,0.0,0.0,0.0,0.0,0.0,0.0,0.0,0.0,0.0,0.0,0.0,0.0,0.0,0.0,0.0,0.0,0.0,0.0,0.0,0.0,0.0,0.0,0.0,0.0,0.0,0.0,0.0,0.0,0.0,0.0,0.0,0.0,0.0,0.0,0.0,0.0,0.0,0.0,0.0,0.0,0.0,0.0,0.0,0.0,0.0,0.0,0.0,0.0,0.0,0.0,0.0,0.0,0.0,0.0,0.0,0.0,0.0,0.0,0.0,0.0,0.0,0.0,0.0,0.0,0.0,0.0,0.0,0.0,0.0,0.0,0.0,0.0,0.0,0.0,0.0,0.0,0.0,0.0,0.0,0.0,0.0,-5.1387,-5.1387,-5.1387,-5.1387,0.0,0.0,0.0,0.0,0.0,0.0,0.0,0.0,0.0,0.0,0.0,0.0,0.0,0.0,0.0,0.0,0.0,0.0,0.0,0.0,0.0,0.0,0.0,0.0,0.0,0.0,0.0,0.0,0.0,0.0,0.0,0.0,0.0,0.0,0.0,0.0,0.0,0.0,0.0,0.0,0.0,0.0,0.0,0.0,0.0,0.0,0.0,0.0,0.0,0.0,0.0,0.0,0.0,0.0,0.0,0.0,0.0,0.0,0.0,0.0,0.0,0.0,0.0,0.0,0.0,0.0,0.0,0.0,0.0,0.0,0.0,0.0,0.0,0.0,0.0,0.0,0.0,0.0,0.0,0.0,0.0,0.0,0.0,0.0,0.0,0.0,0.0,0.0,0.0,0.0,0.0,0.0,0.0,0.0,0.0,0.0,0.0,0.0,0.0,0.0,0.0,0.0,0.0,0.0,0.0,0.0,0.0,0.0,0.0,0.0,-5.1387,-5.1387,-5.1387,-5.1387,-5.1387,-5.1387,0.0,0.0,0.0,0.0,0.0,0.0,0.0,0.0,0.0,0.0,0.0,0.0,0.0,0.0,0.0,0.0,0.0,0.0,0.0,0.0,0.0,0.0,0.0,0.0,0.0,0.0,0.0,0.0,0.0,0.0,0.0,0.0,0.0,0.0,0.0,0.0,0.0,0.0,0.0,0.0,0.0,0.0,0.0,0.0,0.0,0.0,0.0,0.0,0.0,0.0,0.0,0.0,0.0,0.0,0.0,0.0,0.0,0.0,0.0,0.0,0.0,0.0,0.0,0.0,0.0,0.0,0.0,0.0,0.0,0.0,0.0,0.0,0.0,0.0,0.0,0.0,0.0,0.0,0.0,0.0,0.0,0.0,0.0,0.0,0.0,0.0,0.0,0.0,0.0,0.0,0.0,0.0,0.0,0.0,0.0,0.0,0.0,0.0,0.0,0.0,0.0,0.0,0.0,0.0,0.0,0.0,0.0,0.0,-5.1387,-5.1387,-5.1387,-5.1387,-5.1387,-5.1387,0.0,0.0,0.0,0.0,0.0,0.0,0.0,0.0,0.0,0.0,0.0,0.0,0.0,0.0,0.0,0.0,0.0,0.0,0.0,0.0,0.0,0.0,0.0,0.0,0.0,0.0,0.0,0.0,0.0,0.0,0.0,0.0,0.0,0.0,0.0,0.0,0.0,0.0,0.0,0.0,0.0,0.0,0.0,0.0,0.0,0.0,0.0,0.0,0.0,0.0,0.0,0.0,0.0,0.0,0.0,0.0,0.0,0.0,0.0,0.0,0.0,0.0,0.0,0.0,0.0,0.0,0.0,0.0,0.0,0.0,0.0,0.0,0.0,0.0,0.0,0.0,0.0,0.0,0.0,0.0,0.0,0.0,0.0,0.0,0.0,0.0,0.0,0.0,0.0,0.0,0.0,0.0,0.0,0.0,0.0,0.0,0.0,0.0,0.0,0.0,0.0,0.0,0.0,0.0,0.0,0.0,0.0,0.0,0.0,-5.1387,-5.1387,-5.1387,-5.1387,-5.1387,-5.1387,0.0,0.0,0.0,0.0,0.0,0.0,0.0,0.0,0.0,0.0,0.0,0.0,0.0,0.0,0.0,0.0,0.0,0.0,0.0,0.0,0.0,0.0,0.0,0.0,0.0,0.0,0.0,0.0,0.0,0.0,0.0,0.0,0.0,0.0,0.0,0.0,0.0,0.0,0.0,0.0,0.0,0.0,0.0,0.0,0.0,0.0,0.0,0.0,0.0,0.0,0.0,0.0,0.0,0.0,0.0,0.0,0.0,0.0,0.0,0.0,0.0,0.0,0.0,0.0,0.0,0.0,0.0,0.0,0.0,0.0,0.0,0.0,0.0,0.0,0.0,0.0,0.0,0.0,0.0,0.0,0.0,0.0,0.0,0.0,0.0,0.0,0.0,0.0,0.0,0.0,0.0,0.0,0.0,0.0,0.0,0.0,0.0,0.0,0.0,0.0,0.0,0.0,0.0,0.0,0.0,0.0,0.0,0.0,0.0,-5.1387,0.0,-5.1387,-5.1387,-5.1387,-5.1387,0.0,0.0,0.0,0.0,0.0,0.0,0.0,0.0,0.0,0.0,0.0,0.0,0.0,0.0,0.0,0.0,0.0,0.0,0.0,0.0,0.0,0.0,0.0,0.0,0.0,0.0,0.0,0.0,0.0,0.0,0.0,0.0,0.0,0.0,0.0,0.0,0.0,0.0,0.0,0.0,0.0,0.0,0.0,0.0,0.0,0.0,0.0,0.0,0.0,0.0,0.0,0.0,0.0,0.0,0.0,0.0,0.0,0.0,0.0,0.0,0.0,0.0,0.0,0.0,0.0,0.0,0.0,0.0,0.0,0.0,0.0,0.0,0.0,0.0,0.0,0.0,0.0,0.0,0.0,0.0,0.0,0.0,0.0,0.0,0.0,0.0,0.0,0.0,0.0,0.0,0.0,0.0,0.0,0.0,0.0,0.0,0.0,0.0,0.0,0.0,0.0,0.0,0.0,0.0,0.0,0.0,0.0,0.0,-5.1386,-5.1387,-5.1387,-5.1387,-5.1387,-5.1387,-5.1387,0.0,0.0,0.0,0.0,0.0,0.0,0.0,0.0,0.0,0.0,0.0,0.0,0.0,0.0,0.0,0.0,0.0,0.0,0.0,0.0,0.0,0.0,0.0,0.0,0.0,0.0,0.0,0.0,0.0,0.0,0.0,0.0,0.0,0.0,0.0,0.0,0.0,0.0,0.0,0.0,0.0,0.0,0.0,0.0,0.0,0.0,0.0,0.0,0.0,0.0,0.0,0.0,0.0,0.0,0.0,0.0,0.0,0.0,0.0,0.0,0.0,0.0,0.0,0.0,0.0,0.0,0.0,0.0,0.0,0.0,0.0,0.0,0.0,0.0,0.0,0.0,0.0,0.0,0.0,0.0,0.0,0.0,0.0,0.0,0.0,0.0,0.0,0.0,0.0,0.0,0.0,0.0,0.0,0.0,0.0,0.0,0.0,0.0,0.0,0.0,0.0,0.0,0.0,0.0,0.0,0.0,0.0,0.0,0.0,-5.1386,-5.1386,-5.1386,-5.1387,-5.1387,-5.1387,0.0,0.0,0.0,0.0,0.0,0.0,0.0,0.0,0.0,0.0,0.0,0.0,0.0,0.0,0.0,0.0,0.0,0.0,0.0,0.0,0.0,0.0,0.0,0.0,0.0,0.0,0.0,0.0,0.0,0.0,0.0,0.0,0.0,0.0,0.0,0.0,0.0,0.0,0.0,0.0,0.0,0.0,0.0,0.0,0.0,0.0,0.0,0.0,0.0,0.0,0.0,0.0,0.0,0.0,0.0,0.0,0.0,0.0,0.0,0.0,0.0,0.0,0.0,0.0,0.0,0.0,0.0,0.0,0.0,0.0,0.0,0.0,0.0,0.0,0.0,0.0,0.0,0.0,0.0,0.0,0.0,0.0,0.0,0.0,0.0,0.0,0.0,0.0,0.0,0.0,0.0,0.0,0.0,0.0,0.0,0.0,0.0,0.0,0.0,0.0,0.0,0.0,0.0,0.0,0.0,0.0,0.0,0.0,0.0,-5.1866,-5.1559,-5.1386,-5.1386,-5.1387,-5.1387,-5.1387,0.0,0.0,0.0,0.0,0.0,0.0,0.0,0.0,0.0,0.0,0.0,0.0,0.0,0.0,0.0,0.0,0.0,0.0,0.0,0.0,0.0,0.0,0.0,0.0,0.0,0.0,0.0,0.0,0.0,0.0,0.0,0.0,0.0,0.0,0.0,0.0,0.0,0.0,0.0,0.0,0.0,0.0,0.0,0.0,0.0,0.0,0.0,0.0,0.0,0.0,0.0,0.0,0.0,0.0,0.0,0.0,0.0,0.0,0.0,0.0,0.0,0.0,0.0,0.0,0.0,0.0,0.0,0.0,0.0,0.0,0.0,0.0,0.0,0.0,0.0,0.0,0.0,0.0,0.0,0.0,0.0,0.0,0.0,0.0,0.0,0.0,0.0,0.0,0.0,0.0,0.0,0.0,0.0,0.0,0.0,0.0,0.0,0.0,0.0,0.0,0.0,0.0,0.0,0.0,0.0,0.0,0.0,0.0,-5.2759,-5.1963,-5.1521,-5.1502,-5.1484,-5.1445,0.0,0.0,0.0,0.0,0.0,0.0,0.0,0.0,0.0,0.0,0.0,0.0,0.0,0.0,0.0,0.0,0.0,0.0,0.0,0.0,0.0,0.0,0.0,0.0,0.0,0.0,0.0,0.0,0.0,0.0,0.0,0.0,0.0,0.0,0.0,0.0,0.0,0.0,0.0,0.0,0.0,0.0,0.0,0.0,0.0,0.0,0.0,0.0,0.0,0.0,0.0,0.0,0.0,0.0,0.0,0.0,0.0,0.0,0.0,0.0,0.0,0.0,0.0,0.0,0.0,0.0,0.0,0.0,0.0,0.0,0.0,0.0,0.0,0.0,0.0,0.0,0.0,0.0,0.0,0.0,0.0,0.0,0.0,0.0,0.0,0.0,0.0,0.0,0.0,0.0,0.0,0.0,0.0,0.0,0.0,0.0,0.0,0.0,0.0,0.0,0.0,0.0,0.0,0.0,0.0,0.0,0.0,0.0,0.0,-5.355,-5.3359,-5.2958,-5.2396,-5.2359,-5.2066,0.0,0.0,0.0,0.0,0.0,0.0,0.0,0.0,0.0,0.0,0.0,0.0,0.0,0.0,0.0,0.0,0.0,0.0,0.0,0.0,0.0,0.0,0.0,0.0,0.0,0.0,0.0,0.0,0.0,0.0,0.0,0.0,0.0,0.0,0.0,0.0,0.0,0.0,0.0,0.0,0.0,0.0,0.0,0.0,0.0,0.0,0.0,0.0,0.0,0.0,0.0,0.0,0.0,0.0,0.0,0.0,0.0,0.0,0.0,0.0,0.0,0.0,0.0,0.0,0.0,0.0,0.0,0.0,0.0,0.0,0.0,0.0,0.0,0.0,0.0,0.0,0.0,0.0,0.0,0.0,0.0,0.0,0.0,0.0,0.0,0.0,0.0,0.0,0.0,0.0,0.0,0.0,0.0,0.0,0.0,0.0,0.0,0.0,0.0,0.0,0.0,0.0,0.0,0.0,0.0,0.0,0.0,0.0,-5.3439,-5.4347,-5.4738,-5.4583,-5.3771,-5.3068,-5.247,0.0,0.0,0.0,0.0,0.0,0.0,0.0,0.0,0.0,0.0,0.0,0.0,0.0,0.0,0.0,0.0,0.0,0.0,0.0,0.0,0.0,0.0,0.0,0.0,0.0,0.0,0.0,0.0,0.0,0.0,0.0,0.0,0.0,0.0,0.0,0.0,0.0,0.0,0.0,0.0,0.0,0.0,0.0,0.0,0.0,0.0,0.0,0.0,0.0,0.0,0.0,0.0,0.0,0.0,0.0,0.0,0.0,0.0,0.0,0.0,0.0,0.0,0.0,0.0,0.0,0.0,0.0,0.0,0.0,0.0,0.0,0.0,0.0,0.0,0.0,0.0,0.0,0.0,0.0,0.0,0.0,0.0,0.0,0.0,0.0,0.0,0.0,0.0,0.0,0.0,0.0,0.0,0.0,0.0,0.0,0.0,0.0,0.0,0.0,0.0,0.0,0.0,0.0,0.0,0.0,0.0,0.0,0.0,-5.4154,-5.5105,-5.5954,-5.6047,-5.5295,-5.3779,-5.2871,0.0,0.0,0.0,0.0,0.0,0.0,0.0,0.0,0.0,0.0,0.0,0.0,0.0,0.0,0.0,0.0,0.0,0.0,0.0,0.0,0.0,0.0,0.0,0.0,0.0,0.0,0.0,0.0,0.0,0.0,0.0,0.0,0.0,0.0,0.0,0.0,0.0,0.0,0.0,0.0,0.0,0.0,0.0,0.0,0.0,0.0,0.0,0.0,0.0,0.0,0.0,0.0,0.0,0.0,0.0,0.0,0.0,0.0,0.0,0.0,0.0,0.0,0.0,0.0,0.0,0.0,0.0,0.0,0.0,0.0,0.0,0.0,0.0,0.0,0.0,0.0,0.0,0.0,0.0,0.0,0.0,0.0,0.0,0.0,0.0,0.0,0.0,0.0,0.0,0.0,0.0,0.0,0.0,0.0,0.0,0.0,0.0,0.0,0.0,0.0,0.0,0.0,0.0,0.0,0.0,0.0,0.0,0.0,-5.4321,-5.5903,-5.6142,-5.6173,-5.6062,-5.5139,-5.403,0.0,0.0,0.0,0.0,0.0,0.0,0.0,0.0,0.0,0.0,0.0,0.0,0.0,0.0,0.0,0.0,0.0,0.0,0.0,0.0,0.0,0.0,0.0,0.0,0.0,0.0,0.0,0.0,0.0,0.0,0.0,0.0,0.0,0.0,0.0,0.0,0.0,0.0,0.0,0.0,0.0,0.0,0.0,0.0,0.0,0.0,0.0,0.0,-5.2955,0.0,0.0,0.0,0.0,0.0,0.0,0.0,0.0,0.0,0.0,0.0,0.0,0.0,0.0,0.0,0.0,0.0,0.0,0.0,0.0,0.0,0.0,0.0,0.0,0.0,0.0,0.0,0.0,0.0,0.0,0.0,0.0,0.0,0.0,0.0,0.0,0.0,0.0,0.0,0.0,0.0,0.0,0.0,0.0,0.0,0.0,0.0,0.0,0.0,0.0,0.0,0.0,0.0,0.0,0.0,0.0,0.0,0.0,0.0,-5.4331,-5.6033,-5.6133,-5.6192,-5.6226,-5.5864,-5.4889,0.0,0.0,0.0,0.0,0.0,0.0,0.0,0.0,0.0,0.0,0.0,0.0,0.0,0.0,0.0,0.0,0.0,0.0,0.0,0.0,0.0,0.0,0.0,0.0,0.0,0.0,0.0,0.0,0.0,0.0,0.0,0.0,0.0,0.0,0.0,0.0,0.0,0.0,0.0,0.0,0.0,0.0,0.0,0.0,0.0,0.0,0.0,0.0,0.0,0.0,0.0,0.0,0.0,0.0,0.0,0.0,0.0,0.0,0.0,0.0,0.0,0.0,0.0,0.0,0.0,0.0,0.0,0.0,0.0,0.0,0.0,0.0,0.0,0.0,0.0,0.0,0.0,0.0,0.0,0.0,0.0,0.0,0.0,0.0,0.0,0.0,0.0,0.0,0.0,0.0,0.0,0.0,0.0,0.0,0.0,0.0,0.0,0.0,0.0,0.0,0.0,0.0,0.0,0.0,0.0,0.0,0.0,-5.3366,-5.4241,-5.5889,-5.6048,-5.6086,-5.6144,-5.6027,-5.5307,-5.3901,0.0,0.0,0.0,0.0,0.0,0.0,0.0,0.0,0.0,0.0,0.0,0.0,0.0,0.0,0.0,0.0,0.0,0.0,0.0,0.0,0.0,0.0,0.0,0.0,0.0,0.0,0.0,0.0,0.0,0.0,0.0,0.0,0.0,0.0,0.0,0.0,0.0,0.0,-5.2095,-5.2645,0.0,0.0,0.0,0.0,0.0,0.0,0.0,0.0,-5.2586,0.0,0.0,0.0,0.0,0.0,0.0,0.0,0.0,0.0,0.0,0.0,0.0,0.0,0.0,0.0,0.0,0.0,0.0,0.0,0.0,0.0,0.0,0.0,0.0,0.0,0.0,0.0,0.0,0.0,0.0,0.0,0.0,0.0,0.0,0.0,0.0,0.0,0.0,0.0,0.0,0.0,0.0,0.0,0.0,0.0,0.0,0.0,0.0,0.0,0.0,0.0,0.0,0.0,0.0,0.0,0.0,-5.3254,-5.3321,-5.4159,-5.5866,-5.5933,-5.5923,-5.5938,-5.5299,-5.452,-5.3623,0.0,0.0,0.0,0.0,0.0,0.0,0.0,0.0,0.0,0.0,0.0,0.0,0.0,0.0,0.0,0.0,0.0,0.0,0.0,0.0,0.0,0.0,0.0,0.0,0.0,0.0,0.0,0.0,0.0,0.0,0.0,0.0,0.0,0.0,0.0,0.0,0.0,0.0,0.0,-5.2777,-5.2828,0.0,0.0,0.0,0.0,0.0,0.0,0.0,0.0,-5.2526,0.0,0.0,0.0,0.0,0.0,0.0,0.0,0.0,0.0,0.0,0.0,0.0,0.0,0.0,0.0,0.0,0.0,0.0,0.0,0.0,0.0,0.0,0.0,0.0,0.0,0.0,0.0,0.0,0.0,0.0,0.0,0.0,0.0,0.0,0.0,0.0,0.0,0.0,0.0,0.0,0.0,0.0,0.0,0.0,0.0,0.0,0.0,0.0,0.0,0.0,0.0,0.0,0.0,0.0,0.0,-5.2521,-5.3012,-5.3889,-5.5142,-5.5615,-5.5634,-5.5248,-5.4852,-5.4069,0.0,0.0,0.0,0.0,0.0,0.0,0.0,0.0,0.0,0.0,0.0,0.0,0.0,0.0,0.0,0.0,0.0,0.0,0.0,0.0,0.0,0.0,0.0,0.0,0.0,0.0,0.0,0.0,0.0,0.0,0.0,0.0,0.0,0.0,0.0,0.0,0.0,0.0,0.0,0.0,-5.2698,-5.2694,-5.2645,0.0,0.0,0.0,0.0,0.0,0.0,-5.2498,-5.2498,0.0,0.0,0.0,0.0,0.0,0.0,0.0,0.0,0.0,0.0,0.0,0.0,0.0,0.0,0.0,0.0,0.0,0.0,0.0,0.0,0.0,0.0,0.0,0.0,0.0,0.0,0.0,0.0,0.0,0.0,0.0,0.0,0.0,0.0,0.0,0.0,0.0,0.0,0.0,0.0,0.0,0.0,0.0,0.0,0.0,0.0,0.0,0.0,0.0,0.0,0.0,0.0,0.0,0.0,0.0,-5.1885,-5.2577,-5.3358,-5.4206,-5.4929,-5.4968,-5.4333,-5.4121,-5.3427,0.0,0.0,0.0,0.0,0.0,0.0,0.0,0.0,0.0,0.0,0.0,0.0,0.0,0.0,0.0,0.0,0.0,0.0,0.0,0.0,0.0,0.0,0.0,0.0,0.0,0.0,0.0,0.0,0.0,0.0,0.0,0.0,0.0,0.0,0.0,0.0,0.0,0.0,0.0,0.0,0.0,-5.2559,-5.2521,-5.2498,0.0,0.0,0.0,0.0,-5.2498,-5.2498,0.0,0.0,0.0,0.0,0.0,0.0,0.0,0.0,0.0,0.0,0.0,0.0,0.0,0.0,0.0,0.0,0.0,0.0,0.0,0.0,0.0,0.0,0.0,0.0,0.0,0.0,0.0,0.0,0.0,0.0,0.0,0.0,0.0,0.0,0.0,0.0,0.0,0.0,0.0,0.0,0.0,0.0,0.0,0.0,0.0,0.0,0.0,0.0,0.0,0.0,0.0,0.0,0.0,0.0,0.0,0.0,-5.1865,-5.1981,-5.2472,-5.3309,-5.3444,-5.3463,-5.3358,-5.2616,-5.2116,0.0,0.0,0.0,0.0,0.0,0.0,0.0,0.0,0.0,0.0,0.0,0.0,0.0,0.0,0.0,0.0,0.0,0.0,0.0,0.0,0.0,0.0,0.0,0.0,0.0,0.0,0.0,0.0,0.0,0.0,0.0,0.0,0.0,0.0,0.0,0.0,0.0,0.0,0.0,0.0,0.0,-5.2503,-5.248,-5.2498,-5.2498,0.0,0.0,-5.2498,-5.2498,-5.2498,0.0,0.0,0.0,0.0,0.0,0.0,0.0,0.0,0.0,0.0,0.0,0.0,0.0,0.0,0.0,0.0,0.0,0.0,0.0,0.0,0.0,0.0,0.0,0.0,0.0,0.0,0.0,0.0,0.0,0.0,0.0,0.0,0.0,0.0,0.0,0.0,0.0,0.0,0.0,0.0,0.0,0.0,0.0,0.0,0.0,0.0,0.0,0.0,0.0,0.0,0.0,0.0,0.0,0.0,0.0,-5.0806,-5.1171,-5.1602,-5.2043,-5.2398,-5.2858,-5.2878,-5.2417,-5.2033,-5.161,0.0,0.0,0.0,0.0,0.0,0.0,0.0,0.0,0.0,0.0,0.0,0.0,0.0,0.0,0.0,0.0,0.0,0.0,0.0,0.0,0.0,0.0,0.0,0.0,0.0,0.0,0.0,0.0,0.0,0.0,0.0,0.0,0.0,0.0,0.0,0.0,0.0,0.0,0.0,0.0,0.0,0.0,-5.2269,-5.2317,0.0,0.0,0.0,-5.2498,-5.2498,0.0,0.0,0.0,0.0,0.0,0.0,0.0,0.0,0.0,0.0,0.0,0.0,0.0,0.0,0.0,0.0,0.0,0.0,0.0,0.0,0.0,0.0,0.0,0.0,0.0,0.0,0.0,0.0,0.0,0.0,0.0,0.0,0.0,0.0,0.0,0.0,0.0,0.0,0.0,0.0,0.0,0.0,0.0,0.0,0.0,0.0,0.0,0.0,0.0,0.0,0.0,0.0,0.0,0.0,0.0,0.0,0.0,-5.0582,-5.1163,-5.1448,-5.1486,-5.202,-5.2027,-5.1445,-5.1426,0.0,0.0,0.0,0.0,0.0,0.0,0.0,0.0,0.0,0.0,0.0,0.0,0.0,0.0,0.0,0.0,0.0,0.0,0.0,0.0,0.0,0.0,0.0,0.0,0.0,0.0,0.0,-4.8767,0.0,0.0,0.0,0.0,0.0,0.0,0.0,0.0,0.0,0.0,0.0,0.0,0.0,0.0,-5.2084,-5.2084,-5.2174,-5.2246,0.0,0.0,-5.2387,-5.2405,-5.2405,-5.2364,0.0,0.0,0.0,0.0,0.0,0.0,0.0,0.0,0.0,0.0,0.0,0.0,0.0,0.0,0.0,0.0,0.0,0.0,0.0,0.0,0.0,0.0,0.0,0.0,0.0,0.0,0.0,0.0,0.0,0.0,0.0,0.0,0.0,0.0,0.0,0.0,0.0,0.0,0.0,0.0,0.0,0.0,0.0,0.0,0.0,0.0,0.0,0.0,0.0,0.0,0.0,0.0,0.0,0.0,-5.0511,-5.0511,-5.0503,-5.0508,-5.0489,-5.047,-5.0447,-5.0409,-5.0409,-5.0394,0.0,0.0,0.0,0.0,0.0,0.0,0.0,0.0,0.0,0.0,0.0,0.0,0.0,0.0,0.0,0.0,0.0,0.0,0.0,0.0,0.0,0.0,0.0,0.0,0.0,0.0,0.0,0.0,0.0,0.0,0.0,0.0,0.0,0.0,0.0,0.0,0.0,0.0,0.0,0.0,0.0,-5.2084,-5.2084,-5.2102,-5.2108,0.0,-5.2126,-5.2108,-5.2126,-5.2126,-5.2126,-5.2126,0.0,0.0,0.0,0.0,0.0,0.0,0.0,0.0,0.0,0.0,0.0,0.0,0.0,0.0,0.0,0.0,0.0,0.0,0.0,0.0,0.0,0.0,0.0,0.0,0.0,0.0,0.0,0.0,0.0,0.0,0.0,0.0,0.0,0.0,0.0,0.0,0.0,0.0,0.0,0.0,0.0,0.0,0.0,0.0,0.0,0.0,0.0,0.0,0.0,0.0,0.0,0.0,0.0,-5.0359,-5.0314,-5.0219,-5.0158,-5.0158,-5.0076,-5.005,-5.0038,-5.005,-5.0095,0.0,0.0,0.0,0.0,0.0,0.0,0.0,0.0,0.0,0.0,0.0,0.0,0.0,0.0,0.0,0.0,0.0,0.0,0.0,0.0,0.0,0.0,0.0,0.0,0.0,0.0,0.0,0.0,-4.811,-4.7963,-4.778,0.0,0.0,0.0,0.0,0.0,0.0,0.0,0.0,0.0,0.0,-5.1607,-5.1615,-5.174,0.0,0.0,-5.1987,-5.2084,-5.2084,-5.2011,-5.1938,-5.1882,-5.1129,0.0,0.0,0.0,0.0,0.0,0.0,0.0,0.0,0.0,0.0,0.0,0.0,0.0,0.0,0.0,0.0,0.0,0.0,0.0,0.0,0.0,0.0,0.0,0.0,0.0,0.0,0.0,0.0,0.0,0.0,0.0,0.0,0.0,0.0,0.0,0.0,0.0,0.0,0.0,0.0,0.0,0.0,0.0,0.0,0.0,0.0,0.0,0.0,0.0,0.0,0.0,0.0,-5.0163,-5.0101,-4.9978,-4.9912,-4.9893,-4.9797,-4.9755,-4.9755,-4.9755,-4.9816,0.0,0.0,0.0,0.0,0.0,0.0,0.0,0.0,0.0,0.0,0.0,0.0,0.0,0.0,0.0,0.0,0.0,0.0,0.0,0.0,0.0,0.0,0.0,0.0,0.0,0.0,0.0,0.0,-4.7968,-4.778,-4.7657,0.0,0.0,0.0,0.0,0.0,0.0,0.0,0.0,0.0,0.0,-5.1193,-5.1202,-5.1402,-5.1556,-5.1582,-5.174,-5.1864,-5.1864,-5.1783,-5.1665,-5.1538,0.0,0.0,0.0,0.0,0.0,0.0,0.0,0.0,0.0,0.0,0.0,0.0,0.0,0.0,0.0,0.0,0.0,0.0,0.0,0.0,0.0,0.0,0.0,0.0,0.0,0.0,0.0,0.0,0.0,0.0,-5.0511,0.0,0.0,0.0,0.0,0.0,0.0,0.0,0.0,0.0,0.0,0.0,0.0,0.0,0.0,0.0,0.0,0.0,0.0,0.0,0.0,0.0,0.0,-4.9978,-4.9893,-4.9759,-4.9707,-4.9707,-4.9506,-4.9415,-4.9396,-4.9415,-4.9491,-4.9692,0.0,0.0,0.0,0.0,0.0,0.0,0.0,0.0,0.0,0.0,0.0,0.0,0.0,0.0,0.0,0.0,0.0,0.0,0.0,0.0,0.0,0.0,0.0,0.0,0.0,0.0,-4.7943,-4.778,-4.7657,0.0,0.0,0.0,0.0,0.0,0.0,0.0,0.0,0.0,0.0,-4.9917,-5.0874,-5.1061,-5.1123,-5.1158,-5.1298,-5.1307,-5.1324,-5.1324,-5.1307,-5.1272,0.0,0.0,0.0,0.0,0.0,0.0,0.0,0.0,0.0,0.0,0.0,0.0,0.0,0.0,0.0,0.0,0.0,0.0,0.0,0.0,0.0,0.0,0.0,0.0,0.0,0.0,0.0,-5.0302,-5.0302,0.0,0.0,0.0,0.0,0.0,0.0,0.0,0.0,0.0,0.0,0.0,-4.9788,-4.964,0.0,0.0,0.0,0.0,0.0,0.0,0.0,0.0,0.0,0.0,0.0,0.0,-4.9731,-4.9562,-4.9495,-4.9434,-4.9434,-4.9324,-4.926,-4.9257,-4.9241,-4.9324,-4.9415,0.0,0.0,0.0,0.0,0.0,0.0,0.0,0.0,0.0,0.0,0.0,0.0,0.0,0.0,0.0,0.0,0.0,0.0,0.0,0.0,0.0,0.0,0.0,0.0,0.0,-4.7925,0.0,0.0,0.0,0.0,0.0,0.0,0.0,0.0,0.0,0.0,0.0,-4.8521,-4.8339,-4.9587,-5.0564,-5.0637,-5.0719,-5.0766,0.0,0.0,0.0,0.0,0.0,0.0,0.0,0.0,0.0,0.0,0.0,0.0,0.0,0.0,-4.9108,-4.8309,-4.802,-4.7904,-4.7904,0.0,0.0,0.0,0.0,0.0,0.0,0.0,0.0,0.0,0.0,0.0,0.0,0.0,0.0,-5.0089,0.0,-5.0089,0.0,0.0,0.0,0.0,0.0,0.0,0.0,0.0,-4.9659,-4.9555,-4.9559,-4.9352,-4.927,0.0,-4.927,-4.938,0.0,0.0,0.0,0.0,0.0,0.0,0.0,0.0,-4.9464,-4.9273,-4.9211,-4.9144,-4.911,-4.9046,-4.8993,-4.8976,-4.9029,-4.9079,-4.9129,-4.919,-4.9273,0.0,0.0,0.0,0.0,0.0,0.0,0.0,0.0,0.0,0.0,0.0,0.0,0.0,0.0,0.0,0.0,0.0,0.0,0.0,0.0,0.0,0.0,0.0,-4.772,0.0,0.0,0.0,0.0,0.0,0.0,0.0,0.0,0.0,-4.6211,-4.714,-4.784,-4.7949,-4.8966,-4.982,-5.0108,0.0,0.0,0.0,0.0,0.0,0.0,0.0,-5.0335,-5.0278,-5.0143,-4.9971,-4.9854,-4.9943,-5.0009,-4.9984,0.0,0.0,-4.8723,-4.8374,-4.8243,-4.8272,-4.8272,-4.8272,-4.8272,-4.8684,-4.9114,0.0,0.0,0.0,0.0,0.0,0.0,0.0,0.0,-4.9879,-4.9866,0.0,-4.9866,0.0,0.0,0.0,0.0,0.0,-4.9721,0.0,0.0,-4.9371,-4.9292,-4.9257,-4.9075,-4.9061,-4.9162,-4.9044,-4.9061,-4.9179,-4.9305,0.0,0.0,0.0,0.0,0.0,0.0,-4.9193,-4.8991,-4.8925,-4.8856,-4.8804,-4.8678,-4.8605,-4.8624,-4.8732,-4.8823,-4.8823,-4.8925,-4.8991,-4.8991,-4.8974,0.0,0.0,0.0,0.0,0.0,0.0,0.0,0.0,0.0,0.0,0.0,0.0,0.0,0.0,0.0,0.0,0.0,0.0,0.0,0.0,-4.7657,0.0,0.0,0.0,0.0,0.0,0.0,0.0,0.0,0.0,0.0,-4.6161,-4.6422,-4.682,-4.7586,0.0,0.0,0.0,0.0,-4.972,-4.9866,-4.9895,-4.9895,-4.9913,-4.9884,-4.9837,-4.9708,0.0,0.0,-4.9314,-4.9862,-5.0275,-5.0152,-5.0532,-5.0647,-4.9855,-4.9599,-4.9526,-4.9526,-4.9526,-4.9526,-4.9509,-4.953,-4.9752,-4.9349,0.0,0.0,0.0,0.0,-4.9533,-4.9533,-4.9551,-4.9551,-4.9551,-4.9551,-4.9551,0.0,0.0,0.0,0.0,0.0,0.0,-4.9371,-4.9311,-4.9094,-4.8995,-4.8945,-4.8767,-4.8731,-4.8767,-4.8731,-4.875,-4.8785,-4.8801,-4.8923,-4.9108,0.0,0.0,0.0,0.0,-4.8874,-4.8713,-4.8695,-4.8678,-4.866,-4.8605,-4.8587,-4.8587,-4.8642,-4.866,-4.866,-4.8695,-4.8732,-4.8713,-4.8713,0.0,0.0,0.0,0.0,0.0,0.0,0.0,0.0,0.0,0.0,0.0,0.0,0.0,0.0,0.0,0.0,0.0,0.0,0.0,-4.7636,-4.7533,-4.745,0.0,0.0,0.0,0.0,0.0,0.0,0.0,0.0,0.0,-4.5649,-4.6652,-4.7358,0.0,0.0,-4.9278,-4.9513,-4.953,-4.9577,-4.9619,-4.9619,0.0,-4.9619,-4.95,-4.9364,-4.935,-4.961,-4.9886,-5.0201,-5.0455,-5.0589,-5.054,-5.0659,-5.0691,-5.0502,-5.0399,-5.0367,-5.035,-5.0367,-5.0367,-5.0367,-5.0367,-5.0417,-4.8922,-4.9092,-4.9257,-4.9321,-4.9321,-4.9305,-4.934,-4.9321,-4.9321,-4.9321,-4.9305,-4.9305,-4.9321,-4.9305,-4.9305,0.0,0.0,0.0,-4.9094,-4.9047,-4.8874,-4.875,-4.8715,-4.8606,-4.8569,-4.8587,-4.8569,-4.8569,-4.8587,-4.8587,-4.8678,-4.8784,0.0,0.0,-4.8714,-4.8715,-4.866,-4.855,-4.855,-4.8532,-4.8476,-4.8476,-4.8476,-4.8476,-4.8476,-4.8495,-4.8495,-4.8532,-4.855,-4.855,-4.855,-4.855,0.0,0.0,0.0,0.0,0.0,0.0,0.0,0.0,0.0,0.0,0.0,-4.8151,-4.811,0.0,0.0,0.0,-4.7824,-4.7657,-4.7446,-4.7341,0.0,0.0,0.0,0.0,0.0,0.0,0.0,-4.5912,-4.558,-4.5457,-4.5579,-4.6666,-4.7347,-4.7147,-4.8128,-4.8967,-4.9273,0.0,-4.9277,-4.9216,-4.9216,-4.9185,-4.9107,-4.9238,-4.9463,-4.9784,-4.9981,-5.0206,-5.0526,-5.0794,-5.1011,-5.0993,-5.1193,-5.1359,-5.1359,-5.1393,-5.1211,-5.0811,-5.071,-5.071,-5.071,-5.071,-5.0777,-4.8587,-4.8642,-4.9012,-4.9146,-4.9146,-4.9146,-4.9127,-4.9146,-4.9146,-4.9127,-4.9146,-4.9146,-4.9146,-4.9164,-4.9146,0.0,-4.8957,-4.8907,-4.8839,-4.8787,-4.8642,-4.8587,-4.8587,-4.8513,-4.8513,-4.8587,-4.8532,-4.8513,-4.8569,-4.855,-4.8532,-4.8494,-4.8532,-4.8569,-4.8587,-4.8569,-4.8532,-4.8494,-4.8476,-4.8419,-4.8287,-4.8305,-4.8287,-4.8287,-4.8267,-4.8267,-4.8287,-4.8382,-4.8475,-4.8475,-4.8457,-4.8475,-4.8456,0.0,0.0,0.0,0.0,0.0,0.0,0.0,0.0,0.0,0.0,0.0,0.0,0.0,0.0,0.0,-4.7636,0.0,-4.7298,-4.7116,0.0,0.0,0.0,-4.6453,-4.6211,-4.6144,-4.5955,-4.5554,0.0,0.0,-4.5926,-4.6617,-4.7075,-4.7058,-4.7602,-4.821,-4.8886,-4.9018,-4.8956,-4.8801,-4.8786,-4.8755,-4.8778,-4.9252,-4.9923,-5.056,-5.0727,-5.0693,-5.0675,-5.1124,-5.1488,-5.1433,-5.1962,-5.2376,-5.2393,-5.231,-5.2065,-5.1061,-5.0878,-5.0861,-5.0928,-5.0911,-5.1095,-4.8569,-4.8605,-4.8695,-4.875,-4.875,-4.875,-4.875,-4.8731,-4.8731,-4.875,-4.8731,-4.875,-4.875,-4.875,-4.875,-4.8713,-4.8695,-4.8678,-4.8624,-4.855,-4.8532,-4.8457,-4.8382,-4.8344,-4.8344,-4.8363,-4.8344,-4.8344,-4.8382,-4.8382,-4.8363,-4.8344,-4.8363,-4.8382,-4.8363,-4.8364,-4.8363,-4.8344,-4.8343,-4.8305,-4.8226,-4.8226,-4.8169,-4.8072,-4.8072,-4.8072,-4.8072,-4.811,-4.8111,-4.813,-4.813,-4.813,-4.8111,-4.809,0.0,0.0,0.0,0.0,0.0,0.0,0.0,0.0,0.0,-4.7904,-4.7925,0.0,-4.7593,0.0,-4.7446,-4.7276,-4.7075,-4.7043,0.0,0.0,-4.6381,-4.6235,-4.6062,-4.5786,-4.5771,-4.6182,-4.597,-4.6027,-4.6663,-4.7293,-4.7678,-4.7695,-4.8291,-4.8754,-4.8846,-4.8849,-4.8801,-4.8627,-4.8564,-4.8765,-4.927,-4.9809,-5.0409,-5.1055,-5.1154,-5.1337,-5.1831,-5.2047,-5.2179,-5.2161,-5.2277,-5.2409,-5.2409,-5.2409,-5.231,-5.2032,-5.2001,-5.1984,-5.1984,-5.1984,-5.2034,-4.8438,-4.8476,-4.8476,-4.8458,-4.8476,-4.855,-4.8587,-4.8587,-4.8587,-4.8587,-4.8587,-4.8587,-4.8587,-4.8587,-4.8587,-4.8587,-4.8569,-4.8569,-4.8513,-4.8419,-4.8401,-4.8382,-4.8324,-4.8324,-4.8324,-4.8324,-4.8324,-4.8324,-4.8324,-4.8324,-4.8324,-4.8324,-4.8324,-4.8287,-4.8247,-4.8287,-4.8287,-4.8247,-4.819,-4.8151,-4.8128,-4.805,-4.7992,-4.7913,-4.7888,-4.7868,-4.7886,-4.785,-4.7868,-4.785,-4.7868,-4.7868,-4.7868,-4.7788,-4.7767,0.0,0.0,0.0,0.0,0.0,0.0,0.0,0.0,0.0,0.0,0.0,-4.7363,-4.7294,-4.7205,-4.7075,-4.6842,-4.6708,-4.6566,-4.635,-4.6445,-4.6479,-4.6239,-4.6333,-4.6498,-4.669,-4.6533,-4.6668,-4.731,-4.7678,-4.8024,-4.8267,-4.8672,-4.8894,-4.8818,-4.8755,-4.8595,-4.8388,-4.8356,-4.8708,-4.9693,-5.0375,-5.1038,-5.1614,-5.1812,-5.1962,-5.2343,-5.2409,-5.2409,-5.2409,-5.2409,-5.2409,-5.2409,-5.2409,-5.2409,-5.2409,-5.2409,-5.2409,-5.2409,-5.2409,-5.2409,-4.8324,-4.8324,-4.8324,-4.8324,-4.8325,-4.8476,-4.8569,-4.8569,-4.855,-4.8569,-4.8569,-4.855,-4.855,-4.8569,-4.855,-4.8532,-4.8476,-4.8476,-4.8419,-4.8306,-4.8324,-4.8324,-4.8324,-4.8324,-4.8324,-4.8324,-4.8324,-4.8324,-4.8324,-4.8324,-4.8287,-4.8287,-4.8287,-4.8247,-4.8187,-4.8209,-4.8209,-4.8168,-4.8032,-4.7972,-4.7951,-4.7832,-4.7752,-4.771,-4.766,-4.7633,-4.7615,-4.7615,-4.7615,-4.7633,-4.7633,-4.7615,-4.7615,-4.7508,-4.7446,0.0,-4.732,0.0,0.0,0.0,0.0,0.0,0.0,0.0,0.0,-4.7254,-4.7219,-4.7117,-4.7077,-4.6996,-4.6867,-4.6607,-4.6452,-4.642,-4.6803,-4.6958,-4.6672,-4.7203,-4.75,-4.7168,-4.7126,-4.7356,-4.7936,-4.8024,-4.8264,-4.868,-4.8753,-4.8721,-4.8707,-4.8564,-4.8388,-4.8195,-4.8246,-4.8795,-4.9808,-5.0719,-5.1481,-5.2094,-5.231,-5.2409,-5.2409,-5.2409,-5.2409,-5.2409,-5.2409,-5.2409,-5.2409,-5.2409,-5.2409,-5.2409,-5.2409,-5.2409,-5.2409,-5.2409,-5.2409,-4.8324,-4.8324,-4.8324,-4.8324,-4.8324,-4.8344,-4.8363,-4.8363,-4.8363,-4.8363,-4.8363,-4.8363,-4.8363,-4.8363,-4.8363,-4.8326,-4.8343,-4.8325,-4.8306,-4.8324,-4.8324,-4.8324,-4.8324,-4.8324,-4.8324,-4.8324,-4.8324,-4.8324,-4.8324,-4.8324,-4.8286,-4.8226,-4.8226,-4.8149,-4.805,0.0,0.0,0.0,-4.7913,-4.7829,-4.7762,-4.7618,-4.749,-4.7334,-4.729,0.0,-4.7156,-4.7133,-4.7116,-4.7133,-4.7133,0.0,0.0,0.0,0.0,0.0,0.0,0.0,0.0,0.0,0.0,0.0,-4.6731,-4.6824,-4.7025,-4.6957,-4.7109,-4.7606,-4.7504,-4.7587,-4.8088,-4.7997,-4.7779,-4.7476,-4.7516,-4.7438,-4.7124,-4.7119,-4.7311,-4.7835,-4.7819,-4.8017,-4.8629,-4.8798,-4.8787,-4.8767,-4.8658,-4.85,-4.8324,-4.8292,-4.8195,-4.8083,-4.8514,-4.8978,-4.9276,-5.0402,-5.1299,-5.158,-5.2061,-5.2359,-5.2409,-5.2409,-5.2409,-5.2409,-5.2409,-5.2409,-5.2409,-5.2409,-5.2409,-5.2409,-5.2409,-5.2409,-5.2409,-5.2409,-5.2409,-4.8324,0.0,-4.8324,-4.8324,0.0,-4.8324,-4.8324,-4.8324,-4.8324,-4.8324,-4.8324,-4.8324,-4.8324,-4.8324,-4.8324,-4.8324,-4.8324,-4.8324,-4.8324,-4.8324,-4.8324,-4.8324,-4.8324,-4.8324,-4.8324,-4.8324,-4.8324,-4.8324,-4.8306,-4.8267,-4.8228,-4.8187,-4.807,-4.797,-4.7866,-4.7621,-4.76,-4.7765,-4.76,-4.7472,-4.7443,-4.7249,-4.707,-4.6911,-4.686,0.0,0.0,0.0,0.0,0.0,0.0,0.0,0.0,0.0,0.0,-4.6596,-4.6613,-4.6566,-4.6518,-4.6429,-4.6357,-4.6308,-4.6253,-4.6374,-4.6772,-4.7015,-4.7285,-4.7587,-4.7764,-4.8022,-4.8251,-4.8135,-4.7937,-4.7717,-4.7905,-4.7957,-4.7744,-4.7916,-4.8201,-4.848,-4.8474,-4.8612,-4.8951,-4.8909,-4.8815,-4.8658,-4.8468,-4.8292,-4.8147,-4.8115,-4.8049,-4.8017,-4.863,-4.911,-4.9193,-4.9972,-5.0916,-5.1265,-5.163,-5.1995,-5.2359,-5.2409,-5.2409,-5.2409,-5.2409,-5.2409,-5.2409,-5.2409,-5.2409,-5.2409,-5.2409,-5.2409,-5.2409,-5.2409,-5.2409,-4.8324,-4.8324,-4.8324,-4.8324,-4.8324,-4.8324,-4.8324,-4.8324,0.0,0.0,0.0,-4.8324,-4.8324,-4.8324,-4.8324,-4.8324,-4.8324,-4.8324,-4.8324,-4.8324,-4.8324,-4.8324,-4.8324,-4.8324,-4.8324,-4.8324,-4.8324,-4.8268,-4.8286,-4.8208,-4.8168,-4.8088,-4.7872,-4.7687,-4.7554,-4.7267,-4.7178,-4.7298,-4.7178,-4.7088,-4.7088,-4.686,-4.6637,-4.6477,-4.6381,-4.6259,-4.6112,-4.6112,-4.613,-4.607,-4.6094,-4.6137,-4.613,-4.6154,-4.6112,-4.6087,-4.607,-4.6087,-4.6062,-4.5945,-4.5887,-4.5912,-4.5778,-4.593,-4.6423,-4.7037,-4.744,-4.754,-4.8059,-4.8379,-4.8392,-4.8197,-4.8002,-4.7973,-4.8294,-4.8464,-4.8333,-4.8778,-4.9057,-4.9032,-4.8968,-4.9001,-4.9001,-4.8894,-4.8738,-4.8515,-4.8356,-4.813,-4.8033,-4.8001,-4.8001,-4.805,-4.8481,-4.8879,-4.8995,-4.9525,-5.022,-5.0702,-5.1083,-5.1547,-5.2045,-5.2326,-5.2409,-5.2409,-5.2409,-5.2409,-5.2409,-5.2409,-5.2409,-5.2409,-5.2409,-5.2409,-5.2409,-5.2409,-5.2409,-4.8324,-4.8324,-4.8324,-4.8324,-4.8324,-4.8324,-4.8324,-4.8324,-4.8324,-4.8324,-4.8324,-4.8324,-4.8324,-4.8324,-4.8324,-4.8324,-4.8324,-4.8324,-4.8324,-4.8324,-4.8324,-4.8324,-4.8324,-4.8324,-4.8324,-4.8324,-4.8324,-4.8267,-4.8226,-4.8207,-4.8048,-4.7783,-4.772,-4.749,-4.7093,-4.6824,-4.6637,-4.6566,-4.6637,-4.6684,-4.6702,-4.6423,-4.6211,-4.6087,-4.6062,-4.5938,-4.5684,-4.5795,-4.5803,-4.5684,-4.5778,-4.5871,-4.5871,-4.5829,-4.5821,-4.5684,-4.5684,-4.5632,-4.5529,-4.5477,-4.5494,-4.5477,-4.5468,-4.5572,-4.5914,-4.6611,-4.7326,-4.7927,-4.8449,-4.8998,-4.951,-4.933,-4.909,-4.8976,-4.9005,-4.9016,-4.8877,-4.8931,-4.9032,-4.9001,-4.9018,-4.9001,-4.897,-4.8863,-4.869,-4.8515,-4.8292,-4.8147,-4.8033,-4.8001,-4.8001,-4.8001,-4.8067,-4.815,-4.8315,-4.8779,-4.9309,-4.9392,-5.0452,-5.1216,-5.1514,-5.1978,-5.231,-5.2409,-5.2409,-5.2409,-5.2409,-5.2409,-5.2409,-5.2409,-5.2409,-5.2409,-5.2409,-5.2409,-5.2409,-4.8324,-4.8324,-4.8324,-4.8324,-4.8324,-4.8324,-4.8324,-4.8324,-4.8324,-4.8324,-4.8324,-4.8324,-4.8324,-4.8324,-4.8324,-4.8324,-4.8324,-4.8324,-4.8324,-4.8324,-4.8324,-4.8324,-4.8324,-4.8324,-4.8267,-4.8247,-4.8247,-4.8207,-4.809,-4.7988,-4.7804,-4.7593,-4.7272,-4.6916,-4.659,-4.6357,-4.6144,-4.5988,-4.6161,-4.6235,-4.6161,-4.5963,-4.5786,-4.5572,-4.5555,-4.5477,-4.5283,-4.5327,-4.5336,-4.5283,-4.5327,-4.538,-4.538,-4.538,-4.5353,-4.5283,-4.5283,-4.5257,-4.5177,-4.5194,-4.5177,-4.5177,-4.5194,-4.5392,-4.5912,-4.6717,-4.7548,-4.8273,-4.8862,-4.9301,-4.9644,-4.9471,-4.929,-4.9199,-4.9138,-4.9063,-4.9001,-4.9018,-4.9018,-4.9018,-4.9018,-4.8987,-4.8894,-4.8753,-4.8564,-4.8356,-4.8212,-4.8049,-4.8001,-4.8001,-4.8001,-4.8001,-4.8001,-4.8001,-4.8034,-4.8249,-4.8647,-4.9028,-4.9641,-5.0402,-5.1067,-5.1647,-5.191,-5.2326,-5.2409,-5.2409,-5.2409,-5.2409,-5.2409,-5.2409,-5.2409,-5.2409,-5.2409,-5.2409,-5.2409,-4.8287,-4.8324,-4.8324,-4.8324,-4.8324,-4.8324,-4.8324,-4.8324,-4.8324,-4.8324,-4.8324,-4.8324,-4.8324,-4.8324,-4.8324,-4.8324,-4.8324,-4.8324,-4.8324,-4.8324,-4.8324,-4.8324,-4.8287,-4.8287,-4.8247,-4.8187,-4.8148,-4.8032,-4.7929,-4.7723,-4.749,-4.7254,-4.6778,-4.6381,-4.613,-4.5963,-4.5735,-4.5529,-4.5684,-4.5717,-4.5675,-4.5529,-4.5345,-4.5177,-4.5167,-4.5069,-4.4951,-4.4978,-4.4978,-4.4951,-4.4978,-4.5022,-4.5022,-4.5022,-4.4978,-4.4968,-4.4968,-4.4923,-4.4913,-4.4896,-4.4896,-4.4913,-4.4913,-4.522,-4.5987,-4.676,-4.7626,-4.8454,-4.9068,-4.9394,-4.9411,-4.926,-4.9168,-4.9138,-4.9046,-4.9001,-4.9018,-4.9018,-4.9018,-4.9018,-4.9018,-4.894,-4.8801,-4.8627,-4.842,-4.8212,-4.8066,-4.8001,-4.8001,-4.8001,-4.8001,-4.8001,-4.8001,-4.8001,-4.8001,-4.8017,-4.8266,-4.8796,-4.9044,-4.9641,-5.0485,-5.0984,-5.1464,-5.2011,-5.231,-5.2393,-5.2409,-5.2409,-5.2409,-5.2409,-5.2409,-5.2409,-5.2409,-5.2409,-5.2409,-4.8247,-4.8287,-4.8305,-4.8324,-4.8324,-4.8324,-4.8324,-4.8324,-4.8324,-4.8324,-4.8324,-4.8324,-4.8324,-4.8324,-4.8324,-4.8324,-4.8324,-4.8324,-4.8324,-4.8324,-4.8324,-4.8324,-4.8305,-4.8228,-4.8207,-4.8168,-4.7972,-4.7809,-4.7681,-4.745,-4.7102,-4.6708,-4.6381,-4.607,-4.5837,-4.558,-4.5389,-4.523,-4.5123,-4.5167,-4.523,-4.5123,-4.5059,-4.5032,-4.5005,-4.4968,-4.4814,-4.4923,-4.494,-4.4831,-4.4923,-4.5022,-4.5022,-4.5022,-4.494,-4.4814,-4.4831,-4.4748,-4.4654,-4.4643,-4.4654,-4.4626,-4.4654,-4.4976,-4.5693,-4.6421,-4.7296,-4.8221,-4.8895,-4.9212,-4.9199,-4.9107,-4.9032,-4.9032,-4.9032,-4.9018,-4.9018,-4.9018,-4.9018,-4.9018,-4.9001,-4.894,-4.8801,-4.8578,-4.8356,-4.8099,-4.8033,-4.8001,-4.8001,-4.8001,-4.8001,-4.8001,-4.8001,-4.8001,-4.8001,-4.8001,-4.8084,-4.8199,-4.868,-4.916,-4.9624,-5.0436,-5.1382,-5.1547,-5.1962,-5.2277,-5.2409,-5.2409,-5.2409,-5.2409,-5.2409,-5.2409,-5.2409,-5.2409,-5.2409,-4.8168,-4.8246,-4.8228,-4.8267,-4.8287,-4.8324,-4.8324,-4.8324,-4.8324,-4.8324,-4.8324,-4.8324,-4.8324,-4.8324,-4.8324,-4.8324,-4.8324,-4.8324,-4.8324,-4.8324,-4.8324,-4.8324,-4.8305,-4.8246,-4.811,-4.7972,-4.7809,-4.7636,-4.7377,-4.6985,-4.6578,-4.6235,-4.593,-4.5658,-4.5546,-4.5283,-4.5086,-4.4951,-4.4913,-4.4886,-4.4841,-4.4886,-4.4858,-4.4776,-4.4748,-4.472,-4.4709,-4.4737,-4.4737,-4.4682,-4.472,-4.4748,-4.4765,-4.4765,-4.4737,-4.4682,-4.4682,-4.4654,-4.4598,-4.4598,-4.4598,-4.4598,-4.4598,-4.4908,-4.5618,-4.5991,-4.6692,-4.7916,-4.8683,-4.9077,-4.9077,-4.9032,-4.9018,-4.9018,-4.9018,-4.9018,-4.9018,-4.9018,-4.9018,-4.9001,-4.8956,-4.8832,-4.8627,-4.8373,-4.8147,-4.8033,-4.8001,-4.8001,-4.8001,-4.8001,-4.8001,-4.8001,-4.8001,-4.8001,-4.8001,-4.8001,-4.8001,-4.8067,-4.8249,-4.8514,-4.911,-4.9458,-5.0204,-5.1083,-5.1564,-5.1995,-5.2359,-5.2393,-5.2409,-5.2373,-5.2409,-5.2409,-5.2409,-5.2409,-5.2409,-4.801,-4.8148,-4.8187,-4.8246,-4.8324,-4.8324,-4.8287,-4.8267,-4.8286,-4.8248,-4.8229,-4.8248,-4.8286,-4.8286,-4.8305,-4.8324,-4.8324,-4.8324,-4.8324,-4.8324,-4.8324,-4.8287,-4.8267,-4.8189,-4.803,-4.777,-4.7636,-4.7356,-4.6934,-4.6501,-4.6137,-4.5837,-4.5529,-4.5345,-4.523,-4.5032,-4.4886,-4.4765,-4.4765,-4.4709,-4.4626,-4.4709,-4.4709,-4.4615,-4.4598,-4.4598,-4.4598,-4.4598,-4.4598,-4.4598,-4.4598,-4.4598,-4.4598,-4.4598,-4.4598,-4.4598,-4.4598,-4.4598,-4.4598,-4.4598,-4.4598,-4.4598,-4.4598,-4.4835,-4.5297,-4.5585,-4.6177,-4.7141,-4.8139,-4.8748,-4.9001,-4.9018,-4.9018,-4.9018,-4.9018,-4.9018,-4.9018,-4.9018,-4.9018,-4.9018,-4.8894,-4.8707,-4.8452,-4.8179,-4.8001,-4.8001,-4.8001,-4.8001,-4.8001,-4.8001,-4.8001,-4.8001,-4.8001,-4.8001,-4.8001,-4.8001,-4.8001,-4.8001,-4.8067,-4.8249,-4.8779,-4.8895,-4.9193,-5.022,-5.0817,-5.1415,-5.1879,-5.2078,-5.2338,-5.2318,-5.2283,-5.223,-5.2178,-5.223,-5.223,-4.7827,-4.803,-4.8148,-4.8246,-4.8305,-4.8287,-4.8267,-4.8187,-4.8207,-4.813,-4.8052,-4.813,-4.8207,-4.8207,-4.8248,-4.8324,-4.8324,-4.8324,-4.8324,-4.8324,-4.8287,-4.8267,-4.8207,-4.807,-4.7891,-4.766,-4.7377,-4.6911,-4.6284,-4.6087,-4.5829,-4.5441,-4.5372,-4.5203,-4.4913,-4.4831,-4.472,-4.4626,-4.4626,-4.4615,-4.4598,-4.4615,-4.4598,-4.4598,-4.4598,-4.4598,-4.4598,-4.4598,-4.4598,-4.4598,-4.4598,-4.4598,-4.4598,-4.4598,-4.4598,-4.4598,-4.4598,-4.4598,-4.4598,-4.4598,-4.4598,-4.4598,-4.4598,-4.4615,-4.4784,-4.5263,-4.572,-4.5855,-4.7208,-4.8206,-4.8815,-4.8968,-4.9001,-4.9018,-4.9018,-4.9018,-4.9018,-4.9018,-4.9018,-4.8987,-4.8832,-4.8612,-4.826,-4.8082,-4.8001,-4.8001,-4.8001,-4.8001,-4.8001,-4.8001,-4.8001,-4.8001,-4.8001,-4.8001,-4.8001,-4.8001,-4.8001,-4.8001,-4.8017,-4.8034,-4.8266,-4.8547,-4.8961,-4.9508,-5.0436,-5.1065,-5.1415,-5.1742,-5.2082,-5.2175,-5.2013,-5.1924,-5.1961,-5.1851,-5.1888,-4.7551,-4.7824,-4.799,-4.809,-4.8111,-4.8111,-4.811,-4.8052,-4.807,-4.805,-4.8012,-4.8032,-4.807,-4.8052,-4.8092,-4.819,-4.8305,-4.8324,-4.8324,-4.8305,-4.8247,-4.8226,-4.8168,-4.7929,-4.7681,-4.7428,-4.7183,-4.6684,-4.5988,-4.5735,-4.5468,-4.5194,-4.5076,-4.4923,-4.4803,-4.4709,-4.4654,-4.4598,-4.4598,-4.4598,-4.4598,-4.4598,-4.4598,-4.4598,-4.4598,-4.4598,-4.4598,-4.4598,-4.4598,-4.4598,-4.4598,-4.4598,-4.4598,-4.4598,-4.4598,-4.4598,-4.4598,-4.4598,-4.4598,-4.4598,-4.4598,-4.4598,-4.4598,-4.4598,-4.4632,-4.4869,-4.5162,-4.5754,-4.6566,-4.7496,-4.8159,-4.8714,-4.9018,-4.9018,-4.9018,-4.9018,-4.9018,-4.9001,-4.897,-4.8863,-4.8627,-4.8308,-4.8164,-4.8033,-4.8001,-4.8001,-4.8001,-4.8001,-4.8001,-4.8001,-4.8001,-4.8001,-4.8001,-4.8001,-4.8001,-4.8001,-4.8001,-4.8001,-4.8017,-4.8017,-4.8166,-4.8199,-4.8514,-4.9061,-5.0005,-5.0663,-5.0993,-5.1575,-5.1915,-5.1904,-5.1741,-5.1668,-5.1778,-5.1631,-5.1668,-4.7356,-4.7636,-4.7767,-4.787,-4.7909,-4.7909,-4.7888,-4.785,-4.7829,-4.7809,-4.7788,-4.7829,-4.7829,-4.785,-4.787,-4.7951,-4.8092,-4.817,-4.8209,-4.8209,-4.8149,-4.8108,-4.8008,-4.7804,-4.7511,-4.7187,-4.6824,-4.6308,-4.5709,-4.5441,-4.5203,-4.4923,-4.4831,-4.4776,-4.472,-4.4654,-4.4598,-4.4598,-4.4598,-4.4598,-4.4598,-4.4598,-4.4598,-4.4598,-4.4598,-4.4598,-4.4598,-4.4598,-4.4598,-4.4598,-4.4598,-4.4598,-4.4598,-4.4598,-4.4598,-4.4598,-4.4598,-4.4598,-4.4598,-4.4598,-4.4598,-4.4598,-4.4598,-4.4598,-4.4598,-4.4598,-4.484,-4.5382,-4.6261,-4.7056,-4.7597,-4.8426,-4.9001,-4.9018,-4.9018,-4.9018,-4.9018,-4.9018,-4.8877,-4.869,-4.8436,-4.8179,-4.8033,-4.8001,-4.8001,-4.8001,-4.8001,-4.8001,-4.8001,-4.8001,-4.8001,-4.8001,-4.8001,-4.8001,-4.8001,-4.8001,-4.8001,-4.8001,-4.8001,-4.8001,-4.8001,-4.8001,-4.8166,-4.873,-4.9324,-5.0014,-5.0681,-5.1306,-5.1541,-5.1614,-5.1462,-5.1312,-5.1333,-5.1333,-5.1296,-4.7312,-4.7468,-4.749,-4.7575,-4.7678,-4.7678,-4.7615,-4.7515,-4.7511,-4.7446,-4.7385,-4.7428,-4.7511,-4.7533,-4.7636,-4.7699,-4.7741,-4.7888,-4.7972,-4.7992,-4.7972,-4.7888,-4.772,-4.7675,-4.7377,-4.6934,-4.6332,-4.5794,-4.5415,-4.5257,-4.5059,-4.4831,-4.4793,-4.4737,-4.4615,-4.4598,-4.4598,-4.4598,-4.4598,-4.4598,-4.4598,-4.4598,-4.4598,-4.4598,-4.4598,-4.4598,-4.4598,-4.4598,-4.4598,-4.4598,-4.4598,-4.4598,-4.4598,-4.4598,-4.4598,-4.4598,-4.4598,-4.4598,-4.4598,-4.4598,-4.4598,-4.4598,-4.4598,-4.4598,-4.4598,-4.4598,-4.4649,-4.4902,-4.5855,-4.6786,-4.7039,-4.8088,-4.8934,-4.9018,-4.9018,-4.9018,-4.9018,-4.9001,-4.8861,-4.8595,-4.8324,-4.813,-4.8033,-4.8001,-4.8001,-4.8001,-4.8001,-4.8001,-4.8001,-4.8001,-4.8001,-4.8001,-4.8001,-4.8001,-4.8001,-4.8001,-4.8001,-4.8001,-4.8001,-4.8001,-4.8001,-4.8001,-4.7968,-4.8398,-4.8939,-4.9624,-5.0412,-5.0982,-5.1203,-5.1237,-5.1086,-5.0896,-5.0864,-5.0826,-5.0727,-4.6934,-4.716,-4.7249,-4.7338,-4.7407,-4.7377,-4.7334,-4.7267,-4.7201,-4.7116,-4.7116,-4.7138,-4.7138,-4.7201,-4.729,-4.7374,-4.7374,-4.7472,-4.7621,-4.7744,-4.7702,-4.7639,-4.7533,-4.7334,-4.6957,-4.6447,-4.5963,-4.5555,-4.5283,-4.5032,-4.4831,-4.4682,-4.4637,-4.4654,-4.4615,-4.4598,-4.4598,-4.4598,-4.4598,-4.4598,-4.4598,-4.4598,-4.4598,-4.4598,-4.4598,-4.4598,-4.4598,-4.4598,-4.4598,-4.4598,-4.4598,-4.4598,-4.4598,-4.4598,-4.4598,-4.4598,-4.4598,-4.4598,-4.4598,-4.4598,-4.4598,-4.4598,-4.4598,-4.4598,-4.4598,-4.4598,-4.4598,-4.4666,-4.5483,-4.621,-4.6836,-4.7648,-4.846,-4.8951,-4.9018,-4.9001,-4.897,-4.8798,-4.8642,-4.8483,-4.8244,-4.8066,-4.8017,-4.8001,-4.8001,-4.8001,-4.8001,-4.8001,-4.8001,-4.8001,-4.8001,-4.8001,-4.8001,-4.8001,-4.8001,-4.8001,-4.8001,-4.8001,-4.8001,-4.8001,-4.8001,-4.8001,-4.7935,-4.8051,-4.8587,-4.9213,-5.0009,-5.0524,-5.0688,-5.0771,-5.0596,-5.0464,-5.0331,-5.023,-5.0168,-4.6542,-4.6795,-4.6865,-4.6962,-4.7012,-4.6957,-4.6911,-4.6888,-4.6754,-4.6708,-4.6684,-4.6708,-4.6731,-4.6778,-4.6865,-4.6934,-4.6998,-4.703,-4.7143,-4.7294,-4.7381,-4.7338,-4.7209,-4.687,-4.6518,-4.6112,-4.5709,-4.5389,-4.514,-4.4913,-4.472,-4.4626,-4.4598,-4.4598,-4.4598,-4.4598,-4.4598,-4.4598,-4.4598,-4.4598,-4.4598,-4.4598,-4.4598,-4.4598,-4.4598,-4.4598,-4.4598,-4.4598,-4.4598,-4.4598,-4.4598,-4.4598,-4.4598,-4.4598,-4.4598,-4.4598,-4.4598,-4.4598,-4.4598,-4.4598,-4.4598,-4.4598,-4.4598,-4.4598,-4.4598,-4.4598,-4.4598,-4.4699,-4.528,-4.5991,-4.6735,-4.7479,-4.8176,-4.8934,-4.9018,-4.897,-4.8909,-4.869,-4.8483,-4.8356,-4.8147,-4.8033,-4.8001,-4.8001,-4.8001,-4.8001,-4.8001,-4.8001,-4.8001,-4.8001,-4.8001,-4.8001,-4.8001,-4.8001,-4.8001,-4.8001,-4.8001,-4.8001,-4.8001,-4.8001,-4.8001,-4.8001,-4.7968,-4.7868,-4.8202,-4.8624,-4.935,-4.9812,-5.0061,-5.006,-5.0097,-4.9979,-4.9821,-4.9797,-4.9693,-4.6137,-4.6357,-4.6381,-4.6495,-4.659,-4.6471,-4.6405,-4.6374,-4.6235,-4.6211,-4.6186,-4.6228,-4.6259,-4.635,-4.6405,-4.6495,-4.6548,-4.6613,-4.6596,-4.6708,-4.6888,-4.6957,-4.6754,-4.6447,-4.6161,-4.5912,-4.5555,-4.5257,-4.5032,-4.4858,-4.4737,-4.4598,-4.4598,-4.4598,-4.4598,-4.4598,-4.4598,-4.4598,-4.4598,-4.4598,-4.4598,-4.4598,-4.4598,-4.4598,-4.4598,-4.4598,-4.4598,-4.4598,-4.4598,-4.4598,-4.4598,-4.4598,-4.4598,-4.4598,-4.4598,-4.4598,-4.4598,-4.4598,-4.4598,-4.4598,-4.4598,-4.4598,-4.4598,-4.4598,-4.4598,-4.4598,-4.4598,-4.4632,-4.5162,-4.5872,-4.6583,-4.731,-4.8088,-4.8849,-4.9018,-4.894,-4.8801,-4.8627,-4.8452,-4.826,-4.8082,-4.8001,-4.8001,-4.8001,-4.8001,-4.8001,-4.8001,-4.8001,-4.8001,-4.8001,-4.8001,-4.8001,-4.8001,-4.8001,-4.8001,-4.8001,-4.8001,-4.8001,-4.8001,-4.8001,-4.7935,-4.7935,-4.7754,-4.7665,-4.7751,-4.8168,-4.8602,-4.9084,-4.951,-4.9679,-4.9622,-4.9461,-4.9316,-4.9194,-4.9113,-4.5786,-4.6087,-4.6112,-4.6186,-4.6284,-4.6161,-4.6112,-4.6087,-4.5955,-4.5879,-4.5922,-4.5922,-4.5922,-4.5972,-4.6055,-4.6137,-4.6161,-4.6259,-4.6235,-4.6186,-4.6235,-4.635,-4.6308,-4.6179,-4.593,-4.5675,-4.5406,-4.5177,-4.4995,-4.4793,-4.4654,-4.4598,-4.4598,-4.4598,-4.4598,-4.4598,-4.4598,-4.4598,-4.4598,-4.4598,-4.4598,-4.4598,-4.4598,-4.4598,-4.4598,-4.4598,-4.4598,-4.4598,-4.4598,-4.4598,-4.4598,-4.4598,-4.4598,-4.4598,-4.4598,-4.4598,-4.4598,-4.4598,-4.4598,-4.4598,-4.4598,-4.4598,-4.4598,-4.4598,-4.4598,-4.4598,-4.4598,-4.4632,-4.4852,-4.5213,-4.594,-4.6718,-4.7648,-4.8748,-4.9018,-4.8956,-4.8801,-4.8627,-4.842,-4.8227,-4.8099,-4.8001,-4.8001,-4.8001,-4.8001,-4.8001,-4.8001,-4.8001,-4.8001,-4.8001,-4.8001,-4.8001,-4.8001,-4.8001,-4.8001,-4.8001,-4.8001,-4.8001,-4.8001,-4.8001,-4.7902,-4.777,-4.7487,-4.718,-4.7343,-4.7689,-4.8089,-4.8561,-4.8859,-4.9066,-4.9056,-4.8852,-4.862,-4.8495,-4.8412,-4.5398,-4.5675,-4.5735,-4.5837,-4.592,-4.5829,-4.576,-4.5709,-4.5546,-4.5459,-4.5459,-4.5459,-4.5485,-4.5563,-4.5624,-4.5684,-4.576,-4.5837,-4.5811,-4.5778,-4.5709,-4.5811,-4.5938,-4.5905,-4.5744,-4.5494,-4.5247,-4.5059,-4.4913,-4.4709,-4.4598,-4.4598,-4.4598,-4.4598,-4.4598,-4.4598,-4.4598,-4.4598,-4.4598,-4.4598,-4.4598,-4.4598,-4.4598,-4.4598,-4.4598,-4.4598,-4.4598,-4.4598,-4.4598,-4.4598,-4.4598,-4.4598,-4.4598,-4.4598,-4.4598,-4.4598,-4.4598,-4.4598,-4.4598,-4.4598,-4.4598,-4.4598,-4.4598,-4.4598,-4.4598,-4.4598,-4.4598,-4.4615,-4.4598,-4.4959,-4.5686,-4.6616,-4.7733,-4.8765,-4.8956,-4.8846,-4.8707,-4.8483,-4.8308,-4.8147,-4.8066,-4.8001,-4.8001,-4.8001,-4.8001,-4.8001,-4.8001,-4.8001,-4.8001,-4.8001,-4.8001,-4.8001,-4.8001,-4.8001,-4.8001,-4.8001,-4.8001,-4.8001,-4.7968,-4.7968,-4.7836,-4.7637,-4.7319,-4.7042,-4.7084,-4.7193,-4.7505,-4.7767,-4.7886,-4.8063,-4.8183,-4.8313,-4.816,-4.7992,-4.788,-4.5042,-4.5194,-4.5292,-4.5424,-4.552,-4.5415,-4.5372,-4.531,-4.5123,-4.5032,-4.5076,-4.5022,-4.5123,-4.5194,-4.5257,-4.5257,-4.5363,-4.5389,-4.5389,-4.5336,-4.531,-4.5389,-4.5624,-4.5563,-4.5459,-4.531,-4.5086,-4.494,-4.4803,-4.4682,-4.4598,-4.4598,-4.4598,-4.4598,-4.4598,-4.4598,-4.4598,-4.4598,-4.4598,-4.4598,-4.4598,-4.4598,-4.4598,-4.4598,-4.4598,-4.4598,-4.4598,-4.4598,-4.4598,-4.4598,-4.4598,-4.4598,-4.4598,-4.4598,-4.4598,-4.4598,-4.4598,-4.4598,-4.4598,-4.4598,-4.4598,-4.4598,-4.4598,-4.4598,-4.4598,-4.4598,-4.4598,-4.4598,-4.4598,-4.501,-4.5889,-4.7039,-4.7939,-4.8703,-4.8863,-4.8707,-4.8483,-4.8307,-4.813,-4.8033,-4.8001,-4.8001,-4.8001,-4.8001,-4.8001,-4.8001,-4.8001,-4.8001,-4.8001,-4.8001,-4.8001,-4.8001,-4.8001,-4.8001,-4.8001,-4.8001,-4.8001,-4.8001,-4.7919,-4.7853,-4.7737,-4.7521,-4.7235,-4.704,-4.6763,-4.6689,-4.6792,-4.695,-4.6987,-4.7303,-4.7607,-4.779,-4.7849,-4.7694,-4.7581,-4.4913,-4.5059,-4.5086,-4.5113,-4.5113,-4.5113,-4.5086,-4.5086,-4.5032,-4.4995,-4.4995,-4.4995,-4.5005,-4.5032,-4.5032,-4.5059,-4.5069,-4.5086,-4.5086,-4.5069,-4.5059,-4.5086,-4.5167,-4.514,-4.5113,-4.5076,-4.4923,-4.4831,-4.4765,-4.4637,-4.4598,-4.4598,-4.4598,-4.4598,-4.4598,-4.4598,-4.4598,-4.4598,-4.4598,-4.4598,-4.4598,-4.4598,-4.4598,-4.4598,-4.4598,-4.4598,-4.4598,-4.4598,-4.4598,-4.4598,-4.4598,-4.4598,-4.4598,-4.4598,-4.4598,-4.4598,-4.4598,-4.4598,-4.4598,-4.4598,-4.4598,-4.4598,-4.4598,-4.4598,-4.4598,-4.4598,-4.4598,-4.4598,-4.4632,-4.5173,-4.6227,-4.6769,-4.7605,-4.8425,-4.8656,-4.85,-4.8324,-4.8211,-4.8147,-4.8033,-4.8001,-4.8001,-4.8001,-4.8001,-4.8001,-4.8001,-4.8001,-4.8001,-4.8001,-4.8001,-4.8001,-4.8001,-4.8001,-4.8001,-4.8001,-4.8001,-4.8001,-4.7968,-4.7886,-4.7754,-4.7621,-4.7386,-4.7098,-4.6719,-4.633,-4.6264,-4.62,-4.6105,-4.614,-4.66,-4.7073,-4.7226,-4.7342,-4.7246,-4.7178,-4.4765,-4.4831,-4.4886,-4.4913,-4.4913,-4.4896,-4.4896,-4.4869,-4.4831,-4.4803,-4.4803,-4.482,-4.482,-4.4803,-4.482,-4.482,-4.4803,-4.4803,-4.4803,-4.4803,-4.4803,-4.4803,-4.4803,-4.4831,-4.4848,-4.4903,-4.4831,-4.4793,-4.4709,-4.4626,-4.4598,-4.4598,-4.4598,-4.4598,-4.4598,-4.4598,-4.4598,-4.4598,-4.4598,-4.4598,-4.4598,-4.4598,-4.4598,-4.4598,-4.4598,-4.4598,-4.4598,-4.4598,-4.4598,-4.4598,-4.4598,-4.4598,-4.4598,-4.4598,-4.4598,-4.4598,-4.4598,-4.4598,-4.4598,-4.4598,-4.4598,-4.4598,-4.4598,-4.4598,-4.4598,-4.4598,-4.4598,-4.4598,-4.4682,-4.506,-4.6126,-4.6667,-4.7305,-4.7962,-4.8411,-4.8403,-4.8227,-4.813,-4.8082,-4.8033,-4.8001,-4.8001,-4.8001,-4.8001,-4.8001,-4.8001,-4.8001,-4.8001,-4.8001,-4.8001,-4.8001,-4.8001,-4.8001,-4.8001,-4.8001,-4.8001,-4.8001,-4.7935,-4.7853,-4.7721,-4.7571,-4.7285,-4.6996,-4.6545,-4.61,-4.5677,-4.5594,-4.5442,-4.5489,-4.5976,-4.6358,-4.6659,-4.6864,-4.6986,-4.6858,-4.4598,-4.4615,-4.4737,-4.4776,-4.4765,-4.4765,-4.4776,-4.4748,-4.4654,-4.4626,-4.4598,-4.4598,-4.4626,-4.4598,-4.4626,-4.4598,-4.4598,-4.4598,-4.4654,-4.4654,-4.4654,-4.4654,-4.4626,-4.4654,-4.4682,-4.4765,-4.4765,-4.4709,-4.4626,-4.4598,-4.4598,-4.4598,-4.4598,-4.4598,-4.4598,-4.4598,-4.4598,-4.4598,-4.4598,-4.4598,-4.4598,-4.4598,-4.4598,-4.4598,-4.4598,-4.4598,-4.4598,-4.4598,-4.4598,-4.4598,-4.4598,-4.4598,-4.4598,-4.4598,-4.4598,-4.4598,-4.4598,-4.4598,-4.4598,-4.4598,-4.4598,-4.4598,-4.4598,-4.4598,-4.4598,-4.4598,-4.4598,-4.4598,-4.4666,-4.4891,-4.5635,-4.6304,-4.6954,-4.7547,-4.8128,-4.8289,-4.8195,-4.8049,-4.8033,-4.8001,-4.8001,-4.8001,-4.8001,-4.8001,-4.8001,-4.8001,-4.8001,-4.8001,-4.8001,-4.8001,-4.8001,-4.8001,-4.8001,-4.8001,-4.8001,-4.8001,-4.8001,-4.7869,-4.7787,-4.7588,-4.7403,-4.7012,-4.6649,-4.6333,-4.5936,-4.551,-4.5089,-4.4872,-4.5047,-4.5404,-4.5743,-4.6043,-4.6379,-4.6739,-4.658,-4.4598,-4.4598,-4.4643,-4.4626,-4.4626,-4.4626,-4.4626,-4.4626,-4.4598,-4.4598,-4.4598,-4.4598,-4.4598,-4.4598,-4.4598,-4.4598,-4.4598,-4.4598,-4.4598,-4.4598,-4.4598,-4.4598,-4.4598,-4.4598,-4.4598,-4.4643,-4.4643,-4.4626,-4.4598,-4.4598,-4.4598,-4.4598,-4.4598,-4.4598,-4.4598,-4.4598,-4.4598,-4.4598,-4.4598,-4.4598,-4.4598,-4.4598,-4.4598,-4.4598,-4.4598,-4.4598,-4.4598,-4.4598,-4.4598,-4.4598,-4.4598,-4.4598,-4.4598,-4.4598,-4.4598,-4.4598,-4.4598,-4.4598,-4.4598,-4.4598,-4.4598,-4.4598,-4.4598,-4.4598,-4.4598,-4.4598,-4.4598,-4.4598,-4.4649,-4.4874,-4.5635,-4.6178,-4.677,-4.7326,-4.7855,-4.8178,-4.8082,-4.8033,-4.8001,-4.8001,-4.8001,-4.8001,-4.8001,-4.8001,-4.8001,-4.8001,-4.8001,-4.8001,-4.8001,-4.8001,-4.8001,-4.8001,-4.8001,-4.8001,-4.8001,-4.8001,-4.7968,-4.7787,-4.7654,-4.7386,-4.7115,-4.6649,-4.6298,-4.6012,-4.5687,-4.5262,-4.4869,-4.448,-4.454,-4.487,-4.5155,-4.5486,-4.5925,-4.6328,-4.6403,-4.4598,-4.4598,-4.4598,-4.4598,-4.4598,-4.4598,-4.4598,-4.4598,-4.4598,-4.4598,-4.4598,-4.4598,-4.4598,-4.4598,-4.4598,-4.4598,-4.4598,-4.4598,-4.4598,-4.4598,-4.4598,-4.4598,-4.4598,-4.4598,-4.4598,-4.4598,-4.4598,-4.4598,-4.4598,-4.4598,-4.4598,-4.4598,-4.4598,-4.4598,-4.4598,-4.4598,-4.4598,-4.4598,-4.4598,-4.4598,-4.4598,-4.4598,-4.4598,-4.4598,-4.4598,-4.4598,-4.4598,-4.4598,-4.4598,-4.4598,-4.4598,-4.4598,-4.4598,-4.4598,-4.4598,-4.4598,-4.4598,-4.4598,-4.4598,-4.4598,-4.4598,-4.4598,-4.4598,-4.4598,-4.4598,-4.4598,-4.4598,-4.4598,-4.4598,-4.4677,-4.4946,-4.5871,-4.6478,-4.6801,-4.7543,-4.8014,-4.8066,-4.8001,-4.8001,-4.8001,-4.8001,-4.8001,-4.8001,-4.8001,-4.8001,-4.8001,-4.8001,-4.8001,-4.8001,-4.8001,-4.8001,-4.8001,-4.8001,-4.8001,-4.8001,-4.7968,-4.7902,-4.7721,-4.7487,-4.7251,-4.6892,-4.6474,-4.612,-4.5796,-4.5431,-4.4986,-4.4603,-4.421,-4.4285,-4.4369,-4.4773,-4.5151,-4.5648,-4.5932,-4.602,-4.4598,-4.4598,-4.4598,-4.4598,-4.4598,-4.4598,-4.4598,-4.4598,-4.4598,-4.4598,-4.4598,-4.4598,-4.4598,-4.4598,-4.4598,-4.4598,-4.4598,-4.4598,-4.4598,-4.4598,-4.4598,-4.4598,-4.4598,-4.4598,-4.4598,-4.4598,-4.4598,-4.4598,-4.4598,-4.4598,-4.4598,-4.4598,-4.4598,-4.4598,-4.4598,-4.4598,-4.4598,-4.4598,-4.4598,-4.4598,-4.4598,-4.4598,-4.4598,-4.4598,-4.4598,-4.4598,-4.4598,-4.4598,-4.4598,-4.4598,-4.4598,-4.4598,-4.4598,-4.4598,-4.4598,-4.4598,-4.4598,-4.4598,-4.4598,-4.4598,-4.4598,-4.4598,-4.4598,-4.4598,-4.4598,-4.4598,-4.4598,-4.4598,-4.4525,-4.4468,-4.4608,-4.5417,-4.5989,-4.6371,-4.7147,-4.7964,-4.8016,-4.8001,-4.8001,-4.8001,-4.8001,-4.8001,-4.8001,-4.8001,-4.8001,-4.8001,-4.8001,-4.8001,-4.8001,-4.8001,-4.8001,-4.8001,-4.8001,-4.8001,-4.7968,-4.7919,-4.7787,-4.7654,-4.7352,-4.7064,-4.6719,-4.6333,-4.5941,-4.5557,-4.5061,-4.4663,-4.4281,-4.4003,-4.3941,-4.4083,-4.4471,-4.4842,-4.5148,-4.5493,-4.5682,-4.4598,-4.4598,-4.4598,-4.4598,-4.4598,-4.4598,-4.4598,-4.4598,-4.4598,-4.4598,-4.4598,-4.4598,-4.4598,-4.4598,-4.4598,-4.4598,-4.4598,-4.4598,-4.4598,-4.4598,-4.4598,-4.4598,-4.4598,-4.4598,-4.4598,-4.4598,-4.4598,-4.4598,-4.4598,-4.4598,-4.4598,-4.4598,-4.4598,-4.4598,-4.4598,-4.4598,-4.4598,-4.4598,-4.4598,-4.4598,-4.4598,-4.4598,-4.4598,-4.4598,-4.4598,-4.4598,-4.4598,-4.4598,-4.4598,-4.4598,-4.4598,-4.4598,-4.4598,-4.4598,-4.4598,-4.4598,-4.4598,-4.4598,-4.4598,-4.4598,-4.4598,-4.4598,-4.4598,-4.4598,-4.4598,-4.4598,-4.4598,-4.4598,-4.4452,-4.4338,-4.4342,-4.4804,-4.5357,-4.5998,-4.6719,-4.7486,-4.7802,-4.8001,-4.8001,-4.8001,-4.8001,-4.8001,-4.8001,-4.8001,-4.8001,-4.8001,-4.8001,-4.8001,-4.8001,-4.8001,-4.8001,-4.8001,-4.8001,-4.8001,-4.7968,-4.7886,-4.7721,-4.7554,-4.7251,-4.6927,-4.6509,-4.612,-4.5719,-4.5278,-4.4792,-4.4358,-4.4065,-4.3847,-4.3657,-4.3733,-4.4017,-4.43,-4.459,-4.4937,-4.5374,-4.4598,-4.4598,-4.4598,-4.4598,-4.4598,-4.4598,-4.4598,-4.4598,-4.4598,-4.4598,-4.4598,-4.4598,-4.4598,-4.4598,-4.4598,-4.4598,-4.4598,-4.4598,-4.4598,-4.4598,-4.4598,-4.4598,-4.4598,-4.4598,-4.4598,-4.4598,-4.4598,-4.4598,-4.4598,-4.4598,-4.4598,-4.4598,-4.4598,-4.4598,-4.4598,-4.4598,-4.4598,-4.4598,-4.4598,-4.4598,-4.4598,-4.4598,-4.4598,-4.4598,-4.4598,-4.4598,-4.4598,-4.4598,-4.4598,-4.4598,-4.4598,-4.4598,-4.4598,-4.4598,-4.4598,-4.4598,-4.4598,-4.4598,-4.4598,-4.4598,-4.4598,-4.4598,-4.4598,-4.4598,-4.4598,-4.457,-4.4525,-4.4423,-4.4367,-4.4253,-4.4243,-4.459,-4.52,-4.5823,-4.6407,-4.7138,-4.7686,-4.7901,-4.8001,-4.8001,-4.8001,-4.8001,-4.8001,-4.8001,-4.8001,-4.8001,-4.8001,-4.8001,-4.8001,-4.8001,-4.8001,-4.8001,-4.8001,-4.8001,-4.7935,-4.7853,-4.7654,-4.7487,-4.7167,-4.6789,-4.6298,-4.5884,-4.5463,-4.5017,-4.4473,-4.4127,-4.391,-4.3675,-4.3453,-4.3453,-4.3534,-4.3962,-4.4358,-4.4792,-4.5214,-4.4598,-4.4598,-4.4598,-4.4598,-4.4598,-4.4598,-4.4598,-4.4598,-4.4598,-4.4598,-4.4598,-4.4598,-4.4598,-4.4598,-4.4598,-4.4598,-4.4598,-4.4598,-4.4598,-4.4598,-4.4598,-4.4598,-4.4598,-4.4598,-4.4598,-4.4598,-4.4598,-4.4598,-4.4598,-4.4598,-4.4598,-4.4598,-4.4598,-4.4598,-4.4598,-4.4598,-4.4598,-4.4598,-4.4598,-4.4598,-4.4598,-4.4598,-4.4598,-4.4598,-4.4598,-4.4598,-4.4598,-4.4598,-4.4598,-4.4598,-4.4598,-4.4598,-4.4598,-4.4598,-4.4598,-4.4598,-4.4598,-4.4598,-4.4598,-4.4598,-4.4598,-4.4598,-4.4598,-4.4598,-4.457,-4.457,-4.4468,-4.4338,-4.4196,-4.4068,-4.404,-4.4351,-4.476,-4.5396,-4.6096,-4.6874,-4.7537,-4.7686,-4.7885,-4.8001,-4.8001,-4.8001,-4.8001,-4.8001,-4.8001,-4.8001,-4.8001,-4.8001,-4.8001,-4.8001,-4.8001,-4.8001,-4.8001,-4.7968,-4.7853,-4.7754,-4.7588,-4.7352,-4.6996,-4.6615,-4.61,-4.5667,-4.5278,-4.4739,-4.4243,-4.4011,-4.3793,-4.3542,-4.325,-4.3254,-4.336,-4.3791,-4.4229,-4.469,-4.517,-4.4598,-4.4598,-4.4598,-4.4598,-4.4598,-4.4598,-4.4598,-4.4598,-4.4598,-4.4598,-4.4598,-4.4598,-4.4598,-4.4598,-4.4598,-4.4598,-4.4598,-4.4598,-4.4598,-4.4598,-4.4598,-4.4598,-4.4598,-4.4598,-4.4598,-4.4598,-4.4598,-4.4598,-4.4598,-4.4598,-4.4598,-4.4598,-4.4598,-4.4598,-4.4598,-4.4598,-4.4598,-4.4598,-4.4598,-4.4598,-4.4598,-4.4598,-4.4598,-4.4598,-4.4598,-4.4598,-4.4598,-4.4598,-4.4598,-4.4598,-4.4598,-4.4598,-4.4598,-4.4598,-4.4598,-4.4598,-4.4598,-4.4598,-4.4598,-4.4598,-4.4598,-4.4598,-4.4598,-4.4598,-4.4598,-4.4395,-4.4293,-4.4281,-4.4126,-4.3969,-4.3839,-4.3896,-4.4254,-4.4901,-4.5582,-4.6162,-4.6825,-4.7388,-4.7603,-4.7901,-4.7934,-4.7835,-4.8001,-4.8001,-4.8001,-4.8001,-4.8001,-4.8001,-4.8001,-4.8001,-4.8001,-4.8001,-4.7968,-4.7902,-4.7754,-4.7588,-4.7386,-4.708,-4.6754,-4.6333,-4.59,-4.5463,-4.5002,-4.4625,-4.4143,-4.3949,-4.3714,-4.3463,-4.325,-4.305,-4.3131,-4.3502,-4.4262,-4.4924,-4.5373,-4.4598,-4.4598,-4.4598,-4.4598,-4.4598,-4.4598,-4.4598,-4.4598,-4.4598,-4.4598,-4.4598,-4.4598,-4.4598,-4.4598,-4.4598,-4.4598,-4.4598,-4.4598,-4.4598,-4.4598,-4.4598,-4.4598,-4.4598,-4.4598,-4.4598,-4.4598,-4.4598,-4.4598,-4.4598,-4.4598,-4.4598,-4.4598,-4.4598,-4.4598,-4.4598,-4.4598,-4.4598,-4.4598,-4.4598,-4.4598,-4.4598,-4.4598,-4.4598,-4.4598,-4.4598,-4.4598,-4.4598,-4.4598,-4.4598,-4.4598,-4.4598,-4.4598,-4.4598,-4.4598,-4.4598,-4.4598,-4.4598,-4.4598,-4.4598,-4.4598,-4.4598,-4.4598,-4.4598,-4.4598,-4.457,-4.4395,-4.4253,-4.4155,-4.4027,-4.3852,-4.3704,-4.3707,-4.3943,-4.4506,-4.5052,-4.5566,-4.6063,-4.6659,-4.704,-4.7222,-4.7388,-4.7454,-4.7719,-4.8001,-4.8001,-4.8001,-4.8001,-4.8001,-4.8001,-4.8001,-4.8001,-4.7968,-4.7935,-4.7853,-4.7688,-4.7454,-4.7217,-4.6858,-4.6474,-4.6064,-4.5646,-4.5114,-4.4701,-4.432,-4.4065,-4.3778,-4.3542,-4.3423,-4.321,-4.301,-4.2976,-4.314,-4.4017,-4.5083,-4.5548,-4.4598,-4.4598,-4.4598,-4.4598,-4.4598,-4.4598,-4.4598,-4.4598,-4.4598,-4.4598,-4.4598,-4.4598,-4.4598,-4.4598,-4.4598,-4.4598,-4.4598,-4.4598,-4.4598,-4.4598,-4.4598,-4.4598,-4.4598,-4.4598,-4.4598,-4.4598,-4.4598,-4.4598,-4.4598,-4.4598,-4.4598,-4.4598,-4.4598,-4.4598,-4.4598,-4.4598,-4.4598,-4.4598,-4.4598,-4.4598,-4.4598,-4.4598,-4.4598,-4.4598,-4.4598,-4.4598,-4.4598,-4.4598,-4.4598,-4.4598,-4.4598,-4.4598,-4.4598,-4.4598,-4.4598,-4.4598,-4.4598,-4.4598,-4.4598,-4.4598,-4.4598,-4.4598,-4.4598,-4.457,-4.4468,-4.4355,-4.4167,-4.4056,-4.391,-4.3763,-4.3615,-4.3631,-4.3681,-4.4208,-4.4685,-4.5135,-4.5417,-4.5897,-4.6212,-4.6493,-4.6659,-4.6825,-4.7421,-4.7736,-4.7984,-4.7984,-4.8001,-4.8001,-4.8001,-4.8001,-4.8001,-4.7935,-4.7853,-4.7754,-4.7621,-4.7302,-4.6996,-4.6615,-4.6227,-4.5884,-4.541,-4.4889,-4.4473,-4.4166,-4.3895,-4.3621,-4.3423,-4.329,-4.313,-4.293,-4.306,-4.3343,-4.3932,-4.4952,-4.5577,-4.4598,-4.4598,-4.4598,-4.4598,-4.4598,-4.4598,-4.4598,-4.4598,-4.4598,-4.4598,-4.4598,-4.4598,-4.4598,-4.4598,-4.4598,-4.4598,-4.4598,-4.4598,-4.4598,-4.4598,-4.4598,-4.4598,-4.4598,-4.4598,-4.4598,-4.4598,-4.4598,-4.4598,-4.4598,-4.4598,-4.4598,-4.4598,-4.4598,-4.4598,-4.4598,-4.4598,-4.4598,-4.4598,-4.4598,-4.4598,-4.4598,-4.4598,-4.4598,-4.4598,-4.4598,-4.4598,-4.4598,-4.4598,-4.4598,-4.4598,-4.4598,-4.4598,-4.4598,-4.4598,-4.4598,-4.4598,-4.4598,-4.4598,-4.4587,-4.457,-4.457,-4.457,-4.457,-4.4514,-4.4338,-4.4167,-4.4068,-4.3939,-4.3763,-4.3674,-4.3615,-4.3615,-4.3681,-4.383,-4.4307,-4.4539,-4.4821,-4.4986,-4.5301,-4.5698,-4.5847,-4.6096,-4.6841,-4.7438,-4.7819,-4.7968,-4.8001,-4.8001,-4.8001,-4.8001,-4.8001,-4.7869,-4.7754,-4.7554,-4.737,-4.7082,-4.6772,-4.6404,-4.6012,-4.563,-4.5225,-4.4739,-4.4358,-4.405,-4.3778,-4.3503,-4.329,-4.3155,-4.2955,-4.2832,-4.3387,-4.3774,-4.4313,-4.4763,-4.5372,-4.4598,-4.4598,-4.4598,-4.4598,-4.4598,-4.4598,-4.4598,-4.4598,-4.4598,-4.4598,-4.4598,-4.4598,-4.4598,-4.4598,-4.4598,-4.4598,-4.4598,-4.4598,-4.4598,-4.4598,-4.4598,-4.4598,-4.4598,-4.4598,-4.4598,-4.4598,-4.4598,-4.4598,-4.4598,-4.4598,-4.4598,-4.4598,-4.4598,-4.4598,-4.4598,-4.4598,-4.4598,-4.4598,-4.4598,-4.4598,-4.4598,-4.4598,-4.4598,-4.4598,-4.4598,-4.4598,-4.4598,-4.4598,-4.4598,-4.4598,-4.4598,-4.4598,-4.4598,-4.457,-4.457,-4.457,-4.457,-4.4542,-4.4412,-4.4355,-4.44,-4.4474,-4.4485,-4.4384,-4.4281,-4.4068,-4.3969,-4.3852,-4.3687,-4.3628,-4.3615,-4.3615,-4.3648,-4.3648,-4.388,-4.3926,-4.4045,-4.4141,-4.4357,-4.4821,-4.5102,-4.5814,-4.656,-4.7123,-4.7537,-4.7918,-4.8001,-4.8001,-4.8001,-4.7968,-4.7968,-4.7803,-4.7621,-4.7386,-4.7132,-4.6858,-4.6509,-4.6136,-4.5776,-4.5395,-4.4949,-4.4549,-4.4205,-4.3871,-4.3621,-4.3369,-4.321,-4.2996,-4.2769,-4.2808,-4.3146,-4.3558,-4.3964,-4.4501,-4.5184,-4.4598,-4.4598,-4.4598,-4.4598,-4.4598,-4.4598,-4.4598,-4.4598,-4.4598,-4.4598,-4.4598,-4.4598,-4.4598,-4.4598,-4.4598,-4.4598,-4.4598,-4.4598,-4.4598,-4.4598,-4.4598,-4.4598,-4.4598,-4.4598,-4.4598,-4.4598,-4.4598,-4.4598,-4.4598,-4.4598,-4.4598,-4.4598,-4.4598,-4.4598,-4.4598,-4.4598,-4.4598,-4.4598,-4.4598,-4.4598,-4.4598,-4.4598,-4.4598,-4.4598,-4.4598,-4.4598,-4.4598,-4.4598,-4.4598,-4.4598,-4.4598,-4.4598,-4.4587,-4.4542,-4.4514,-4.4514,-4.4429,-4.4355,-4.4224,-4.4167,-4.4258,-4.4372,-4.4281,-4.4196,-4.4155,-4.3998,-4.3881,-4.3763,-4.3658,-4.3628,-4.3615,-4.3615,-4.3615,-4.3615,-4.3615,-4.3648,-4.3664,-4.3764,-4.3813,-4.4274,-4.4506,-4.5334,-4.6212,-4.6775,-4.7239,-4.7636,-4.8001,-4.8001,-4.8001,-4.7968,-4.7886,-4.7721,-4.7521,-4.7319,-4.6996,-4.6615,-4.6278,-4.588,-4.5463,-4.5061,-4.4723,-4.432,-4.3988,-4.3675,-4.3503,-4.329,-4.309,-4.285,-4.2662,-4.2491,-4.2536,-4.3034,-4.3544,-4.4211,-4.4879,-4.4598,-4.4598,-4.4598,-4.4598,-4.4598,-4.4598,-4.4598,-4.4598,-4.4598,-4.4598,-4.4598,-4.4598,-4.4598,-4.4598,-4.4598,-4.4598,-4.4598,-4.4598,-4.4598,-4.4598,-4.4598,-4.4598,-4.4598,-4.4598,-4.4598,-4.4598,-4.4598,-4.4598,-4.4598,-4.4598,-4.4598,-4.4598,-4.4598,-4.4598,-4.4598,-4.4598,-4.4598,-4.4598,-4.4598,-4.4598,-4.4598,-4.4598,-4.4598,-4.4598,-4.4598,-4.4598,-4.4598,-4.4598,-4.4598,-4.4598,-4.4587,-4.4587,-4.4542,-4.4395,-4.4338,-4.4281,-4.4184,-4.4126,-4.4068,-4.4039,-4.401,-4.4068,-4.4068,-4.3998,-4.3956,-4.3881,-4.3793,-4.3704,-4.3628,-4.3598,-4.3615,-4.3615,-4.3615,-4.3615,-4.3615,-4.3615,-4.3615,-4.3648,-4.3648,-4.3764,-4.378,-4.4426,-4.5533,-4.6212,-4.6874,-4.7421,-4.7802,-4.8001,-4.7968,-4.7935,-4.782,-4.7654,-4.7454,-4.7235,-4.6858,-4.6404,-4.6028,-4.5625,-4.5129,-4.4723,-4.4396,-4.4143,-4.3832,-4.3596,-4.3409,-4.321,-4.297,-4.2729,-4.2581,-4.2439,-4.2279,-4.2642,-4.3224,-4.3834,-4.4472,-4.4598,-4.4598,-4.4598,-4.4598,-4.4598,-4.4598,-4.4598,-4.4598,-4.4598,-4.4598,-4.4598,-4.4598,-4.4598,-4.4598,-4.4598,-4.4598,-4.4598,-4.4598,-4.4598,-4.4598,-4.4598,-4.4598,-4.4598,-4.4598,-4.4598,-4.4598,-4.4598,-4.4598,-4.4598,-4.4598,-4.4598,-4.4598,-4.4598,-4.4598,-4.4598,-4.4598,-4.4598,-4.4598,-4.4598,-4.4598,-4.4598,-4.4598,-4.4598,-4.4598,-4.4598,-4.4598,-4.4598,-4.4598,-4.4598,-4.4587,-4.4468,-4.4412,-4.4367,-4.4224,-4.4155,-4.4155,-4.4056,-4.3956,-4.3956,-4.3822,-4.3747,-4.373,-4.373,-4.3852,-4.3822,-4.3763,-4.3658,-4.3628,-4.3615,-4.3615,-4.3615,-4.3615,-4.3615,-4.3615,-4.3615,-4.3615,-4.3615,-4.3615,-4.3615,-4.3615,-4.3615,-4.4042,-4.5069,-4.5781,-4.6427,-4.709,-4.7587,-4.7819,-4.7968,-4.7886,-4.7787,-4.7604,-4.7319,-4.703,-4.658,-4.6136,-4.5792,-4.5405,-4.4852,-4.4435,-4.4166,-4.3895,-4.366,-4.3463,-4.3369,-4.309,-4.2809,-4.2662,-4.2581,-4.2325,-4.2165,-4.2498,-4.289,-4.3456,-4.4008,-4.4598,-4.4598,-4.4598,-4.4598,-4.4598,-4.4598,-4.4598,-4.4598,-4.4598,-4.4598,-4.4598,-4.4598,-4.4598,-4.4598,-4.4598,-4.4598,-4.4598,-4.4598,-4.4598,-4.4598,-4.4598,-4.4598,-4.4598,-4.4598,-4.4598,-4.4598,-4.4598,-4.4598,-4.4598,-4.4598,-4.4598,-4.4598,-4.4598,-4.4598,-4.4598,-4.4598,-4.4598,-4.4598,-4.4598,-4.4598,-4.4598,-4.4598,-4.4598,-4.4598,-4.4598,-4.4598,-4.4598,-4.4598,-4.457,-4.4514,-4.4338,-4.4207,-4.4121,-4.3935,-4.373,-4.37,-4.3611,-4.3552,-4.3539,-4.3462,-4.3432,-4.3432,-4.3462,-4.3568,-4.3645,-4.3628,-4.3598,-4.3615,-4.3615,-4.3615,-4.3615,-4.3615,-4.3615,-4.3615,-4.3615,-4.3615,-4.3615,-4.3615,-4.3615,-4.3615,-4.3764,-4.4059,-4.4655,-4.5334,-4.6079,-4.6842,-4.7422,-4.7754,-4.782,-4.777,-4.7688,-4.7571,-4.7183,-4.6823,-4.6333,-4.5884,-4.5484,-4.5092,-4.4587,-4.4205,-4.3934,-4.3699,-4.3503,-4.3384,-4.3344,-4.3065,-4.2769,-4.2688,-4.2622,-4.231,-4.2092,-4.2281,-4.2571,-4.2948,-4.3471,-4.4598,-4.4598,-4.4598,-4.4598,-4.4598,-4.4598,-4.4598,-4.4598,-4.4598,-4.4598,-4.4598,-4.4598,-4.4598,-4.4598,-4.4598,-4.4598,-4.4598,-4.4598,-4.4598,-4.4598,-4.4598,-4.4598,-4.4598,-4.4598,-4.4598,-4.4598,-4.4598,-4.4598,-4.4598,-4.4598,-4.4598,-4.4598,-4.4598,-4.4598,-4.4598,-4.4598,-4.4598,-4.4598,-4.4598,-4.4598,-4.4598,-4.4598,-4.4598,-4.4598,-4.4598,-4.4598,-4.457,-4.4542,-4.4485,-4.4384,-4.4196,-4.4064,-4.3713,-4.3522,-4.3312,-4.3174,-4.3127,-4.3113,-4.3143,-4.3113,-4.3113,-4.3174,-4.3235,-4.3342,-4.3402,-4.3568,-4.3598,-4.3615,-4.3615,-4.3615,-4.3615,-4.3615,-4.3615,-4.3615,-4.3615,-4.3615,-4.3615,-4.3598,-4.3568,-4.3568,-4.3588,-4.3869,-4.4155,-4.4818,-4.5659,-4.6548,-4.7275,-4.7638,-4.7638,-4.7588,-4.7471,-4.7369,-4.6961,-4.6545,-4.6156,-4.5703,-4.5247,-4.4814,-4.4358,-4.4026,-4.3847,-4.3596,-4.3344,-4.3305,-4.3305,-4.305,-4.285,-4.2729,-4.2581,-4.2242,-4.2092,-4.2092,-4.231,-4.2615,-4.2963,-4.4598,-4.4598,-4.4598,-4.4598,-4.4598,-4.4598,-4.4598,-4.4598,-4.4598,-4.4598,-4.4598,-4.4598,-4.4598,-4.4598,-4.4598,-4.4598,-4.4598,-4.4598,-4.4598,-4.4598,-4.4598,-4.4598,-4.4598,-4.4598,-4.4598,-4.4598,-4.4598,-4.4598,-4.4598,-4.4598,-4.4598,-4.4598,-4.4598,-4.4598,-4.4598,-4.4598,-4.4598,-4.4598,-4.4598,-4.4598,-4.4598,-4.4598,-4.4598,-4.4598,-4.4598,-4.4598,-4.457,-4.444,-4.4384,-4.4281,-4.3935,-4.3582,-4.3146,-4.3054,-4.2929,-4.2741,-4.2695,-4.2695,-4.2743,-4.279,-4.2852,-4.2929,-4.3021,-4.3113,-4.3265,-4.3462,-4.3598,-4.3598,-4.3615,-4.3615,-4.3615,-4.3615,-4.3615,-4.3615,-4.3615,-4.3615,-4.3585,-4.3568,-4.3539,-4.3492,-4.3462,-4.3619,-4.3871,-4.4465,-4.5222,-4.6109,-4.7012,-4.7504,-4.737,-4.7302,-4.7064,-4.6909,-4.6649,-4.6262,-4.5884,-4.5484,-4.5002,-4.4663,-4.4243,-4.3949,-4.3729,-4.3518,-4.3305,-4.3305,-4.3265,-4.301,-4.285,-4.2729,-4.2541,-4.2201,-4.2092,-4.2092,-4.2092,-4.2324,-4.2615,-4.4598,-4.4598,-4.4598,-4.4598,-4.4598,-4.4598,-4.4598,-4.4598,-4.4598,-4.4598,-4.4598,-4.4598,-4.4598,-4.4598,-4.4598,-4.4598,-4.4598,-4.4598,-4.4598,-4.4598,-4.4598,-4.4598,-4.4598,-4.4598,-4.4598,-4.4598,-4.4598,-4.4598,-4.4598,-4.4598,-4.4598,-4.4598,-4.4598,-4.4598,-4.4598,-4.4598,-4.4598,-4.4598,-4.4598,-4.4598,-4.4598,-4.4598,-4.4598,-4.4598,-4.4598,-4.4598,-4.4542,-4.4412,-4.4281,-4.4051,-4.3611,-4.319,-4.2806,-4.2556,-4.2429,-4.227,-4.2206,-4.2206,-4.2302,-4.2381,-4.2524,-4.2602,-4.279,-4.2836,-4.2898,-4.3113,-4.3386,-4.3432,-4.3568,-4.3598,-4.3615,-4.3615,-4.3615,-4.3615,-4.3509,-4.3479,-4.3372,-4.3295,-4.3295,-4.3281,-4.3317,-4.3547,-4.3928,-4.4667,-4.5437,-4.6127,-4.6995,-4.7218,-4.7132,-4.6977,-4.6719,-4.6474,-4.6191,-4.5977,-4.5687,-4.5262,-4.4739,-4.4396,-4.4104,-4.3832,-4.3557,-4.3423,-4.3305,-4.329,-4.321,-4.301,-4.285,-4.2688,-4.2474,-4.2175,-4.2092,-4.2092,-4.2092,-4.2092,-4.231,-4.4598,-4.4598,-4.4598,-4.4598,-4.4598,-4.4598,-4.4598,-4.4598,-4.4598,-4.4598,-4.4598,-4.4598,-4.4598,-4.4598,-4.4598,-4.4598,-4.4598,-4.4598,-4.4598,-4.4598,-4.4598,-4.4598,-4.4598,-4.4598,-4.4598,-4.4598,-4.4598,-4.4598,-4.4598,-4.4598,-4.4598,-4.4598,-4.4598,-4.4598,-4.4598,-4.4598,-4.4598,-4.4598,-4.4598,-4.4598,-4.4598,-4.4598,-4.4598,-4.4598,-4.4598,-4.4598,-4.4542,-4.4384,-4.4224,-4.3802,-4.3342,-4.2821,-4.2445,-4.2141,-4.1915,-4.1784,-4.1686,-4.1719,-4.1752,-4.1866,-4.1947,-4.2077,-4.2349,-4.2539,-4.2586,-4.2805,-4.3082,-4.3235,-4.3372,-4.3492,-4.3509,-4.3539,-4.3539,-4.3509,-4.3402,-4.3312,-4.3204,-4.3096,-4.3082,-4.3082,-4.3215,-4.3428,-4.4003,-4.4754,-4.5457,-4.6142,-4.6614,-4.6786,-4.6823,-4.6545,-4.6314,-4.6064,-4.576,-4.5578,-4.5358,-4.5061,-4.4549,-4.4181,-4.3871,-4.3636,-4.3384,-4.3344,-4.329,-4.325,-4.3155,-4.2955,-4.2769,-4.2566,-4.2351,-4.2133,-4.2092,-4.2092,-4.2092,-4.2092,-4.2092,-4.4598,-4.4598,-4.4598,-4.4598,-4.4598,-4.4598,-4.4598,-4.4598,-4.4598,-4.4598,-4.4598,-4.4598,-4.4598,-4.4598,-4.4598,-4.4598,-4.4598,-4.4598,-4.4598,-4.4598,-4.4598,-4.4598,-4.4598,-4.4598,-4.4598,-4.4598,-4.4598,-4.4598,-4.4598,-4.4598,-4.4598,-4.4598,-4.4598,-4.4598,-4.4598,-4.4598,-4.4598,-4.4598,-4.4598,-4.4598,-4.4598,-4.4598,-4.4598,-4.4598,-4.4598,-4.4598,-4.4514,-4.427,-4.4051,-4.3684,-4.3129,-4.2539,-4.2141,-4.1768,-4.1521,-4.1288,-4.1169,-4.1153,-4.1221,-4.1355,-4.1456,-4.1654,-4.1916,-4.2093,-4.2254,-4.246,-4.268,-4.2774,-4.2929,-4.3157,-4.3204,-4.3235,-4.3235,-4.3204,-4.3143,-4.3113,-4.3052,-4.299,-4.2959,-4.2916,-4.2889,-4.32,-4.3638,-4.4332,-4.4976,-4.5669,-4.6281,-4.6429,-4.6439,-4.6171,-4.5936,-4.563,-4.5373,-4.5024,-4.4799,-4.4761,-4.4396,-4.4026,-4.3729,-4.3518,-4.3384,-4.3344,-4.329,-4.329,-4.3115,-4.2915,-4.2714,-4.25,-4.231,-4.2133,-4.2092,-4.2092,-4.2092,-4.2092,-4.2092]},{"header":{"parameterUnit":"m.s-1","parameterCategory":1,"la1":31.0,"la2":29.5877,"lo1":-88.7671,"lo2":-86.6584,"dy":0.0162,"dx":0.0185,"nx":115,"ny":88,"refTime":"2023-03-05T06:00:00:Z","depth":0,"parameterNumber":3,"parameterNumberName":"V-component_of_WINDS"},"data":[0.0,0.0,0.0,0.0,0.0,0.0,0.0,0.0,0.0,0.0,0.0,0.0,0.0,0.0,0.0,0.0,0.0,0.0,0.0,0.0,0.0,0.0,0.0,0.0,0.0,0.0,0.0,0.0,0.0,0.0,0.0,0.0,0.0,0.0,0.0,0.0,0.0,0.0,0.0,0.0,0.0,0.0,0.0,0.0,0.0,0.0,0.0,0.0,0.0,0.0,0.0,0.0,0.0,0.0,0.0,0.0,0.0,0.0,0.0,0.0,0.0,0.0,0.0,0.0,0.0,0.0,0.0,0.0,0.0,0.0,0.0,0.0,0.0,0.0,0.0,0.0,0.0,0.0,0.0,0.0,0.0,0.0,0.0,0.0,0.0,0.0,0.0,0.0,0.0,0.0,0.0,0.0,0.0,0.0,0.0,0.0,0.0,0.0,0.0,0.0,0.0,0.0,0.0,0.0,0.0,0.0,0.0,0.0,0.0,0.0,0.0,0.0,0.0,0.0,0.0,0.0,0.0,0.0,0.0,0.0,0.0,0.0,0.0,0.0,0.0,0.0,0.0,0.0,0.0,0.0,0.0,0.0,0.0,0.0,0.0,0.0,0.0,0.0,0.0,0.0,0.0,0.0,0.0,0.0,0.0,0.0,0.0,0.0,0.0,0.0,0.0,0.0,0.0,0.0,0.0,0.0,0.0,0.0,0.0,0.0,0.0,0.0,0.0,0.0,0.0,0.0,0.0,0.0,0.0,0.0,0.0,0.0,0.0,0.0,0.0,0.0,0.0,0.0,0.0,0.0,0.0,0.0,0.0,0.0,0.0,0.0,0.0,0.0,0.0,0.0,0.0,0.0,0.0,0.0,0.0,0.0,0.0,0.0,0.0,0.0,0.0,0.0,0.0,0.0,0.0,0.0,0.0,0.0,0.0,0.0,0.0,0.0,0.0,0.0,0.0,0.0,0.0,0.0,0.0,0.0,0.0,0.0,0.0,0.0,0.0,0.0,0.0,0.0,0.0,0.0,0.0,0.0,0.0,0.0,0.0,0.0,0.0,0.0,0.0,0.0,0.0,0.0,0.0,0.0,0.0,0.0,0.0,0.0,0.0,0.0,0.0,0.0,0.0,0.0,0.0,0.0,0.0,0.0,0.0,0.0,0.0,0.0,0.0,0.0,0.0,0.0,0.0,0.0,0.0,0.0,0.0,0.0,0.0,0.0,0.0,0.0,0.0,0.0,0.0,0.0,0.0,0.0,0.0,0.0,0.0,0.0,0.0,0.0,0.0,0.0,0.0,0.0,0.0,0.0,0.0,0.0,0.0,0.0,0.0,0.0,0.0,0.0,0.0,0.0,0.0,0.0,0.0,0.0,0.0,0.0,0.0,0.0,0.0,0.0,0.0,0.0,0.0,0.0,0.0,0.0,0.0,0.0,0.0,0.0,0.0,0.0,0.0,0.0,0.0,0.0,0.0,0.0,0.0,0.0,0.0,0.0,0.0,0.0,0.0,0.0,0.0,0.0,0.0,0.0,0.0,0.0,0.0,0.0,0.0,0.0,0.0,0.0,0.0,0.0,0.0,0.0,0.0,0.0,0.0,0.0,0.0,0.0,0.0,0.0,0.0,0.0,0.0,0.0,0.0,0.0,0.0,0.0,0.0,0.0,0.0,0.0,0.0,0.0,0.0,0.0,0.0,0.0,0.0,0.0,0.0,0.0,0.0,0.0,0.0,0.0,0.0,0.0,0.0,0.0,0.0,0.0,0.0,0.0,0.0,0.0,0.0,0.0,0.0,0.0,0.0,0.0,0.0,0.0,0.0,0.0,0.0,0.0,0.0,0.0,0.0,0.0,0.0,0.0,0.0,0.0,0.0,0.0,0.0,0.0,0.0,0.0,0.0,0.0,0.0,0.0,0.0,0.0,0.0,0.0,0.0,0.0,0.0,0.0,0.0,0.0,0.0,0.0,0.0,0.0,0.0,0.0,0.0,0.0,0.0,0.0,0.0,0.0,0.0,0.0,0.0,0.0,0.0,0.0,0.0,0.0,0.0,0.0,0.0,0.0,0.0,0.0,0.0,0.0,0.0,0.0,0.0,0.0,0.0,0.0,0.0,0.0,0.0,0.0,0.0,0.0,0.0,0.0,0.0,0.0,0.0,0.0,0.0,0.0,0.0,0.0,0.0,0.0,0.0,0.0,0.0,0.0,0.0,0.0,0.0,0.0,0.0,0.0,0.0,0.0,0.0,0.0,0.0,0.0,0.0,0.0,0.0,0.0,0.0,0.0,0.0,0.0,0.0,0.0,0.0,0.0,0.0,0.0,0.0,0.0,0.0,0.0,0.0,0.0,0.0,0.0,0.0,0.0,0.0,0.0,0.0,0.0,0.0,0.0,0.0,0.0,0.0,0.0,0.0,0.0,0.0,0.0,0.0,0.0,0.0,0.0,0.0,0.0,0.0,0.0,0.0,0.0,0.0,0.0,0.0,0.0,0.0,0.0,0.0,0.0,0.0,0.0,0.0,0.0,0.0,0.0,0.0,0.0,0.0,0.0,0.0,0.0,0.0,0.0,0.0,0.0,0.0,0.0,0.0,0.0,0.0,0.0,0.0,0.0,0.0,0.0,0.0,0.0,0.0,0.0,0.0,0.0,0.0,0.0,0.0,0.0,0.0,0.0,0.0,0.0,0.0,0.0,0.0,0.0,0.0,0.0,0.0,0.0,0.0,0.0,0.0,0.0,0.0,0.0,0.0,0.0,0.0,0.0,0.0,0.0,0.0,0.0,0.0,0.0,0.0,0.0,0.0,0.0,0.0,0.0,0.0,0.0,0.0,0.0,0.0,0.0,0.0,0.0,0.0,0.0,0.0,0.0,0.0,0.0,0.0,0.0,0.0,0.0,0.0,0.0,0.0,0.0,0.0,0.0,0.0,0.0,0.0,0.0,0.0,0.0,0.0,0.0,0.0,0.0,0.0,0.0,0.0,0.0,0.0,0.0,0.0,0.0,0.0,0.0,0.0,0.0,0.0,0.0,0.0,0.0,0.0,0.0,0.0,0.0,0.0,0.0,0.0,0.0,0.0,0.0,0.0,0.0,0.0,0.0,0.0,0.0,0.0,0.0,0.0,0.0,0.0,0.0,0.0,0.0,0.0,0.0,0.0,0.0,0.0,0.0,0.0,0.0,0.0,0.0,0.0,0.0,0.0,0.0,0.0,0.0,0.0,0.0,0.0,0.0,0.0,0.0,0.0,0.0,0.0,0.0,0.0,0.0,0.0,0.0,0.0,0.0,0.0,0.0,0.0,0.0,0.0,0.0,0.0,0.0,0.0,0.0,0.0,0.0,0.0,0.0,0.0,0.0,0.0,0.0,0.0,0.0,0.0,0.0,0.0,0.0,0.0,0.0,0.0,0.0,0.0,0.0,0.0,0.0,0.0,0.0,0.0,0.0,0.0,0.0,0.0,0.0,0.0,0.0,0.0,0.0,0.0,0.0,0.0,0.0,0.0,0.0,0.0,0.0,0.0,0.0,0.0,0.0,0.0,0.0,0.0,0.0,0.0,0.0,0.0,0.0,0.0,0.0,0.0,0.0,0.0,0.0,0.0,0.0,0.0,0.0,0.0,0.0,0.0,0.0,0.0,0.0,0.0,0.0,0.0,0.0,0.0,0.0,0.0,0.0,0.0,0.0,0.0,0.0,0.0,0.0,0.0,0.0,0.0,0.0,0.0,0.0,0.0,0.0,0.0,0.0,0.0,0.0,0.0,0.0,0.0,0.0,0.0,0.0,0.0,0.0,0.0,0.0,0.0,0.0,0.0,0.0,0.0,0.0,0.0,0.0,0.0,0.0,0.0,0.0,0.0,0.0,0.0,0.0,0.0,0.0,0.0,0.0,0.0,0.0,0.0,0.0,0.0,0.0,0.0,0.0,0.0,0.0,0.0,0.0,0.0,0.0,0.0,0.0,0.0,0.0,0.0,0.0,0.0,0.0,0.0,0.0,0.0,0.0,0.0,0.0,0.0,0.0,0.0,0.0,0.0,0.0,0.0,0.0,0.0,0.0,0.0,0.0,0.0,0.0,0.0,0.0,0.0,0.0,0.0,0.0,0.0,0.0,0.0,0.0,0.0,0.0,0.0,0.0,0.0,0.0,0.0,0.0,0.0,0.0,0.0,0.0,0.0,0.0,0.0,0.0,0.0,0.0,0.0,0.0,0.0,0.0,0.0,0.0,0.0,0.0,0.0,0.0,0.0,0.0,0.0,0.0,0.0,0.0,0.0,0.0,0.0,0.0,0.0,0.0,0.0,0.0,0.0,0.0,0.0,0.0,0.0,0.0,0.0,0.0,0.0,0.0,0.0,0.0,0.0,0.0,0.0,0.0,0.0,0.0,0.0,0.0,0.0,0.0,0.0,0.0,0.0,0.0,0.0,0.0,0.0,0.0,0.0,0.0,0.0,0.0,0.0,0.0,0.0,0.0,0.0,0.0,0.0,0.0,0.0,0.0,0.0,0.0,0.0,0.0,0.0,0.0,0.0,0.0,0.0,0.0,0.0,0.0,0.0,0.0,0.0,0.0,0.0,0.0,0.0,0.0,0.0,0.0,0.0,0.0,0.0,0.0,0.0,0.0,0.0,0.0,0.0,0.0,0.0,0.0,0.0,0.0,0.0,0.0,0.0,0.0,0.0,0.0,0.0,0.0,0.0,0.0,0.0,0.0,0.0,0.0,0.0,0.0,0.0,0.0,0.0,0.0,0.0,0.0,0.0,0.0,0.0,0.0,0.0,0.0,0.0,0.0,0.0,0.0,0.0,0.0,0.0,0.0,0.0,0.0,0.0,0.0,0.0,0.0,0.0,0.0,0.0,0.0,0.0,0.0,0.0,0.0,0.0,0.0,0.0,0.0,0.0,0.0,0.0,0.0,0.0,0.0,0.0,0.0,0.0,0.0,0.0,0.0,0.0,0.0,0.0,0.0,0.0,0.0,0.0,0.0,0.0,0.0,0.0,0.0,0.0,0.0,0.0,0.0,0.0,0.0,0.0,0.0,0.0,0.0,0.0,0.0,0.0,0.0,0.0,0.0,0.0,0.0,0.0,0.0,0.0,0.0,0.0,0.0,0.0,0.0,0.0,0.0,0.0,0.0,0.0,0.0,0.0,0.0,0.0,0.0,0.0,0.0,0.0,0.0,0.0,0.0,0.0,0.0,0.0,0.0,0.0,0.0,0.0,0.0,0.0,0.0,0.0,0.0,0.0,0.0,0.0,0.0,0.0,0.0,0.0,0.0,0.0,0.0,0.0,0.0,0.0,0.0,0.0,0.0,0.0,0.0,0.0,0.0,0.0,0.0,0.0,0.0,0.0,0.0,0.0,0.0,0.0,0.0,0.0,0.0,0.0,0.0,0.0,0.0,0.0,0.0,0.0,0.0,0.0,0.0,0.0,0.0,0.0,0.0,0.0,0.0,0.0,0.0,0.0,0.0,0.0,0.0,0.0,0.0,0.0,0.0,0.0,0.0,0.0,0.0,0.0,0.0,0.0,0.0,0.0,0.0,0.0,0.0,0.0,0.0,0.0,0.0,0.0,0.0,0.0,0.0,0.0,0.0,0.0,0.0,0.0,0.0,0.0,0.0,0.0,0.0,0.0,0.0,0.0,0.0,0.0,0.0,0.0,0.0,0.0,0.0,0.0,0.0,0.0,0.0,0.0,0.0,0.0,0.0,0.0,0.0,0.0,0.0,0.0,0.0,0.0,0.0,0.0,0.0,0.0,0.0,0.0,0.0,0.0,0.0,0.0,0.0,0.0,0.0,0.0,0.0,0.0,0.0,0.0,0.0,0.0,0.0,0.0,0.0,0.0,0.0,0.0,0.0,0.0,0.0,0.0,0.0,0.0,0.0,0.0,0.0,0.0,0.0,0.0,0.0,0.0,0.0,0.0,0.0,0.0,0.0,0.0,0.0,0.0,0.0,0.0,0.0,0.0,0.0,0.0,0.0,0.0,0.0,0.0,0.0,0.0,0.0,0.0,0.0,0.0,0.0,0.0,0.0,0.0,0.0,0.0,0.0,0.0,0.0,0.0,0.0,0.0,0.0,0.0,0.0,0.0,0.0,0.0,0.0,0.0,0.0,0.0,0.0,0.0,0.0,0.0,0.0,0.0,0.0,0.0,0.0,0.0,0.0,0.0,0.0,0.0,0.0,0.0,0.0,0.0,0.0,0.0,0.0,0.0,0.0,0.0,0.0,0.0,0.0,0.0,0.0,0.0,0.0,0.0,0.0,0.0,0.0,0.0,0.0,0.0,0.0,0.0,0.0,0.0,0.0,0.0,0.0,0.0,0.0,0.0,0.0,0.0,0.0,0.0,0.0,0.0,0.0,0.0,0.0,0.0,0.0,0.0,0.0,0.0,0.0,0.0,0.0,0.0,0.0,0.0,0.0,0.0,0.0,0.0,0.0,0.0,0.0,0.0,0.0,0.0,0.0,0.0,0.0,0.0,0.0,0.0,0.0,0.0,0.0,0.0,0.0,0.0,0.0,0.0,0.0,0.0,0.0,0.0,0.0,0.0,0.0,0.0,0.0,0.0,0.0,0.0,0.0,0.0,0.0,0.0,0.0,0.0,0.0,0.0,0.0,0.0,0.0,0.0,0.0,0.0,0.0,0.0,0.0,0.0,0.0,0.0,0.0,0.0,0.0,0.0,0.0,0.0,0.0,0.0,0.0,0.0,0.0,0.0,0.0,0.0,0.0,0.0,0.0,0.0,0.0,0.0,0.0,0.0,0.0,0.0,0.0,0.0,0.0,0.0,0.0,0.0,0.0,0.0,0.0,0.0,0.0,0.0,0.0,0.0,0.0,0.0,0.0,0.0,0.0,0.0,0.0,0.0,0.0,0.0,0.0,0.0,0.0,0.0,0.0,0.0,0.0,0.0,0.0,0.0,0.0,0.0,0.0,0.0,0.0,0.0,0.0,0.0,0.0,0.0,0.0,0.0,0.0,0.0,0.0,0.0,0.0,0.0,0.0,0.0,0.0,0.0,0.0,0.0,0.0,0.0,0.0,0.0,0.0,0.0,0.0,0.0,0.0,0.0,0.0,0.0,0.0,0.0,0.0,0.0,0.0,0.0,0.0,0.0,0.0,0.0,0.0,0.0,0.0,0.0,0.0,0.0,0.0,0.0,0.0,0.0,0.0,0.0,0.0,0.0,0.0,0.0,0.0,0.0,0.0,0.0,0.0,0.0,0.0,0.0,0.0,0.0,0.0,0.0,0.0,0.0,0.0,0.0,0.0,0.0,0.0,0.0,0.0,0.0,0.0,0.0,0.0,0.0,0.0,0.0,0.0,0.0,0.0,0.0,0.0,0.0,0.0,0.0,0.0,0.0,0.0,0.0,0.0,0.0,0.0,0.0,0.0,0.0,0.0,0.0,0.0,0.0,0.0,0.0,0.0,0.0,0.0,0.0,0.0,0.0,0.0,0.0,0.0,0.0,0.0,0.0,0.0,0.0,0.0,0.0,0.0,0.0,0.0,0.0,0.0,0.0,0.0,0.0,0.0,0.0,0.0,0.0,0.0,0.0,0.0,0.0,0.0,0.0,0.0,0.0,0.0,0.0,0.0,0.0,0.0,0.0,0.0,0.0,0.0,0.0,0.0,0.0,0.0,0.0,0.0,0.0,0.0,0.0,0.0,0.0,0.0,0.0,0.0,0.0,0.0,0.0,0.0,0.0,0.0,0.0,0.0,0.0,0.0,0.0,0.0,0.0,0.0,0.0,0.0,0.0,0.0,0.0,0.0,0.0,0.0,0.0,0.0,0.0,0.0,0.0,0.0,0.0,0.0,0.0,0.0,0.0,0.0,0.0,0.0,0.0,0.0,0.0,0.0,0.0,0.0,0.0,0.0,0.0,0.0,0.0,0.0,0.0,0.0,0.0,0.0,0.0,0.0,0.0,0.0,0.0,0.0,0.0,0.0,0.0,0.0,0.0,0.0,0.0,0.0,0.0,0.0,0.0,0.0,0.0,0.0,0.0,0.0,0.0,0.0,0.0,0.0,0.0,0.0,0.0,0.0,0.0,0.0,0.0,0.0,0.0,0.0,0.0,0.0,0.0,0.0,0.0,0.0,0.0,0.0,0.0,0.0,0.0,0.0,0.0,0.0,0.0,0.0,0.0,0.0,0.0,0.0,0.0,0.0,0.0,0.0,0.0,0.0,0.0,0.0,0.0,0.0,0.0,0.0,0.0,0.0,0.0,0.0,0.0,0.0,0.0,0.0,0.0,0.0,0.0,0.0,0.0,0.0,0.0,0.0,0.0,0.0,0.0,0.0,0.0,0.0,0.0,0.0,0.0,0.0,0.0,0.0,0.0,0.0,0.0,0.0,0.0,0.0,0.0,0.0,0.0,0.0,0.0,0.0,0.0,0.0,0.0,0.0,0.0,0.0,0.0,0.0,0.0,0.0,0.0,0.0,0.0,0.0,0.0,0.0,0.0,0.0,0.0,0.0,0.0,0.0,0.0,0.0,0.0,0.0,0.0,0.0,0.0,0.0,0.0,0.0,0.0,0.0,0.0,0.0,0.0,0.0,0.0,0.0,0.0,0.0,0.0,0.0,0.0,0.0,0.0,0.0,0.0,0.0,0.0,0.0,0.0,0.0,0.0,0.0,0.0,0.0,0.0,0.0,0.0,0.0,0.0,0.0,0.0,0.0,0.0,0.0,0.0,0.0,0.0,0.0,0.0,0.0,0.0,0.0,0.0,0.0,0.0,0.0,0.0,0.0,0.0,0.0,0.0,0.0,0.0,0.0,0.0,0.0,0.0,0.0,0.0,0.0,0.0,0.0,0.0,0.0,0.028,0.0,0.0,0.0,0.0,0.0,0.0,0.0,0.0,0.0,0.0,0.0,0.0,0.0,0.0,0.0,0.0,0.0,0.0,0.0,0.0,0.0,0.0,0.0,0.0,0.0,0.0,0.0,0.0,0.0,0.0,0.0,0.0,0.0,0.0,0.0,0.0,0.0,0.0,0.0,0.0,0.0,0.0,0.0,0.0,0.0,0.0,0.0,0.0,0.0,0.0,0.0,0.0,0.0,0.0,0.0,0.0,0.0,0.0,0.0,0.0,0.0,0.0,0.0,0.0,0.0,0.0,0.0,0.0,0.0,0.0,0.0,0.0,0.0,0.0,0.0,0.0,0.0,0.0,0.0,0.0,0.0,0.0,0.0,0.0,0.0,0.0,0.0,0.0,0.0,0.0,0.0,0.0,0.0,0.0,0.0,0.0,0.0,0.0,0.0,0.0,0.0,0.0,0.0,0.0,0.0,0.0,0.0,0.0,0.0,0.0,0.0,0.0,0.0,0.0,0.0,0.028,0.028,0.0168,0.0,0.0,0.0,0.0,0.0,0.0,0.0,0.0,0.0,0.0,0.0,0.0,0.0,0.0,0.0,0.0,0.0,0.0,0.0,0.0,0.0,0.0,0.0,0.0,0.0,0.0,0.0,0.0,0.0,0.0,0.0,0.0,0.0,0.0,0.0,0.0,0.0,0.0,0.0,0.0,0.0,0.0,0.0,0.0,0.0,0.0,0.0,0.0,0.0,0.0,0.0,0.0,0.0,0.0,0.0,0.0,0.0,0.0,0.0,0.0,0.0,0.0,0.0,0.0,0.0,0.0,0.0,0.0,0.0,0.0,0.0,0.0,0.0,0.0,0.0,0.0,0.0,0.0,0.0,0.0,0.0,0.0,0.0,0.0,0.0,0.0,0.0,0.0,0.0,0.0,0.0,0.0,0.0,0.0,0.0,0.0,0.0,0.0,0.0,0.0,0.0,0.0,0.0,0.0,0.0,0.0,0.0,0.0,0.0,0.0,0.0,0.0,0.0962,0.0562,0.0336,0.0168,0.0056,0.0,0.0,0.0,0.0,0.0,0.0,0.0,0.0,0.0,0.0,0.0,0.0,0.0,0.0,0.0,0.0,0.0,0.0,0.0,0.0,0.0,0.0,0.0,0.0,0.0,0.0,0.0,0.0,0.0,0.0,0.0,0.0,0.0,0.0,0.0,0.0,0.0,0.0,0.0,0.0,0.0,0.0,0.0,0.0,0.0,0.0,0.0,0.0,0.0,0.0,0.0,0.0,0.0,0.0,0.0,0.0,0.0,0.0,0.0,0.0,0.0,0.0,0.0,0.0,0.0,0.0,0.0,0.0,0.0,0.0,0.0,0.0,0.0,0.0,0.0,0.0,0.0,0.0,0.0,0.0,0.0,0.0,0.0,0.0,0.0,0.0,0.0,0.0,0.0,0.0,0.0,0.0,0.0,0.0,0.0,0.0,0.0,0.0,0.0,0.0,0.0,0.0,0.0,0.0,0.0,0.0,0.0,0.0,0.0,0.0,0.19,0.102,0.0506,0.0393,0.0168,0.0056,0.0,0.0,0.0,0.0,0.0,0.0,0.0,0.0,0.0,0.0,0.0,0.0,0.0,0.0,0.0,0.0,0.0,0.0,0.0,0.0,0.0,0.0,0.0,0.0,0.0,0.0,0.0,0.0,0.0,0.0,0.0,0.0,0.0,0.0,0.0,0.0,0.0,0.0,0.0,0.0,0.0,0.0,0.0,0.0,0.0,0.0,0.0,0.0,0.0,0.0,0.0,0.0,0.0,0.0,0.0,0.0,0.0,0.0,0.0,0.0,0.0,0.0,0.0,0.0,0.0,0.0,0.0,0.0,0.0,0.0,0.0,0.0,0.0,0.0,0.0,0.0,0.0,0.0,0.0,0.0,0.0,0.0,0.0,0.0,0.0,0.0,0.0,0.0,0.0,0.0,0.0,0.0,0.0,0.0,0.0,0.0,0.0,0.0,0.0,0.0,0.0,0.0,0.0,0.0,0.0,0.0,0.0,0.0,0.0,0.2982,0.2505,0.1791,0.08,0.0685,0.0682,0.0,0.0,0.0,0.0,0.0,0.0,0.0,0.0,0.0,0.0,0.0,0.0,0.0,0.0,0.0,0.0,0.0,0.0,0.0,0.0,0.0,0.0,0.0,0.0,0.0,0.0,0.0,0.0,0.0,0.0,0.0,0.0,0.0,0.0,0.0,0.0,0.0,0.0,0.0,0.0,0.0,0.0,0.0,0.0,0.0,0.0,0.0,0.0,0.0,0.0,0.0,0.0,0.0,0.0,0.0,0.0,0.0,0.0,0.0,0.0,0.0,0.0,0.0,0.0,0.0,0.0,0.0,0.0,0.0,0.0,0.0,0.0,0.0,0.0,0.0,0.0,0.0,0.0,0.0,0.0,0.0,0.0,0.0,0.0,0.0,0.0,0.0,0.0,0.0,0.0,0.0,0.0,0.0,0.0,0.0,0.0,0.0,0.0,0.0,0.0,0.0,0.0,0.0,0.0,0.0,0.0,0.0,0.0,0.4558,0.3979,0.3708,0.304,0.1995,0.139,0.103,0.0,0.0,0.0,0.0,0.0,0.0,0.0,0.0,0.0,0.0,0.0,0.0,0.0,0.0,0.0,0.0,0.0,0.0,0.0,0.0,0.0,0.0,0.0,0.0,0.0,0.0,0.0,0.0,0.0,0.0,0.0,0.0,0.0,0.0,0.0,0.0,0.0,0.0,0.0,0.0,0.0,0.0,0.0,0.0,0.0,0.0,0.0,0.0,0.0,0.0,0.0,0.0,0.0,0.0,0.0,0.0,0.0,0.0,0.0,0.0,0.0,0.0,0.0,0.0,0.0,0.0,0.0,0.0,0.0,0.0,0.0,0.0,0.0,0.0,0.0,0.0,0.0,0.0,0.0,0.0,0.0,0.0,0.0,0.0,0.0,0.0,0.0,0.0,0.0,0.0,0.0,0.0,0.0,0.0,0.0,0.0,0.0,0.0,0.0,0.0,0.0,0.0,0.0,0.0,0.0,0.0,0.0,0.0,0.5513,0.5003,0.4711,0.4288,0.3564,0.2289,0.1442,0.0,0.0,0.0,0.0,0.0,0.0,0.0,0.0,0.0,0.0,0.0,0.0,0.0,0.0,0.0,0.0,0.0,0.0,0.0,0.0,0.0,0.0,0.0,0.0,0.0,0.0,0.0,0.0,0.0,0.0,0.0,0.0,0.0,0.0,0.0,0.0,0.0,0.0,0.0,0.0,0.0,0.0,0.0,0.0,0.0,0.0,0.0,0.0,0.0,0.0,0.0,0.0,0.0,0.0,0.0,0.0,0.0,0.0,0.0,0.0,0.0,0.0,0.0,0.0,0.0,0.0,0.0,0.0,0.0,0.0,0.0,0.0,0.0,0.0,0.0,0.0,0.0,0.0,0.0,0.0,0.0,0.0,0.0,0.0,0.0,0.0,0.0,0.0,0.0,0.0,0.0,0.0,0.0,0.0,0.0,0.0,0.0,0.0,0.0,0.0,0.0,0.0,0.0,0.0,0.0,0.0,0.0,0.0,0.6489,0.6061,0.6025,0.5533,0.4597,0.3554,0.2773,0.0,0.0,0.0,0.0,0.0,0.0,0.0,0.0,0.0,0.0,0.0,0.0,0.0,0.0,0.0,0.0,0.0,0.0,0.0,0.0,0.0,0.0,0.0,0.0,0.0,0.0,0.0,0.0,0.0,0.0,0.0,0.0,0.0,0.0,0.0,0.0,0.0,0.0,0.0,0.0,0.0,0.0,0.0,0.0,0.0,0.0,0.0,0.0,1.9931,0.0,0.0,0.0,0.0,0.0,0.0,0.0,0.0,0.0,0.0,0.0,0.0,0.0,0.0,0.0,0.0,0.0,0.0,0.0,0.0,0.0,0.0,0.0,0.0,0.0,0.0,0.0,0.0,0.0,0.0,0.0,0.0,0.0,0.0,0.0,0.0,0.0,0.0,0.0,0.0,0.0,0.0,0.0,0.0,0.0,0.0,0.0,0.0,0.0,0.0,0.0,0.0,0.0,0.0,0.0,0.0,0.0,0.0,0.0,0.7334,0.7128,0.6954,0.6464,0.56,0.5072,0.432,0.0,0.0,0.0,0.0,0.0,0.0,0.0,0.0,0.0,0.0,0.0,0.0,0.0,0.0,0.0,0.0,0.0,0.0,0.0,0.0,0.0,0.0,0.0,0.0,0.0,0.0,0.0,0.0,0.0,0.0,0.0,0.0,0.0,0.0,0.0,0.0,0.0,0.0,0.0,0.0,0.0,0.0,0.0,0.0,0.0,0.0,0.0,0.0,0.0,0.0,0.0,0.0,0.0,0.0,0.0,0.0,0.0,0.0,0.0,0.0,0.0,0.0,0.0,0.0,0.0,0.0,0.0,0.0,0.0,0.0,0.0,0.0,0.0,0.0,0.0,0.0,0.0,0.0,0.0,0.0,0.0,0.0,0.0,0.0,0.0,0.0,0.0,0.0,0.0,0.0,0.0,0.0,0.0,0.0,0.0,0.0,0.0,0.0,0.0,0.0,0.0,0.0,0.0,0.0,0.0,0.0,0.0,0.8273,0.8106,0.8041,0.7752,0.7322,0.6707,0.6693,0.5935,0.442,0.0,0.0,0.0,0.0,0.0,0.0,0.0,0.0,0.0,0.0,0.0,0.0,0.0,0.0,0.0,0.0,0.0,0.0,0.0,0.0,0.0,0.0,0.0,0.0,0.0,0.0,0.0,0.0,0.0,0.0,0.0,0.0,0.0,0.0,0.0,0.0,0.0,0.0,1.8704,1.9422,0.0,0.0,0.0,0.0,0.0,0.0,0.0,0.0,2.078,0.0,0.0,0.0,0.0,0.0,0.0,0.0,0.0,0.0,0.0,0.0,0.0,0.0,0.0,0.0,0.0,0.0,0.0,0.0,0.0,0.0,0.0,0.0,0.0,0.0,0.0,0.0,0.0,0.0,0.0,0.0,0.0,0.0,0.0,0.0,0.0,0.0,0.0,0.0,0.0,0.0,0.0,0.0,0.0,0.0,0.0,0.0,0.0,0.0,0.0,0.0,0.0,0.0,0.0,0.0,0.0,0.8852,0.8803,0.876,0.8723,0.8671,0.8482,0.8111,0.7895,0.7541,0.6881,0.0,0.0,0.0,0.0,0.0,0.0,0.0,0.0,0.0,0.0,0.0,0.0,0.0,0.0,0.0,0.0,0.0,0.0,0.0,0.0,0.0,0.0,0.0,0.0,0.0,0.0,0.0,0.0,0.0,0.0,0.0,0.0,0.0,0.0,0.0,0.0,0.0,0.0,0.0,2.0127,2.0213,0.0,0.0,0.0,0.0,0.0,0.0,0.0,0.0,2.1089,0.0,0.0,0.0,0.0,0.0,0.0,0.0,0.0,0.0,0.0,0.0,0.0,0.0,0.0,0.0,0.0,0.0,0.0,0.0,0.0,0.0,0.0,0.0,0.0,0.0,0.0,0.0,0.0,0.0,0.0,0.0,0.0,0.0,0.0,0.0,0.0,0.0,0.0,0.0,0.0,0.0,0.0,0.0,0.0,0.0,0.0,0.0,0.0,0.0,0.0,0.0,0.0,0.0,0.0,0.0,0.9084,0.9109,0.9078,0.9042,0.9057,0.8936,0.8503,0.8381,0.8201,0.0,0.0,0.0,0.0,0.0,0.0,0.0,0.0,0.0,0.0,0.0,0.0,0.0,0.0,0.0,0.0,0.0,0.0,0.0,0.0,0.0,0.0,0.0,0.0,0.0,0.0,0.0,0.0,0.0,0.0,0.0,0.0,0.0,0.0,0.0,0.0,0.0,0.0,0.0,0.0,2.0493,2.0558,2.0737,0.0,0.0,0.0,0.0,0.0,0.0,2.1211,2.1211,0.0,0.0,0.0,0.0,0.0,0.0,0.0,0.0,0.0,0.0,0.0,0.0,0.0,0.0,0.0,0.0,0.0,0.0,0.0,0.0,0.0,0.0,0.0,0.0,0.0,0.0,0.0,0.0,0.0,0.0,0.0,0.0,0.0,0.0,0.0,0.0,0.0,0.0,0.0,0.0,0.0,0.0,0.0,0.0,0.0,0.0,0.0,0.0,0.0,0.0,0.0,0.0,0.0,0.0,0.0,0.9207,0.933,0.9288,0.9193,0.9254,0.9137,0.8788,0.8754,0.8641,0.0,0.0,0.0,0.0,0.0,0.0,0.0,0.0,0.0,0.0,0.0,0.0,0.0,0.0,0.0,0.0,0.0,0.0,0.0,0.0,0.0,0.0,0.0,0.0,0.0,0.0,0.0,0.0,0.0,0.0,0.0,0.0,0.0,0.0,0.0,0.0,0.0,0.0,0.0,0.0,0.0,2.0902,2.1153,2.1211,0.0,0.0,0.0,0.0,2.1211,2.1211,0.0,0.0,0.0,0.0,0.0,0.0,0.0,0.0,0.0,0.0,0.0,0.0,0.0,0.0,0.0,0.0,0.0,0.0,0.0,0.0,0.0,0.0,0.0,0.0,0.0,0.0,0.0,0.0,0.0,0.0,0.0,0.0,0.0,0.0,0.0,0.0,0.0,0.0,0.0,0.0,0.0,0.0,0.0,0.0,0.0,0.0,0.0,0.0,0.0,0.0,0.0,0.0,0.0,0.0,0.0,0.0,0.9204,0.9224,0.9252,0.934,0.9363,0.9367,0.9288,0.9219,0.9131,0.0,0.0,0.0,0.0,0.0,0.0,0.0,0.0,0.0,0.0,0.0,0.0,0.0,0.0,0.0,0.0,0.0,0.0,0.0,0.0,0.0,0.0,0.0,0.0,0.0,0.0,0.0,0.0,0.0,0.0,0.0,0.0,0.0,0.0,0.0,0.0,0.0,0.0,0.0,0.0,0.0,2.1146,2.1203,2.1211,2.1211,0.0,0.0,2.1211,2.1211,2.1211,0.0,0.0,0.0,0.0,0.0,0.0,0.0,0.0,0.0,0.0,0.0,0.0,0.0,0.0,0.0,0.0,0.0,0.0,0.0,0.0,0.0,0.0,0.0,0.0,0.0,0.0,0.0,0.0,0.0,0.0,0.0,0.0,0.0,0.0,0.0,0.0,0.0,0.0,0.0,0.0,0.0,0.0,0.0,0.0,0.0,0.0,0.0,0.0,0.0,0.0,0.0,0.0,0.0,0.0,0.0,0.9245,0.9311,0.9564,0.9646,0.977,0.9856,0.986,0.9774,0.9702,0.9624,0.0,0.0,0.0,0.0,0.0,0.0,0.0,0.0,0.0,0.0,0.0,0.0,0.0,0.0,0.0,0.0,0.0,0.0,0.0,0.0,0.0,0.0,0.0,0.0,0.0,0.0,0.0,0.0,0.0,0.0,0.0,0.0,0.0,0.0,0.0,0.0,0.0,0.0,0.0,0.0,0.0,0.0,2.1717,2.1603,0.0,0.0,0.0,2.1211,2.1211,0.0,0.0,0.0,0.0,0.0,0.0,0.0,0.0,0.0,0.0,0.0,0.0,0.0,0.0,0.0,0.0,0.0,0.0,0.0,0.0,0.0,0.0,0.0,0.0,0.0,0.0,0.0,0.0,0.0,0.0,0.0,0.0,0.0,0.0,0.0,0.0,0.0,0.0,0.0,0.0,0.0,0.0,0.0,0.0,0.0,0.0,0.0,0.0,0.0,0.0,0.0,0.0,0.0,0.0,0.0,0.0,0.0,0.9489,0.9887,1.0059,1.0066,1.0288,1.0349,1.0175,1.0171,0.0,0.0,0.0,0.0,0.0,0.0,0.0,0.0,0.0,0.0,0.0,0.0,0.0,0.0,0.0,0.0,0.0,0.0,0.0,0.0,0.0,0.0,0.0,0.0,0.0,0.0,0.0,1.6258,0.0,0.0,0.0,0.0,0.0,0.0,0.0,0.0,0.0,0.0,0.0,0.0,0.0,0.0,2.2108,2.2108,2.1945,2.1774,0.0,0.0,2.1432,2.1439,2.1439,2.1489,0.0,0.0,0.0,0.0,0.0,0.0,0.0,0.0,0.0,0.0,0.0,0.0,0.0,0.0,0.0,0.0,0.0,0.0,0.0,0.0,0.0,0.0,0.0,0.0,0.0,0.0,0.0,0.0,0.0,0.0,0.0,0.0,0.0,0.0,0.0,0.0,0.0,0.0,0.0,0.0,0.0,0.0,0.0,0.0,0.0,0.0,0.0,0.0,0.0,0.0,0.0,0.0,0.0,0.0,0.9761,0.9761,1.0103,1.0276,1.0272,1.0555,1.0665,1.0657,1.0657,1.0539,0.0,0.0,0.0,0.0,0.0,0.0,0.0,0.0,0.0,0.0,0.0,0.0,0.0,0.0,0.0,0.0,0.0,0.0,0.0,0.0,0.0,0.0,0.0,0.0,0.0,0.0,0.0,0.0,0.0,0.0,0.0,0.0,0.0,0.0,0.0,0.0,0.0,0.0,0.0,0.0,0.0,2.2108,2.2108,2.2116,2.2051,0.0,2.2059,2.2051,2.2059,2.2059,2.2059,2.2059,0.0,0.0,0.0,0.0,0.0,0.0,0.0,0.0,0.0,0.0,0.0,0.0,0.0,0.0,0.0,0.0,0.0,0.0,0.0,0.0,0.0,0.0,0.0,0.0,0.0,0.0,0.0,0.0,0.0,0.0,0.0,0.0,0.0,0.0,0.0,0.0,0.0,0.0,0.0,0.0,0.0,0.0,0.0,0.0,0.0,0.0,0.0,0.0,0.0,0.0,0.0,0.0,0.0,1.0417,1.0637,1.1076,1.135,1.135,1.1618,1.1728,1.1782,1.1728,1.1623,0.0,0.0,0.0,0.0,0.0,0.0,0.0,0.0,0.0,0.0,0.0,0.0,0.0,0.0,0.0,0.0,0.0,0.0,0.0,0.0,0.0,0.0,0.0,0.0,0.0,0.0,0.0,0.0,1.8167,1.8712,1.9123,0.0,0.0,0.0,0.0,0.0,0.0,0.0,0.0,0.0,0.0,2.3247,2.3183,2.2901,0.0,0.0,2.2335,2.2108,2.2108,2.2279,2.2449,2.2626,2.2497,0.0,0.0,0.0,0.0,0.0,0.0,0.0,0.0,0.0,0.0,0.0,0.0,0.0,0.0,0.0,0.0,0.0,0.0,0.0,0.0,0.0,0.0,0.0,0.0,0.0,0.0,0.0,0.0,0.0,0.0,0.0,0.0,0.0,0.0,0.0,0.0,0.0,0.0,0.0,0.0,0.0,0.0,0.0,0.0,0.0,0.0,0.0,0.0,0.0,0.0,0.0,0.0,1.1236,1.1509,1.2114,1.2387,1.2382,1.2762,1.2925,1.2925,1.2925,1.2767,0.0,0.0,0.0,0.0,0.0,0.0,0.0,0.0,0.0,0.0,0.0,0.0,0.0,0.0,0.0,0.0,0.0,0.0,0.0,0.0,0.0,0.0,0.0,0.0,0.0,0.0,0.0,0.0,1.8593,1.9123,1.9376,0.0,0.0,0.0,0.0,0.0,0.0,0.0,0.0,0.0,0.0,2.4144,2.408,2.3697,2.336,2.3304,2.2901,2.2619,2.2619,2.2853,2.307,2.3352,0.0,0.0,0.0,0.0,0.0,0.0,0.0,0.0,0.0,0.0,0.0,0.0,0.0,0.0,0.0,0.0,0.0,0.0,0.0,0.0,0.0,0.0,0.0,0.0,0.0,0.0,0.0,0.0,0.0,0.0,0.9761,0.0,0.0,0.0,0.0,0.0,0.0,0.0,0.0,0.0,0.0,0.0,0.0,0.0,0.0,0.0,0.0,0.0,0.0,0.0,0.0,0.0,0.0,1.2114,1.2382,1.2985,1.3261,1.3261,1.3846,1.4169,1.4164,1.4169,1.39,1.3315,0.0,0.0,0.0,0.0,0.0,0.0,0.0,0.0,0.0,0.0,0.0,0.0,0.0,0.0,0.0,0.0,0.0,0.0,0.0,0.0,0.0,0.0,0.0,0.0,0.0,0.0,1.8764,1.9123,1.9376,0.0,0.0,0.0,0.0,0.0,0.0,0.0,0.0,0.0,0.0,2.4144,2.4676,2.4423,2.4384,2.4264,2.3921,2.3857,2.3865,2.3865,2.3857,2.3977,0.0,0.0,0.0,0.0,0.0,0.0,0.0,0.0,0.0,0.0,0.0,0.0,0.0,0.0,0.0,0.0,0.0,0.0,0.0,0.0,0.0,0.0,0.0,0.0,0.0,0.0,0.0,1.0692,1.0692,0.0,0.0,0.0,0.0,0.0,0.0,0.0,0.0,0.0,0.0,0.0,1.2876,1.3359,0.0,0.0,0.0,0.0,0.0,0.0,0.0,0.0,0.0,0.0,0.0,0.0,1.3093,1.357,1.3959,1.4175,1.4175,1.4552,1.4767,1.4708,1.4761,1.4552,1.4169,0.0,0.0,0.0,0.0,0.0,0.0,0.0,0.0,0.0,0.0,0.0,0.0,0.0,0.0,0.0,0.0,0.0,0.0,0.0,0.0,0.0,0.0,0.0,0.0,0.0,1.8757,0.0,0.0,0.0,0.0,0.0,0.0,0.0,0.0,0.0,0.0,0.0,2.3665,2.4035,2.4858,2.5348,2.5247,2.5081,2.4898,0.0,0.0,0.0,0.0,0.0,0.0,0.0,0.0,0.0,0.0,0.0,0.0,0.0,0.0,2.5496,2.4615,2.4666,2.4805,2.4805,0.0,0.0,0.0,0.0,0.0,0.0,0.0,0.0,0.0,0.0,0.0,0.0,0.0,0.0,1.1564,0.0,1.1564,0.0,0.0,0.0,0.0,0.0,0.0,0.0,0.0,1.3364,1.3743,1.3802,1.4385,1.4595,0.0,1.4595,1.4218,0.0,0.0,0.0,0.0,0.0,0.0,0.0,0.0,1.4067,1.4654,1.4928,1.5083,1.519,1.5464,1.5565,1.5618,1.5517,1.5357,1.5196,1.4863,1.4654,0.0,0.0,0.0,0.0,0.0,0.0,0.0,0.0,0.0,0.0,0.0,0.0,0.0,0.0,0.0,0.0,0.0,0.0,0.0,0.0,0.0,0.0,0.0,1.922,0.0,0.0,0.0,0.0,0.0,0.0,0.0,0.0,0.0,2.2476,2.3375,2.4244,2.4761,2.5558,2.6073,2.6154,0.0,0.0,0.0,0.0,0.0,0.0,0.0,2.5716,2.5826,2.6172,2.65,2.6718,2.7047,2.7294,2.7422,0.0,0.0,2.5975,2.5924,2.6126,2.6073,2.6073,2.6073,2.6073,2.6296,2.6528,0.0,0.0,0.0,0.0,0.0,0.0,0.0,0.0,1.2436,1.2491,0.0,1.2491,0.0,0.0,0.0,0.0,0.0,1.3207,0.0,0.0,1.439,1.4659,1.4708,1.5238,1.5351,1.5089,1.5405,1.5351,1.5035,1.4546,0.0,0.0,0.0,0.0,0.0,0.0,1.4922,1.5506,1.5779,1.6051,1.6271,1.6524,1.6677,1.6683,1.6424,1.6277,1.6277,1.5779,1.5506,1.5506,1.5559,0.0,0.0,0.0,0.0,0.0,0.0,0.0,0.0,0.0,0.0,0.0,0.0,0.0,0.0,0.0,0.0,0.0,0.0,0.0,0.0,1.9376,0.0,0.0,0.0,0.0,0.0,0.0,0.0,0.0,0.0,0.0,2.2577,2.3845,2.4895,2.5368,0.0,0.0,0.0,0.0,2.6926,2.6654,2.66,2.66,2.6609,2.6663,2.6708,2.6989,0.0,0.0,2.7901,2.8282,2.8662,2.8955,2.9544,2.9463,2.7493,2.7352,2.7523,2.7523,2.7523,2.7523,2.7514,2.7596,2.772,1.4326,0.0,0.0,0.0,0.0,1.3678,1.3678,1.3684,1.3684,1.3684,1.3684,1.3684,0.0,0.0,0.0,0.0,0.0,0.0,1.439,1.4665,1.5244,1.5624,1.5844,1.6199,1.6305,1.6258,1.6305,1.6311,1.6205,1.6033,1.5719,1.5131,0.0,0.0,0.0,0.0,1.5998,1.6358,1.6411,1.6524,1.6577,1.6677,1.667,1.667,1.663,1.6577,1.6577,1.6411,1.6365,1.6358,1.6358,0.0,0.0,0.0,0.0,0.0,0.0,0.0,0.0,0.0,0.0,0.0,0.0,0.0,0.0,0.0,0.0,0.0,0.0,0.0,1.9428,1.9628,1.9776,0.0,0.0,0.0,0.0,0.0,0.0,0.0,0.0,0.0,2.3637,2.4545,2.538,0.0,0.0,2.7245,2.7305,2.7314,2.7269,2.7152,2.7152,0.0,2.7152,2.7368,2.7574,2.7638,2.8211,2.8947,2.9645,2.9868,2.9948,3.0068,3.0214,3.0158,2.9674,2.9539,2.9594,2.9584,2.9594,2.9594,2.9594,2.9594,2.9624,1.566,1.5185,1.4708,1.4493,1.4493,1.4546,1.4498,1.4493,1.4493,1.4493,1.4546,1.4546,1.4493,1.4546,1.4546,0.0,0.0,0.0,1.5244,1.5523,1.5998,1.6311,1.6477,1.6796,1.6842,1.667,1.6842,1.6842,1.667,1.667,1.6524,1.6146,0.0,0.0,1.6418,1.6477,1.6577,1.6895,1.6895,1.6948,1.7047,1.7047,1.7047,1.7047,1.7047,1.7054,1.7054,1.6948,1.6895,1.6895,1.6895,1.6895,0.0,0.0,0.0,0.0,0.0,0.0,0.0,0.0,0.0,0.0,0.0,1.8003,1.8167,0.0,0.0,0.0,1.8959,1.9376,1.9835,2.0034,0.0,0.0,0.0,0.0,0.0,0.0,0.0,2.3079,2.3728,2.4297,2.4812,2.547,2.5975,2.6336,2.7022,2.7563,2.7736,0.0,2.7809,2.7916,2.7916,2.797,2.8067,2.8428,2.8702,2.8888,2.9441,3.0018,3.051,3.0822,3.0954,3.1096,3.1218,3.1396,3.1396,3.134,3.1152,3.0606,3.047,3.047,3.047,3.047,3.051,1.673,1.663,1.5571,1.5143,1.5143,1.5143,1.5137,1.5143,1.5143,1.5137,1.5143,1.5143,1.5143,1.5148,1.5143,0.0,1.5613,1.5832,1.6105,1.6383,1.663,1.673,1.6789,1.706,1.706,1.6789,1.7067,1.706,1.6783,1.6776,1.6948,1.7232,1.6948,1.6783,1.6789,1.6783,1.6948,1.7232,1.7226,1.7384,1.7635,1.7641,1.7635,1.7635,1.7687,1.7687,1.7635,1.743,1.7285,1.7285,1.7279,1.7285,1.7338,0.0,0.0,0.0,0.0,0.0,0.0,0.0,0.0,0.0,0.0,0.0,0.0,0.0,0.0,0.0,1.9428,0.0,2.0138,2.0609,0.0,0.0,0.0,2.1971,2.2476,2.2568,2.3038,2.4031,0.0,0.0,2.5918,2.6442,2.6702,2.6692,2.7276,2.7904,2.8295,2.8301,2.8408,2.8674,2.8737,2.8791,2.902,2.9521,2.9997,3.0454,3.0631,3.0762,3.1054,3.1406,3.1784,3.1983,3.239,3.2649,3.2659,3.2607,3.2298,3.0984,3.0722,3.0711,3.0752,3.0817,3.0929,1.6902,1.6677,1.6411,1.6311,1.6311,1.6311,1.6311,1.6305,1.6305,1.6311,1.6305,1.6311,1.6311,1.6311,1.6311,1.6358,1.6411,1.6465,1.6683,1.7014,1.7067,1.7219,1.7371,1.7477,1.7477,1.7424,1.7477,1.7477,1.7371,1.7371,1.7424,1.7477,1.7424,1.7371,1.7424,1.7364,1.7424,1.7477,1.7536,1.7641,1.7911,1.7911,1.801,1.8213,1.8213,1.8213,1.8213,1.8167,1.8108,1.8115,1.8115,1.8115,1.8108,1.822,0.0,0.0,0.0,0.0,0.0,0.0,0.0,0.0,0.0,1.881,1.8757,0.0,1.9532,0.0,1.9835,2.0189,2.0652,2.0822,0.0,0.0,2.2123,2.2426,2.2778,2.3329,2.3954,2.4556,2.5155,2.5777,2.64,2.703,2.7458,2.7467,2.7881,2.829,2.8558,2.8631,2.8674,2.893,2.9036,2.9156,2.9605,3.0225,3.0891,3.1517,3.1655,3.1768,3.2231,3.2365,3.2447,3.2514,3.2587,3.2669,3.2669,3.2669,3.2607,3.2277,3.2179,3.2169,3.2169,3.2169,3.22,1.7272,1.7107,1.7107,1.71,1.7047,1.6836,1.667,1.667,1.667,1.667,1.667,1.667,1.667,1.667,1.667,1.6789,1.6902,1.6902,1.706,1.7384,1.7378,1.743,1.7589,1.7589,1.7589,1.7589,1.7589,1.7589,1.7589,1.7589,1.7589,1.7589,1.7589,1.7635,1.7799,1.7635,1.7635,1.7799,1.7898,1.8003,1.8174,1.8325,1.8422,1.8572,1.8743,1.8795,1.8803,1.8788,1.8795,1.8788,1.8795,1.8795,1.8795,1.8945,1.8997,0.0,0.0,0.0,0.0,0.0,0.0,0.0,0.0,0.0,0.0,0.0,1.9983,2.0197,2.0403,2.0652,2.1224,2.1471,2.1776,2.2232,2.2841,2.33,2.3687,2.4312,2.4919,2.5549,2.5993,2.6471,2.704,2.7458,2.7796,2.8078,2.8314,2.8514,2.8684,2.8791,2.8983,2.929,2.9343,2.9629,3.0377,3.1021,3.1583,3.2173,3.2297,3.239,3.2628,3.2669,3.2669,3.2669,3.2669,3.2669,3.2669,3.2669,3.2669,3.2669,3.2669,3.2669,3.2669,3.2669,3.2669,1.7589,1.7589,1.7589,1.7589,1.7529,1.7047,1.6842,1.6783,1.6836,1.6783,1.6842,1.6836,1.6836,1.6783,1.6836,1.7008,1.7226,1.7226,1.7384,1.7582,1.7589,1.7589,1.7589,1.7589,1.7589,1.7589,1.7589,1.7589,1.7589,1.7589,1.7635,1.7635,1.7635,1.7799,1.8016,1.7845,1.7845,1.8069,1.8318,1.8475,1.8527,1.8781,1.893,1.9034,1.9316,1.9487,1.948,1.948,1.948,1.9487,1.9487,1.948,1.948,1.9739,1.9835,0.0,2.0086,0.0,0.0,0.0,0.0,0.0,0.0,0.0,0.0,2.0241,2.047,2.104,2.1083,2.1356,2.1917,2.2418,2.2782,2.2892,2.3655,2.438,2.4882,2.5297,2.5857,2.6618,2.6731,2.6998,2.7676,2.7796,2.8006,2.8532,2.8717,2.8771,2.8834,2.9036,2.929,2.9606,2.971,3.0122,3.0972,3.1616,3.2091,3.2473,3.2607,3.2669,3.2669,3.2669,3.2669,3.2669,3.2669,3.2669,3.2669,3.2669,3.2669,3.2669,3.2669,3.2669,3.2669,3.2669,3.2669,1.7589,1.7589,1.7589,1.7589,1.7589,1.7477,1.7424,1.7424,1.7424,1.7424,1.7424,1.7424,1.7424,1.7424,1.7424,1.747,1.7536,1.7529,1.7582,1.7589,1.7589,1.7589,1.7589,1.7589,1.7589,1.7589,1.7589,1.7589,1.7589,1.7589,1.7694,1.7911,1.7911,1.8062,1.8325,0.0,0.0,0.0,1.8572,1.884,1.9116,1.942,1.9732,2.0153,2.0256,0.0,2.0565,2.0617,2.0609,2.0617,2.0617,0.0,0.0,0.0,0.0,0.0,0.0,0.0,0.0,0.0,0.0,0.0,2.142,2.1216,2.0814,2.0968,2.1345,2.1947,2.2214,2.2634,2.326,2.3669,2.4148,2.4781,2.4999,2.5356,2.5853,2.6186,2.6563,2.7064,2.7331,2.7653,2.8076,2.8174,2.831,2.8654,2.8877,2.9142,2.9396,2.9448,2.9606,2.99,3.0168,3.0531,3.0791,3.1495,3.1977,3.2153,3.2452,3.2638,3.2669,3.2669,3.2669,3.2669,3.2669,3.2669,3.2669,3.2669,3.2669,3.2669,3.2669,3.2669,3.2669,3.2669,3.2669,1.7589,0.0,1.7589,1.7589,0.0,1.7589,1.7589,1.7589,1.7589,1.7589,1.7589,1.7589,1.7589,1.7589,1.7589,1.7589,1.7589,1.7589,1.7589,1.7589,1.7589,1.7589,1.7589,1.7589,1.7589,1.7589,1.7589,1.7589,1.7582,1.7747,1.7852,1.8016,1.8272,1.8534,1.8855,1.9361,1.9413,1.9056,1.9413,1.9724,1.9894,2.03,2.0712,2.107,2.1232,0.0,0.0,0.0,0.0,0.0,0.0,0.0,0.0,0.0,0.0,2.1666,2.1674,2.1776,2.1878,2.2021,2.2173,2.2274,2.2434,2.2182,2.1377,2.1737,2.2175,2.2634,2.3167,2.3617,2.4123,2.4526,2.4954,2.5372,2.5807,2.6242,2.6669,2.7041,2.741,2.7709,2.7916,2.8066,2.8262,2.8451,2.8611,2.8877,2.9195,2.9448,2.9722,2.9774,2.9879,3.0005,3.0387,3.0688,3.0739,3.1226,3.1816,3.1957,3.2184,3.2411,3.2638,3.2669,3.2669,3.2669,3.2669,3.2669,3.2669,3.2669,3.2669,3.2669,3.2669,3.2669,3.2669,3.2669,3.2669,1.7589,1.7589,1.7589,1.7589,1.7589,1.7589,1.7589,1.7589,0.0,0.0,0.0,1.7589,1.7589,1.7589,1.7589,1.7589,1.7589,1.7589,1.7589,1.7589,1.7589,1.7589,1.7589,1.7589,1.7589,1.7589,1.7589,1.7628,1.7694,1.7905,1.8069,1.8279,1.8677,1.9146,1.9576,2.0308,2.0514,2.0138,2.0514,2.0719,2.0719,2.1232,2.1623,2.192,2.2123,2.2375,2.2677,2.2677,2.2686,2.2719,2.2669,2.2627,2.2686,2.2636,2.2677,2.2728,2.2719,2.2728,2.2778,2.297,2.3129,2.3079,2.3388,2.3088,2.208,2.2562,2.3074,2.3315,2.4027,2.465,2.4924,2.5425,2.5792,2.5845,2.6563,2.7141,2.7415,2.7738,2.8038,2.8237,2.8271,2.8291,2.8291,2.8514,2.8781,2.9079,2.9343,2.9711,2.9942,2.9994,2.9994,3.0025,3.0294,3.0543,3.0615,3.0946,3.1381,3.1605,3.1843,3.2132,3.2442,3.2618,3.2669,3.2669,3.2669,3.2669,3.2669,3.2669,3.2669,3.2669,3.2669,3.2669,3.2669,3.2669,3.2669,1.7589,1.7589,1.7589,1.7589,1.7589,1.7589,1.7589,1.7589,1.7589,1.7589,1.7589,1.7589,1.7589,1.7589,1.7589,1.7589,1.7589,1.7589,1.7589,1.7589,1.7589,1.7589,1.7589,1.7589,1.7589,1.7589,1.7589,1.7747,1.7911,1.7964,1.8384,1.9063,1.922,1.9732,2.066,2.1216,2.1623,2.1776,2.1623,2.1522,2.153,2.208,2.2476,2.2728,2.2778,2.3029,2.3529,2.3397,2.3338,2.3529,2.3388,2.3247,2.3247,2.3288,2.3347,2.3529,2.3529,2.3628,2.3827,2.3926,2.3935,2.3926,2.3985,2.3786,2.3206,2.3558,2.3919,2.4289,2.5154,2.5916,2.6325,2.6784,2.7141,2.7428,2.7655,2.7873,2.8077,2.8179,2.8237,2.8291,2.8301,2.8291,2.8344,2.8568,2.8824,2.9079,2.9448,2.9722,2.9942,2.9994,2.9994,2.9994,3.0036,3.0087,3.0191,3.0481,3.0812,3.0864,3.1526,3.1926,3.2112,3.2401,3.2607,3.2669,3.2669,3.2669,3.2669,3.2669,3.2669,3.2669,3.2669,3.2669,3.2669,3.2669,3.2669,1.7589,1.7589,1.7589,1.7589,1.7589,1.7589,1.7589,1.7589,1.7589,1.7589,1.7589,1.7589,1.7589,1.7589,1.7589,1.7589,1.7589,1.7589,1.7589,1.7589,1.7589,1.7589,1.7589,1.7589,1.7687,1.7799,1.7799,1.7964,1.822,1.8541,1.9011,1.9532,2.0248,2.1011,2.1725,2.2173,2.2568,2.2929,2.2577,2.2426,2.2577,2.2979,2.3329,2.3786,2.3777,2.3926,2.4332,2.4291,2.4233,2.4332,2.4291,2.4192,2.4192,2.4192,2.4242,2.4332,2.4332,2.4381,2.4529,2.4538,2.4529,2.4529,2.4538,2.4582,2.4605,2.484,2.5149,2.5532,2.6254,2.6838,2.7025,2.7422,2.7745,2.7906,2.8014,2.8184,2.8291,2.8301,2.8301,2.8301,2.8301,2.8354,2.8514,2.8717,2.9036,2.9343,2.9617,2.9879,2.9994,2.9994,2.9994,2.9994,2.9994,2.9994,3.0015,3.0149,3.0398,3.0636,3.1019,3.1495,3.1833,3.2194,3.2437,3.2618,3.2669,3.2669,3.2669,3.2669,3.2669,3.2669,3.2669,3.2669,3.2669,3.2669,3.2669,1.7635,1.7589,1.7589,1.7589,1.7589,1.7589,1.7589,1.7589,1.7589,1.7589,1.7589,1.7589,1.7589,1.7589,1.7589,1.7589,1.7589,1.7589,1.7589,1.7589,1.7589,1.7589,1.7635,1.7635,1.7799,1.8016,1.8122,1.8318,1.8639,1.916,1.9732,2.0241,2.1318,2.2123,2.2686,2.2979,2.3429,2.3827,2.3529,2.342,2.3587,2.3827,2.4174,2.4529,2.4587,2.4726,2.4981,2.4932,2.4932,2.4981,2.4932,2.4892,2.4892,2.4892,2.4932,2.499,2.499,2.503,2.5088,2.5079,2.5079,2.5088,2.5088,2.526,2.5688,2.5986,2.6196,2.6514,2.7059,2.752,2.753,2.7799,2.796,2.8014,2.8174,2.8291,2.8301,2.8301,2.8301,2.8301,2.8301,2.8398,2.8674,2.893,2.9237,2.9617,2.9889,2.9994,2.9994,2.9994,2.9994,2.9994,2.9994,2.9994,2.9994,3.0005,3.016,3.0491,3.0646,3.1019,3.1547,3.1781,3.2081,3.2421,3.2607,3.2659,3.2669,3.2669,3.2669,3.2669,3.2669,3.2669,3.2669,3.2669,3.2669,1.7799,1.7635,1.7641,1.7589,1.7589,1.7589,1.7589,1.7589,1.7589,1.7589,1.7589,1.7589,1.7589,1.7589,1.7589,1.7589,1.7589,1.7589,1.7589,1.7589,1.7589,1.7589,1.7641,1.7852,1.7964,1.8069,1.8475,1.8893,1.9264,1.9776,2.0542,2.1471,2.2123,2.2719,2.3229,2.3728,2.4134,2.443,2.4627,2.4587,2.443,2.4627,2.4784,2.4833,2.4883,2.499,2.5226,2.503,2.5039,2.5235,2.503,2.4892,2.4892,2.4892,2.5039,2.5226,2.5235,2.5382,2.5586,2.5645,2.5586,2.5635,2.5586,2.5771,2.6248,2.6666,2.6827,2.6936,2.7452,2.7843,2.7906,2.8067,2.8237,2.8237,2.8237,2.8301,2.8301,2.8301,2.8301,2.8301,2.8291,2.8398,2.8674,2.8973,2.9343,2.9837,2.9942,2.9994,2.9994,2.9994,2.9994,2.9994,2.9994,2.9994,2.9994,2.9994,3.0046,3.0118,3.0419,3.0719,3.1008,3.1516,3.2029,3.2132,3.239,3.2587,3.2669,3.2669,3.2669,3.2669,3.2669,3.2669,3.2669,3.2669,3.2669,1.8069,1.7859,1.7852,1.7747,1.7635,1.7589,1.7589,1.7589,1.7589,1.7589,1.7589,1.7589,1.7589,1.7589,1.7589,1.7589,1.7589,1.7589,1.7589,1.7589,1.7589,1.7589,1.7641,1.7859,1.8167,1.8475,1.8893,1.9428,2.005,2.0858,2.1658,2.2426,2.3088,2.3578,2.3836,2.4332,2.4735,2.4981,2.5088,2.5137,2.5177,2.5137,2.5186,2.5333,2.5382,2.543,2.5489,2.544,2.544,2.5538,2.543,2.5382,2.5391,2.5391,2.544,2.5538,2.5538,2.5586,2.5684,2.5684,2.5684,2.5684,2.5684,2.5928,2.6338,2.6553,2.6822,2.7317,2.7825,2.8121,2.8121,2.8237,2.8301,2.8301,2.8301,2.8301,2.8301,2.8301,2.8301,2.8291,2.8408,2.8621,2.893,2.9353,2.9722,2.9942,2.9994,2.9994,2.9994,2.9994,2.9994,2.9994,2.9994,2.9994,2.9994,2.9994,2.9994,3.0036,3.0149,3.0315,3.0688,3.0905,3.1371,3.1843,3.2142,3.2411,3.2638,3.2659,3.2669,3.2727,3.2669,3.2669,3.2669,3.2669,3.2669,1.8429,1.8122,1.8016,1.7859,1.7589,1.7589,1.7635,1.7687,1.7694,1.774,1.7793,1.774,1.7694,1.7694,1.7641,1.7589,1.7589,1.7589,1.7589,1.7589,1.7589,1.7635,1.7747,1.7957,1.8377,1.8938,1.9428,2.0101,2.1019,2.1869,2.2627,2.3229,2.3827,2.4174,2.443,2.4833,2.5137,2.5391,2.5391,2.5489,2.5635,2.5489,2.5489,2.5693,2.5684,2.5684,2.5684,2.5684,2.5684,2.5684,2.5684,2.5684,2.5684,2.5684,2.5684,2.5684,2.5684,2.5684,2.5684,2.5684,2.5684,2.5684,2.5684,2.582,2.6152,2.6318,2.666,2.7217,2.7793,2.8144,2.8291,2.8301,2.8301,2.8301,2.8301,2.8301,2.8301,2.8301,2.8301,2.8301,2.8514,2.8834,2.9185,2.9669,2.9994,2.9994,2.9994,2.9994,2.9994,2.9994,2.9994,2.9994,2.9994,2.9994,2.9994,2.9994,2.9994,2.9994,3.0036,3.0149,3.0481,3.0553,3.0739,3.1381,3.1754,3.205,3.2339,3.2463,3.2784,3.2851,3.2908,3.2955,3.3001,3.2955,3.2955,1.89,1.8377,1.8122,1.7859,1.7641,1.7635,1.7747,1.8016,1.7964,1.8115,1.8265,1.8115,1.7964,1.7964,1.774,1.7589,1.7589,1.7589,1.7589,1.7589,1.7635,1.7747,1.7964,1.8272,1.8684,1.9316,2.005,2.107,2.2325,2.2728,2.3288,2.4035,2.4125,2.448,2.5088,2.5235,2.543,2.5635,2.5635,2.5693,2.5684,2.5693,2.5684,2.5684,2.5684,2.5684,2.5684,2.5684,2.5684,2.5684,2.5684,2.5684,2.5684,2.5684,2.5684,2.5684,2.5684,2.5684,2.5684,2.5684,2.5684,2.5684,2.5684,2.5693,2.5791,2.6133,2.6396,2.6475,2.7256,2.7832,2.8184,2.8271,2.8291,2.8301,2.8301,2.8301,2.8301,2.8301,2.8301,2.8354,2.8621,2.8993,2.9501,2.9827,2.9994,2.9994,2.9994,2.9994,2.9994,2.9994,2.9994,2.9994,2.9994,2.9994,2.9994,2.9994,2.9994,2.9994,3.0005,3.0015,3.016,3.0336,3.0594,3.0936,3.1516,3.1909,3.205,3.241,3.2861,3.3079,3.3296,3.3399,3.3342,3.3512,3.3455,1.9635,1.8959,1.8482,1.822,1.8108,1.8108,1.8167,1.8265,1.8272,1.8325,1.837,1.8318,1.8272,1.8265,1.816,1.7898,1.7641,1.7589,1.7589,1.7641,1.7799,1.7911,1.8069,1.8639,1.9264,1.9828,2.0454,2.1522,2.2929,2.3429,2.3985,2.4538,2.4794,2.503,2.5284,2.5489,2.5586,2.5684,2.5684,2.5684,2.5684,2.5684,2.5684,2.5684,2.5684,2.5684,2.5684,2.5684,2.5684,2.5684,2.5684,2.5684,2.5684,2.5684,2.5684,2.5684,2.5684,2.5684,2.5684,2.5684,2.5684,2.5684,2.5684,2.5684,2.5703,2.584,2.6074,2.6416,2.6885,2.7422,2.7875,2.8125,2.8301,2.8301,2.8301,2.8301,2.8301,2.8291,2.8344,2.8568,2.893,2.9459,2.9732,2.9942,2.9994,2.9994,2.9994,2.9994,2.9994,2.9994,2.9994,2.9994,2.9994,2.9994,2.9994,2.9994,2.9994,2.9994,3.0005,3.0005,3.0098,3.0118,3.0315,3.0657,3.1247,3.1889,3.2097,3.2857,3.3233,3.3466,3.3681,3.3794,3.3625,3.3851,3.3794,2.0101,1.9428,1.8997,1.8736,1.8691,1.8691,1.8743,1.8788,1.884,1.8893,1.8945,1.884,1.884,1.8788,1.8736,1.8527,1.816,1.795,1.7845,1.7845,1.8062,1.8227,1.8489,1.9011,1.968,2.0395,2.1216,2.2274,2.3479,2.4035,2.448,2.503,2.5235,2.5333,2.543,2.5586,2.5684,2.5684,2.5684,2.5684,2.5684,2.5684,2.5684,2.5684,2.5684,2.5684,2.5684,2.5684,2.5684,2.5684,2.5684,2.5684,2.5684,2.5684,2.5684,2.5684,2.5684,2.5684,2.5684,2.5684,2.5684,2.5684,2.5684,2.5684,2.5684,2.5684,2.5889,2.6201,2.6709,2.7168,2.748,2.7959,2.8291,2.8301,2.8301,2.8301,2.8301,2.8301,2.8504,2.8824,2.9248,2.9669,2.9942,2.9994,2.9994,2.9994,2.9994,2.9994,2.9994,2.9994,2.9994,2.9994,2.9994,2.9994,2.9994,2.9994,2.9994,2.9994,2.9994,2.9994,2.9994,2.9994,3.0098,3.045,3.1046,3.1709,3.2443,3.3239,3.3631,3.384,3.4142,3.4367,3.43,3.43,3.4356,2.0205,1.9783,1.9732,1.9524,1.9324,1.9324,1.948,1.962,1.968,1.9835,1.9931,1.9828,1.968,1.9628,1.9428,1.9272,1.9168,1.8743,1.8475,1.8422,1.8475,1.8743,1.922,1.9383,2.005,2.1019,2.2224,2.327,2.4084,2.4381,2.4784,2.5235,2.5342,2.544,2.5693,2.5684,2.5684,2.5684,2.5684,2.5684,2.5684,2.5684,2.5684,2.5684,2.5684,2.5684,2.5684,2.5684,2.5684,2.5684,2.5684,2.5684,2.5684,2.5684,2.5684,2.5684,2.5684,2.5684,2.5684,2.5684,2.5684,2.5684,2.5684,2.5684,2.5684,2.5684,2.5713,2.5859,2.6475,2.7012,2.7158,2.7764,2.8252,2.8301,2.8301,2.8301,2.8301,2.8291,2.8495,2.8983,2.9396,2.9711,2.9942,2.9994,2.9994,2.9994,2.9994,2.9994,2.9994,2.9994,2.9994,2.9994,2.9994,2.9994,2.9994,2.9994,2.9994,2.9994,2.9994,2.9994,2.9994,2.9994,3.0047,3.039,3.1252,3.192,3.2895,3.3664,3.4213,3.4479,3.4702,3.498,3.4958,3.5013,3.5191,2.1019,2.0506,2.03,2.0094,1.9879,2.005,2.0153,2.0308,2.0462,2.0609,2.0609,2.0557,2.0557,2.0462,2.0256,2.0109,2.0109,1.9724,1.9361,1.9108,1.9212,1.9368,1.9628,2.0153,2.0968,2.203,2.2979,2.3777,2.4332,2.4833,2.5235,2.5538,2.5577,2.5586,2.5693,2.5684,2.5684,2.5684,2.5684,2.5684,2.5684,2.5684,2.5684,2.5684,2.5684,2.5684,2.5684,2.5684,2.5684,2.5684,2.5684,2.5684,2.5684,2.5684,2.5684,2.5684,2.5684,2.5684,2.5684,2.5684,2.5684,2.5684,2.5684,2.5684,2.5684,2.5684,2.5684,2.5723,2.626,2.668,2.7041,2.751,2.7978,2.8262,2.8301,2.8291,2.8344,2.8601,2.8867,2.9132,2.9564,2.9889,3.0005,2.9994,2.9994,2.9994,2.9994,2.9994,2.9994,2.9994,2.9994,2.9994,2.9994,2.9994,2.9994,2.9994,2.9994,2.9994,2.9994,2.9994,2.9994,2.9994,3.0099,3.0538,3.1402,3.2266,3.3258,3.3999,3.4593,3.5058,3.5345,3.5499,3.5653,3.5829,3.595,2.1827,2.1326,2.1173,2.0909,2.0747,2.0968,2.107,2.1121,2.1369,2.1471,2.1522,2.1471,2.142,2.1318,2.1173,2.1019,2.0925,2.0755,2.0498,2.0197,1.999,2.0094,2.0344,2.1113,2.1878,2.2677,2.3479,2.4134,2.4637,2.5088,2.543,2.5635,2.5684,2.5684,2.5684,2.5684,2.5684,2.5684,2.5684,2.5684,2.5684,2.5684,2.5684,2.5684,2.5684,2.5684,2.5684,2.5684,2.5684,2.5684,2.5684,2.5684,2.5684,2.5684,2.5684,2.5684,2.5684,2.5684,2.5684,2.5684,2.5684,2.5684,2.5684,2.5684,2.5684,2.5684,2.5684,2.5742,2.6143,2.6553,2.6982,2.7412,2.7885,2.8252,2.8301,2.8344,2.8451,2.8824,2.9132,2.9343,2.9722,2.9942,2.9994,2.9994,2.9994,2.9994,2.9994,2.9994,2.9994,2.9994,2.9994,2.9994,2.9994,2.9994,2.9994,2.9994,2.9994,2.9994,2.9994,2.9994,2.9994,2.9994,3.0047,3.0716,3.1528,3.2413,3.3365,3.4315,3.5053,3.5461,3.5982,3.6145,3.6363,3.6429,3.6603,2.2627,2.2173,2.2123,2.1928,2.1725,2.1979,2.2072,2.2182,2.2426,2.2476,2.2526,2.2485,2.2375,2.2232,2.2072,2.1928,2.1768,2.1674,2.1666,2.1471,2.1121,2.0968,2.1369,2.203,2.2577,2.3079,2.3777,2.4381,2.4833,2.5186,2.544,2.5684,2.5684,2.5684,2.5684,2.5684,2.5684,2.5684,2.5684,2.5684,2.5684,2.5684,2.5684,2.5684,2.5684,2.5684,2.5684,2.5684,2.5684,2.5684,2.5684,2.5684,2.5684,2.5684,2.5684,2.5684,2.5684,2.5684,2.5684,2.5684,2.5684,2.5684,2.5684,2.5684,2.5684,2.5684,2.5684,2.5703,2.6074,2.6484,2.6894,2.7314,2.7764,2.8203,2.8301,2.8398,2.8674,2.893,2.9185,2.9501,2.9827,2.9994,2.9994,2.9994,2.9994,2.9994,2.9994,2.9994,2.9994,2.9994,2.9994,2.9994,2.9994,2.9994,2.9994,2.9994,2.9994,2.9994,2.9994,2.9994,3.0099,3.0099,3.0349,3.1028,3.1681,3.2566,3.3559,3.4609,3.556,3.6259,3.6634,3.685,3.7078,3.7239,3.7346,2.3329,2.2728,2.2677,2.2526,2.2325,2.2577,2.2677,2.2728,2.3038,2.3188,2.3147,2.3147,2.3147,2.3046,2.2837,2.2627,2.2577,2.2375,2.2426,2.2526,2.2426,2.2232,2.2274,2.2585,2.3088,2.3587,2.4143,2.4529,2.4941,2.5342,2.5586,2.5684,2.5684,2.5684,2.5684,2.5684,2.5684,2.5684,2.5684,2.5684,2.5684,2.5684,2.5684,2.5684,2.5684,2.5684,2.5684,2.5684,2.5684,2.5684,2.5684,2.5684,2.5684,2.5684,2.5684,2.5684,2.5684,2.5684,2.5684,2.5684,2.5684,2.5684,2.5684,2.5684,2.5684,2.5684,2.5684,2.5703,2.583,2.6103,2.6523,2.6973,2.751,2.8144,2.8301,2.8408,2.8674,2.893,2.9237,2.9554,2.9837,2.9994,2.9994,2.9994,2.9994,2.9994,2.9994,2.9994,2.9994,2.9994,2.9994,2.9994,2.9994,2.9994,2.9994,2.9994,2.9994,2.9994,2.9994,2.9994,3.0151,3.036,3.0765,3.1376,3.2009,3.2853,3.3986,3.5039,3.5989,3.689,3.7388,3.7655,3.7986,3.8145,3.825,2.4075,2.3587,2.3429,2.3229,2.302,2.3288,2.3379,2.3479,2.3836,2.4044,2.4044,2.4044,2.3994,2.3845,2.3687,2.3529,2.3379,2.3229,2.3279,2.3388,2.3479,2.3279,2.3029,2.3138,2.3497,2.3935,2.444,2.4784,2.5088,2.5489,2.5684,2.5684,2.5684,2.5684,2.5684,2.5684,2.5684,2.5684,2.5684,2.5684,2.5684,2.5684,2.5684,2.5684,2.5684,2.5684,2.5684,2.5684,2.5684,2.5684,2.5684,2.5684,2.5684,2.5684,2.5684,2.5684,2.5684,2.5684,2.5684,2.5684,2.5684,2.5684,2.5684,2.5684,2.5684,2.5684,2.5684,2.5693,2.5684,2.5957,2.6377,2.6914,2.7559,2.8154,2.8408,2.8558,2.8834,2.9132,2.9459,2.9722,2.9889,2.9994,2.9994,2.9994,2.9994,2.9994,2.9994,2.9994,2.9994,2.9994,2.9994,2.9994,2.9994,2.9994,2.9994,2.9994,2.9994,2.9994,3.0047,3.0047,3.0256,3.0568,3.1023,3.1581,3.2285,3.3122,3.4199,3.5265,3.6249,3.7047,3.7814,3.8344,3.8566,3.8776,3.8945,2.4775,2.4538,2.4273,2.4026,2.3886,2.4084,2.4125,2.4282,2.4627,2.4833,2.4794,2.4892,2.4627,2.4538,2.4381,2.4381,2.4183,2.4134,2.4134,2.4233,2.4282,2.4134,2.3687,2.3845,2.4044,2.4282,2.4735,2.5039,2.5284,2.5538,2.5684,2.5684,2.5684,2.5684,2.5684,2.5684,2.5684,2.5684,2.5684,2.5684,2.5684,2.5684,2.5684,2.5684,2.5684,2.5684,2.5684,2.5684,2.5684,2.5684,2.5684,2.5684,2.5684,2.5684,2.5684,2.5684,2.5684,2.5684,2.5684,2.5684,2.5684,2.5684,2.5684,2.5684,2.5684,2.5684,2.5684,2.5684,2.5684,2.5986,2.6494,2.7158,2.7748,2.8261,2.8568,2.8834,2.9132,2.9386,2.9711,2.9942,2.9994,2.9994,2.9994,2.9994,2.9994,2.9994,2.9994,2.9994,2.9994,2.9994,2.9994,2.9994,2.9994,2.9994,2.9994,2.9994,2.9994,2.9994,3.0088,3.0193,3.0412,3.0713,3.1116,3.1654,3.2441,3.3226,3.4152,3.5219,3.6299,3.7291,3.8038,3.8528,3.8921,3.9141,3.931,2.5088,2.4784,2.4735,2.4686,2.4686,2.4686,2.4735,2.4735,2.4833,2.4941,2.4941,2.4941,2.4883,2.4833,2.4833,2.4784,2.4726,2.4735,2.4735,2.4726,2.4784,2.4735,2.4587,2.4637,2.4686,2.4794,2.503,2.5235,2.5391,2.5577,2.5684,2.5684,2.5684,2.5684,2.5684,2.5684,2.5684,2.5684,2.5684,2.5684,2.5684,2.5684,2.5684,2.5684,2.5684,2.5684,2.5684,2.5684,2.5684,2.5684,2.5684,2.5684,2.5684,2.5684,2.5684,2.5684,2.5684,2.5684,2.5684,2.5684,2.5684,2.5684,2.5684,2.5684,2.5684,2.5684,2.5684,2.5684,2.5703,2.6015,2.6689,2.7002,2.7623,2.8311,2.8804,2.9142,2.9396,2.9544,2.9722,2.9942,2.9994,2.9994,2.9994,2.9994,2.9994,2.9994,2.9994,2.9994,2.9994,2.9994,2.9994,2.9994,2.9994,2.9994,2.9994,2.9994,2.9994,3.0047,3.0141,3.0349,3.0557,3.092,3.1322,3.1885,3.2516,3.3382,3.4264,3.5138,3.6211,3.7234,3.8204,3.8757,3.92,3.9469,3.9762,2.5391,2.5235,2.5137,2.5088,2.5088,2.5079,2.5079,2.5128,2.5235,2.5284,2.5284,2.5294,2.5294,2.5284,2.5294,2.5294,2.5284,2.5284,2.5284,2.5284,2.5284,2.5284,2.5284,2.5235,2.5245,2.5147,2.5235,2.5342,2.5489,2.5635,2.5684,2.5684,2.5684,2.5684,2.5684,2.5684,2.5684,2.5684,2.5684,2.5684,2.5684,2.5684,2.5684,2.5684,2.5684,2.5684,2.5684,2.5684,2.5684,2.5684,2.5684,2.5684,2.5684,2.5684,2.5684,2.5684,2.5684,2.5684,2.5684,2.5684,2.5684,2.5684,2.5684,2.5684,2.5684,2.5684,2.5684,2.5684,2.5732,2.6016,2.6631,2.6943,2.7518,2.8252,2.8873,2.9227,2.9554,2.9711,2.9827,2.9942,2.9994,2.9994,2.9994,2.9994,2.9994,2.9994,2.9994,2.9994,2.9994,2.9994,2.9994,2.9994,2.9994,2.9994,2.9994,2.9994,2.9994,3.0099,3.0193,3.0401,3.0672,3.1075,3.1476,3.2139,3.2807,3.3492,3.4357,3.5264,3.6184,3.7231,3.8214,3.8892,3.9498,3.9777,4.0109,2.5684,2.5693,2.544,2.5333,2.5391,2.5391,2.5333,2.5382,2.5586,2.5635,2.5684,2.5684,2.5635,2.5684,2.5635,2.5684,2.5684,2.5684,2.5586,2.5586,2.5586,2.5586,2.5635,2.5586,2.5538,2.5391,2.5391,2.5489,2.5635,2.5684,2.5684,2.5684,2.5684,2.5684,2.5684,2.5684,2.5684,2.5684,2.5684,2.5684,2.5684,2.5684,2.5684,2.5684,2.5684,2.5684,2.5684,2.5684,2.5684,2.5684,2.5684,2.5684,2.5684,2.5684,2.5684,2.5684,2.5684,2.5684,2.5684,2.5684,2.5684,2.5684,2.5684,2.5684,2.5684,2.5684,2.5684,2.5684,2.5723,2.5918,2.6348,2.6869,2.7383,2.8147,2.8775,2.9303,2.9606,2.9879,2.9942,2.9994,2.9994,2.9994,2.9994,2.9994,2.9994,2.9994,2.9994,2.9994,2.9994,2.9994,2.9994,2.9994,2.9994,2.9994,2.9994,2.9994,2.9994,3.0203,3.0297,3.0609,3.0931,3.1487,3.1986,3.2443,3.3069,3.3752,3.4442,3.5295,3.6235,3.7345,3.8129,3.8806,3.9437,4.0007,4.0402,2.5684,2.5684,2.5645,2.5635,2.5635,2.5635,2.5635,2.5635,2.5684,2.5684,2.5684,2.5684,2.5684,2.5684,2.5684,2.5684,2.5684,2.5684,2.5684,2.5684,2.5684,2.5684,2.5684,2.5684,2.5684,2.5645,2.5645,2.5635,2.5684,2.5684,2.5684,2.5684,2.5684,2.5684,2.5684,2.5684,2.5684,2.5684,2.5684,2.5684,2.5684,2.5684,2.5684,2.5684,2.5684,2.5684,2.5684,2.5684,2.5684,2.5684,2.5684,2.5684,2.5684,2.5684,2.5684,2.5684,2.5684,2.5684,2.5684,2.5684,2.5684,2.5684,2.5684,2.5684,2.5684,2.5684,2.5684,2.5684,2.5713,2.5908,2.6348,2.693,2.7619,2.8366,2.9039,2.9596,2.9827,2.9942,2.9994,2.9994,2.9994,2.9994,2.9994,2.9994,2.9994,2.9994,2.9994,2.9994,2.9994,2.9994,2.9994,2.9994,2.9994,2.9994,2.9994,2.9994,3.0047,3.0297,3.0505,3.092,3.1333,3.1986,3.2493,3.2896,3.3346,3.3953,3.4663,3.5381,3.6148,3.7071,3.7889,3.8677,3.9397,4.0095,4.0605,2.5684,2.5684,2.5684,2.5684,2.5684,2.5684,2.5684,2.5684,2.5684,2.5684,2.5684,2.5684,2.5684,2.5684,2.5684,2.5684,2.5684,2.5684,2.5684,2.5684,2.5684,2.5684,2.5684,2.5684,2.5684,2.5684,2.5684,2.5684,2.5684,2.5684,2.5684,2.5684,2.5684,2.5684,2.5684,2.5684,2.5684,2.5684,2.5684,2.5684,2.5684,2.5684,2.5684,2.5684,2.5684,2.5684,2.5684,2.5684,2.5684,2.5684,2.5684,2.5684,2.5684,2.5684,2.5684,2.5684,2.5684,2.5684,2.5684,2.5684,2.5684,2.5684,2.5684,2.5684,2.5684,2.5684,2.5684,2.5684,2.5684,2.5859,2.6212,2.6953,2.7652,2.8329,2.9063,2.964,2.9889,2.9994,2.9994,2.9994,2.9994,2.9994,2.9994,2.9994,2.9994,2.9994,2.9994,2.9994,2.9994,2.9994,2.9994,2.9994,2.9994,2.9994,2.9994,3.0047,3.0151,3.0401,3.0765,3.1127,3.1629,3.224,3.2745,3.3197,3.3694,3.4286,3.4847,3.5562,3.6183,3.6819,3.7736,3.8648,3.9419,4.0104,4.0626,2.5684,2.5684,2.5684,2.5684,2.5684,2.5684,2.5684,2.5684,2.5684,2.5684,2.5684,2.5684,2.5684,2.5684,2.5684,2.5684,2.5684,2.5684,2.5684,2.5684,2.5684,2.5684,2.5684,2.5684,2.5684,2.5684,2.5684,2.5684,2.5684,2.5684,2.5684,2.5684,2.5684,2.5684,2.5684,2.5684,2.5684,2.5684,2.5684,2.5684,2.5684,2.5684,2.5684,2.5684,2.5684,2.5684,2.5684,2.5684,2.5684,2.5684,2.5684,2.5684,2.5684,2.5684,2.5684,2.5684,2.5684,2.5684,2.5684,2.5684,2.5684,2.5684,2.5684,2.5684,2.5684,2.5684,2.5684,2.5684,2.5771,2.5868,2.621,2.6953,2.7633,2.8208,2.8962,2.9609,2.9858,2.9994,2.9994,2.9994,2.9994,2.9994,2.9994,2.9994,2.9994,2.9994,2.9994,2.9994,2.9994,2.9994,2.9994,2.9994,2.9994,2.9994,3.0047,3.0088,3.0297,3.0505,3.0972,3.1373,3.1885,3.2443,3.2996,3.3557,3.4188,3.4738,3.5223,3.5633,3.6141,3.6826,3.7731,3.8469,3.916,3.9984,4.0683,2.5684,2.5684,2.5684,2.5684,2.5684,2.5684,2.5684,2.5684,2.5684,2.5684,2.5684,2.5684,2.5684,2.5684,2.5684,2.5684,2.5684,2.5684,2.5684,2.5684,2.5684,2.5684,2.5684,2.5684,2.5684,2.5684,2.5684,2.5684,2.5684,2.5684,2.5684,2.5684,2.5684,2.5684,2.5684,2.5684,2.5684,2.5684,2.5684,2.5684,2.5684,2.5684,2.5684,2.5684,2.5684,2.5684,2.5684,2.5684,2.5684,2.5684,2.5684,2.5684,2.5684,2.5684,2.5684,2.5684,2.5684,2.5684,2.5684,2.5684,2.5684,2.5684,2.5684,2.5684,2.5684,2.5684,2.5684,2.5684,2.5858,2.6052,2.6315,2.6988,2.7659,2.8257,2.8911,2.9528,2.987,2.9994,2.9994,2.9994,2.9994,2.9994,2.9994,2.9994,2.9994,2.9994,2.9994,2.9994,2.9994,2.9994,2.9994,2.9994,2.9994,2.9994,3.0047,3.0141,3.0401,3.0661,3.1127,3.1578,3.219,3.2745,3.3369,3.3965,3.4604,3.5126,3.5524,3.5824,3.6148,3.6697,3.7511,3.8171,3.8761,3.9669,4.0676,2.5684,2.5684,2.5684,2.5684,2.5684,2.5684,2.5684,2.5684,2.5684,2.5684,2.5684,2.5684,2.5684,2.5684,2.5684,2.5684,2.5684,2.5684,2.5684,2.5684,2.5684,2.5684,2.5684,2.5684,2.5684,2.5684,2.5684,2.5684,2.5684,2.5684,2.5684,2.5684,2.5684,2.5684,2.5684,2.5684,2.5684,2.5684,2.5684,2.5684,2.5684,2.5684,2.5684,2.5684,2.5684,2.5684,2.5684,2.5684,2.5684,2.5684,2.5684,2.5684,2.5684,2.5684,2.5684,2.5684,2.5684,2.5684,2.5684,2.5684,2.5684,2.5684,2.5684,2.5684,2.5684,2.5732,2.5771,2.5907,2.6004,2.6197,2.6518,2.7191,2.7766,2.8356,2.8858,2.9384,2.9798,2.9932,2.9994,2.9994,2.9994,2.9994,2.9994,2.9994,2.9994,2.9994,2.9994,2.9994,2.9994,2.9994,2.9994,2.9994,2.9994,2.9994,3.0099,3.0193,3.0505,3.0765,3.1219,3.1783,3.2493,3.3108,3.3717,3.431,3.4981,3.5416,3.5716,3.6003,3.6301,3.6786,3.7264,3.7964,3.873,3.9715,4.0621,2.5684,2.5684,2.5684,2.5684,2.5684,2.5684,2.5684,2.5684,2.5684,2.5684,2.5684,2.5684,2.5684,2.5684,2.5684,2.5684,2.5684,2.5684,2.5684,2.5684,2.5684,2.5684,2.5684,2.5684,2.5684,2.5684,2.5684,2.5684,2.5684,2.5684,2.5684,2.5684,2.5684,2.5684,2.5684,2.5684,2.5684,2.5684,2.5684,2.5684,2.5684,2.5684,2.5684,2.5684,2.5684,2.5684,2.5684,2.5684,2.5684,2.5684,2.5684,2.5684,2.5684,2.5684,2.5684,2.5684,2.5684,2.5684,2.5684,2.5684,2.5684,2.5684,2.5684,2.5684,2.5732,2.5732,2.5868,2.6052,2.6294,2.6544,2.6855,2.7245,2.7698,2.8229,2.8804,2.929,2.9704,2.9798,2.9922,2.9994,2.9994,2.9994,2.9994,2.9994,2.9994,2.9994,2.9994,2.9994,2.9994,2.9994,2.9994,2.9994,2.9994,3.0047,3.0193,3.0349,3.0609,3.0972,3.1476,3.2037,3.2807,3.3408,3.3965,3.464,3.5271,3.556,3.586,3.6133,3.6452,3.678,3.7197,3.7983,3.8788,3.98,4.0582,2.5684,2.5684,2.5684,2.5684,2.5684,2.5684,2.5684,2.5684,2.5684,2.5684,2.5684,2.5684,2.5684,2.5684,2.5684,2.5684,2.5684,2.5684,2.5684,2.5684,2.5684,2.5684,2.5684,2.5684,2.5684,2.5684,2.5684,2.5684,2.5684,2.5684,2.5684,2.5684,2.5684,2.5684,2.5684,2.5684,2.5684,2.5684,2.5684,2.5684,2.5684,2.5684,2.5684,2.5684,2.5684,2.5684,2.5684,2.5684,2.5684,2.5684,2.5684,2.5684,2.5684,2.5684,2.5684,2.5684,2.5684,2.5684,2.5684,2.5684,2.5684,2.5684,2.5684,2.5684,2.5684,2.5955,2.6091,2.6149,2.6448,2.6747,2.6996,2.7164,2.7586,2.7989,2.8483,2.8845,2.9259,2.9611,2.9746,2.9932,2.9953,2.9891,2.9994,2.9994,2.9994,2.9994,2.9994,2.9994,2.9994,2.9994,2.9994,2.9994,3.0047,3.0151,3.0349,3.0609,3.092,3.1384,3.1834,3.2443,3.3119,3.3717,3.4298,3.4787,3.5428,3.5668,3.5955,3.6228,3.6452,3.6687,3.7164,3.7899,3.8988,4.0184,4.0765,2.5684,2.5684,2.5684,2.5684,2.5684,2.5684,2.5684,2.5684,2.5684,2.5684,2.5684,2.5684,2.5684,2.5684,2.5684,2.5684,2.5684,2.5684,2.5684,2.5684,2.5684,2.5684,2.5684,2.5684,2.5684,2.5684,2.5684,2.5684,2.5684,2.5684,2.5684,2.5684,2.5684,2.5684,2.5684,2.5684,2.5684,2.5684,2.5684,2.5684,2.5684,2.5684,2.5684,2.5684,2.5684,2.5684,2.5684,2.5684,2.5684,2.5684,2.5684,2.5684,2.5684,2.5684,2.5684,2.5684,2.5684,2.5684,2.5684,2.5684,2.5684,2.5684,2.5684,2.5684,2.5732,2.5955,2.6197,2.64,2.6651,2.6938,2.7177,2.7245,2.7458,2.781,2.8152,2.8473,2.8783,2.9156,2.9394,2.9508,2.9611,2.9653,2.9818,2.9994,2.9994,2.9994,2.9994,2.9994,2.9994,2.9994,2.9994,3.0047,3.0099,3.0193,3.0453,3.0817,3.1178,3.168,3.224,3.2857,3.3469,3.415,3.4689,3.5175,3.5524,3.5847,3.6133,3.6275,3.6499,3.6734,3.7194,3.7749,3.9029,4.0415,4.0921,2.5684,2.5684,2.5684,2.5684,2.5684,2.5684,2.5684,2.5684,2.5684,2.5684,2.5684,2.5684,2.5684,2.5684,2.5684,2.5684,2.5684,2.5684,2.5684,2.5684,2.5684,2.5684,2.5684,2.5684,2.5684,2.5684,2.5684,2.5684,2.5684,2.5684,2.5684,2.5684,2.5684,2.5684,2.5684,2.5684,2.5684,2.5684,2.5684,2.5684,2.5684,2.5684,2.5684,2.5684,2.5684,2.5684,2.5684,2.5684,2.5684,2.5684,2.5684,2.5684,2.5684,2.5684,2.5684,2.5684,2.5684,2.5684,2.5684,2.5684,2.5684,2.5684,2.5684,2.5732,2.5868,2.6062,2.6342,2.6602,2.6842,2.7081,2.732,2.733,2.7361,2.7624,2.7855,2.8204,2.838,2.868,2.8876,2.9052,2.9156,2.9259,2.9632,2.9829,2.9984,2.9984,2.9994,2.9994,2.9994,2.9994,2.9994,3.0099,3.0193,3.0349,3.0557,3.1013,3.1476,3.2037,3.2594,3.3108,3.3755,3.4445,3.4981,3.5368,3.5704,3.6038,3.6275,3.6405,3.6593,3.6828,3.7514,3.8346,3.9125,4.0386,4.0948,2.5684,2.5684,2.5684,2.5684,2.5684,2.5684,2.5684,2.5684,2.5684,2.5684,2.5684,2.5684,2.5684,2.5684,2.5684,2.5684,2.5684,2.5684,2.5684,2.5684,2.5684,2.5684,2.5684,2.5684,2.5684,2.5684,2.5684,2.5684,2.5684,2.5684,2.5684,2.5684,2.5684,2.5684,2.5684,2.5684,2.5684,2.5684,2.5684,2.5684,2.5684,2.5684,2.5684,2.5684,2.5684,2.5684,2.5684,2.5684,2.5684,2.5684,2.5684,2.5684,2.5684,2.5684,2.5684,2.5684,2.5684,2.5684,2.5742,2.5732,2.5732,2.5732,2.5732,2.583,2.6052,2.6342,2.6544,2.6794,2.7081,2.7225,2.732,2.732,2.7361,2.7455,2.7686,2.7831,2.8007,2.811,2.8307,2.8556,2.8649,2.8804,2.927,2.9642,2.988,2.9973,2.9994,2.9994,2.9994,2.9994,2.9994,3.0203,3.0349,3.0661,3.0909,3.1311,3.1772,3.2342,3.2896,3.3457,3.4003,3.464,3.5126,3.5512,3.5847,3.6181,3.6405,3.6534,3.6769,3.7151,3.8385,3.9242,3.9812,4.0305,4.0853,2.5684,2.5684,2.5684,2.5684,2.5684,2.5684,2.5684,2.5684,2.5684,2.5684,2.5684,2.5684,2.5684,2.5684,2.5684,2.5684,2.5684,2.5684,2.5684,2.5684,2.5684,2.5684,2.5684,2.5684,2.5684,2.5684,2.5684,2.5684,2.5684,2.5684,2.5684,2.5684,2.5684,2.5684,2.5684,2.5684,2.5684,2.5684,2.5684,2.5684,2.5684,2.5684,2.5684,2.5684,2.5684,2.5684,2.5684,2.5684,2.5684,2.5684,2.5684,2.5684,2.5684,2.5732,2.5732,2.5732,2.5732,2.5781,2.5965,2.6062,2.6024,2.5936,2.5878,2.6014,2.6149,2.6544,2.6747,2.6938,2.7167,2.7262,2.732,2.732,2.734,2.734,2.7486,2.7448,2.7589,2.7583,2.7717,2.8007,2.8183,2.8628,2.9094,2.9446,2.9704,2.9942,2.9994,2.9994,2.9994,3.0047,3.0047,3.0308,3.0557,3.092,3.127,3.168,3.219,3.2757,3.3258,3.3744,3.4335,3.4884,3.532,3.5764,3.6038,3.631,3.6499,3.6722,3.7015,3.7624,3.8509,3.922,3.9586,4.0069,4.0684,2.5684,2.5684,2.5684,2.5684,2.5684,2.5684,2.5684,2.5684,2.5684,2.5684,2.5684,2.5684,2.5684,2.5684,2.5684,2.5684,2.5684,2.5684,2.5684,2.5684,2.5684,2.5684,2.5684,2.5684,2.5684,2.5684,2.5684,2.5684,2.5684,2.5684,2.5684,2.5684,2.5684,2.5684,2.5684,2.5684,2.5684,2.5684,2.5684,2.5684,2.5684,2.5684,2.5684,2.5684,2.5684,2.5684,2.5684,2.5684,2.5684,2.5684,2.5684,2.5684,2.5742,2.5781,2.583,2.583,2.5975,2.6062,2.6245,2.6342,2.6265,2.6072,2.6149,2.6294,2.64,2.6699,2.689,2.7081,2.7214,2.7262,2.732,2.732,2.732,2.732,2.732,2.734,2.7351,2.7413,2.7444,2.7665,2.781,2.8328,2.8876,2.9228,2.9518,2.9766,2.9994,2.9994,2.9994,3.0047,3.0141,3.0401,3.0713,3.1023,3.1476,3.2037,3.2555,3.3181,3.3717,3.4188,3.4628,3.5175,3.562,3.6003,3.6181,3.6405,3.664,3.6922,3.7168,3.7511,3.8048,3.8663,3.9207,3.9808,4.0409,2.5684,2.5684,2.5684,2.5684,2.5684,2.5684,2.5684,2.5684,2.5684,2.5684,2.5684,2.5684,2.5684,2.5684,2.5684,2.5684,2.5684,2.5684,2.5684,2.5684,2.5684,2.5684,2.5684,2.5684,2.5684,2.5684,2.5684,2.5684,2.5684,2.5684,2.5684,2.5684,2.5684,2.5684,2.5684,2.5684,2.5684,2.5684,2.5684,2.5684,2.5684,2.5684,2.5684,2.5684,2.5684,2.5684,2.5684,2.5684,2.5684,2.5684,2.5742,2.5742,2.5781,2.5955,2.6052,2.6149,2.6352,2.6448,2.6544,2.6592,2.664,2.6544,2.6544,2.6699,2.6805,2.689,2.7034,2.7177,2.7262,2.7309,2.732,2.732,2.732,2.732,2.732,2.732,2.732,2.734,2.734,2.7413,2.7423,2.7828,2.8452,2.8876,2.929,2.9632,2.987,2.9994,3.0047,3.0099,3.0245,3.0505,3.0817,3.1116,3.168,3.2342,3.2908,3.353,3.4162,3.4628,3.5078,3.5428,3.5812,3.6098,3.6263,3.6499,3.6781,3.7062,3.7261,3.7629,3.7984,3.8311,3.8919,3.9468,4.0043,2.5684,2.5684,2.5684,2.5684,2.5684,2.5684,2.5684,2.5684,2.5684,2.5684,2.5684,2.5684,2.5684,2.5684,2.5684,2.5684,2.5684,2.5684,2.5684,2.5684,2.5684,2.5684,2.5684,2.5684,2.5684,2.5684,2.5684,2.5684,2.5684,2.5684,2.5684,2.5684,2.5684,2.5684,2.5684,2.5684,2.5684,2.5684,2.5684,2.5684,2.5684,2.5684,2.5684,2.5684,2.5684,2.5684,2.5684,2.5684,2.5684,2.5742,2.5868,2.5965,2.6004,2.6245,2.64,2.64,2.6602,2.6805,2.6805,2.6986,2.7071,2.7061,2.7061,2.6938,2.6986,2.7081,2.7214,2.7262,2.732,2.732,2.732,2.732,2.732,2.732,2.732,2.732,2.732,2.732,2.732,2.732,2.732,2.7521,2.8162,2.8607,2.9011,2.9425,2.9735,2.9953,3.0047,3.0141,3.0297,3.062,3.1023,3.1424,3.2088,3.2757,3.3269,3.3828,3.4494,3.503,3.5368,3.5704,3.5991,3.6228,3.631,3.664,3.6968,3.7168,3.7261,3.7611,3.7965,3.8266,3.8619,3.9128,3.9625,2.5684,2.5684,2.5684,2.5684,2.5684,2.5684,2.5684,2.5684,2.5684,2.5684,2.5684,2.5684,2.5684,2.5684,2.5684,2.5684,2.5684,2.5684,2.5684,2.5684,2.5684,2.5684,2.5684,2.5684,2.5684,2.5684,2.5684,2.5684,2.5684,2.5684,2.5684,2.5684,2.5684,2.5684,2.5684,2.5684,2.5684,2.5684,2.5684,2.5684,2.5684,2.5684,2.5684,2.5684,2.5684,2.5684,2.5684,2.5684,2.5732,2.583,2.6052,2.6235,2.638,2.6726,2.7061,2.7109,2.7251,2.7347,2.7404,2.7489,2.7536,2.7536,2.7489,2.7357,2.7272,2.7262,2.7309,2.732,2.732,2.732,2.732,2.732,2.732,2.732,2.732,2.732,2.732,2.732,2.732,2.732,2.7413,2.7531,2.7903,2.8328,2.8794,2.9342,2.9777,3.013,3.0245,3.0287,3.0453,3.0672,3.123,3.1732,3.2443,3.3108,3.3656,3.4211,3.4835,3.532,3.5656,3.5943,3.6181,3.6323,3.637,3.67,3.7015,3.7108,3.7214,3.7598,3.79,3.807,3.8331,3.8671,3.9141,2.5684,2.5684,2.5684,2.5684,2.5684,2.5684,2.5684,2.5684,2.5684,2.5684,2.5684,2.5684,2.5684,2.5684,2.5684,2.5684,2.5684,2.5684,2.5684,2.5684,2.5684,2.5684,2.5684,2.5684,2.5684,2.5684,2.5684,2.5684,2.5684,2.5684,2.5684,2.5684,2.5684,2.5684,2.5684,2.5684,2.5684,2.5684,2.5684,2.5684,2.5684,2.5684,2.5684,2.5684,2.5684,2.5684,2.5732,2.5781,2.5878,2.6014,2.6294,2.6476,2.7051,2.7394,2.7726,2.7904,2.794,2.7998,2.7951,2.7998,2.7998,2.7904,2.7809,2.7678,2.7584,2.7357,2.7309,2.732,2.732,2.732,2.732,2.732,2.732,2.732,2.732,2.732,2.732,2.7309,2.7357,2.7357,2.7436,2.7613,2.7927,2.8415,2.8948,2.937,2.9901,3.0349,3.0495,3.0536,3.0754,3.0983,3.1527,3.2139,3.2695,3.3358,3.3941,3.4543,3.5126,3.5572,3.5824,3.6098,3.637,3.6417,3.6417,3.6687,3.6922,3.7062,3.7261,3.7703,3.79,3.79,3.8096,3.837,3.8684,2.5684,2.5684,2.5684,2.5684,2.5684,2.5684,2.5684,2.5684,2.5684,2.5684,2.5684,2.5684,2.5684,2.5684,2.5684,2.5684,2.5684,2.5684,2.5684,2.5684,2.5684,2.5684,2.5684,2.5684,2.5684,2.5684,2.5684,2.5684,2.5684,2.5684,2.5684,2.5684,2.5684,2.5684,2.5684,2.5684,2.5684,2.5684,2.5684,2.5684,2.5684,2.5684,2.5684,2.5684,2.5684,2.5684,2.5732,2.5917,2.6014,2.6149,2.6726,2.7299,2.8019,2.816,2.8279,2.8491,2.8595,2.8595,2.856,2.8524,2.843,2.8279,2.8139,2.7998,2.7762,2.7489,2.7309,2.7309,2.732,2.732,2.732,2.732,2.732,2.732,2.732,2.732,2.7367,2.7357,2.7404,2.7441,2.7489,2.7788,2.8084,2.8532,2.9088,2.9658,3.0312,3.0703,3.0909,3.1013,3.1373,3.164,3.1986,3.2544,3.3108,3.3656,3.4298,3.4738,3.5271,3.5668,3.5968,3.6193,3.6417,3.6417,3.6465,3.6734,3.6922,3.7062,3.7307,3.7749,3.79,3.79,3.79,3.8109,3.837,2.5684,2.5684,2.5684,2.5684,2.5684,2.5684,2.5684,2.5684,2.5684,2.5684,2.5684,2.5684,2.5684,2.5684,2.5684,2.5684,2.5684,2.5684,2.5684,2.5684,2.5684,2.5684,2.5684,2.5684,2.5684,2.5684,2.5684,2.5684,2.5684,2.5684,2.5684,2.5684,2.5684,2.5684,2.5684,2.5684,2.5684,2.5684,2.5684,2.5684,2.5684,2.5684,2.5684,2.5684,2.5684,2.5684,2.5781,2.5965,2.6149,2.6534,2.7251,2.7914,2.8535,2.8907,2.9093,2.9255,2.9347,2.9347,2.9209,2.9128,2.8954,2.8803,2.8524,2.842,2.8326,2.7998,2.7573,2.7536,2.7357,2.7309,2.732,2.732,2.732,2.732,2.7452,2.7499,2.7631,2.7715,2.7715,2.7773,2.7862,2.801,2.8391,2.8868,2.9367,2.9884,3.0519,3.1105,3.127,3.1538,3.1885,3.224,3.2645,3.2946,3.3346,3.3953,3.464,3.5078,3.5476,3.5812,3.6146,3.6275,3.6417,3.6405,3.6499,3.6734,3.6922,3.7108,3.7413,3.7808,3.79,3.79,3.79,3.79,3.8096,2.5684,2.5684,2.5684,2.5684,2.5684,2.5684,2.5684,2.5684,2.5684,2.5684,2.5684,2.5684,2.5684,2.5684,2.5684,2.5684,2.5684,2.5684,2.5684,2.5684,2.5684,2.5684,2.5684,2.5684,2.5684,2.5684,2.5684,2.5684,2.5684,2.5684,2.5684,2.5684,2.5684,2.5684,2.5684,2.5684,2.5684,2.5684,2.5684,2.5684,2.5684,2.5684,2.5684,2.5684,2.5684,2.5684,2.5781,2.6014,2.6245,2.6907,2.7678,2.8477,2.9035,2.9508,2.9829,3.0011,3.0148,3.0102,3.0057,2.9931,2.9783,2.9531,2.9174,2.8896,2.8792,2.8466,2.8045,2.7809,2.7631,2.7441,2.7452,2.7404,2.7404,2.7452,2.7584,2.7726,2.7857,2.7987,2.8045,2.8045,2.8199,2.8337,2.885,2.9272,2.9803,3.0324,3.078,3.1262,3.1732,3.2139,3.2505,3.2857,3.3247,3.3496,3.3793,3.4188,3.4884,3.538,3.5764,3.6051,3.6323,3.637,3.6405,3.6452,3.6534,3.6769,3.7015,3.7248,3.7551,3.7854,3.79,3.79,3.79,3.79,3.79,2.5684,2.5684,2.5684,2.5684,2.5684,2.5684,2.5684,2.5684,2.5684,2.5684,2.5684,2.5684,2.5684,2.5684,2.5684,2.5684,2.5684,2.5684,2.5684,2.5684,2.5684,2.5684,2.5684,2.5684,2.5684,2.5684,2.5684,2.5684,2.5684,2.5684,2.5684,2.5684,2.5684,2.5684,2.5684,2.5684,2.5684,2.5684,2.5684,2.5684,2.5684,2.5684,2.5684,2.5684,2.5684,2.5684,2.583,2.6207,2.6534,2.7098,2.8008,2.8896,2.9508,3.0,3.0375,3.0691,3.0883,3.0871,3.0781,3.0601,3.0397,3.0125,2.976,2.9542,2.9312,2.8978,2.8653,2.8513,2.8279,2.7893,2.7857,2.7809,2.7809,2.7857,2.7951,2.7998,2.8092,2.8186,2.8233,2.8405,2.8657,2.907,2.9643,3.0185,3.0767,3.1241,3.166,3.2134,3.2291,3.2706,3.3069,3.3457,3.3805,3.4237,3.4531,3.458,3.5078,3.5572,3.5968,3.6193,3.6323,3.637,3.6405,3.6405,3.6581,3.6815,3.7049,3.7353,3.7598,3.7854,3.79,3.79,3.79,3.79,3.79]}]]